<?xml version='1.0' encoding='UTF-8'?><gpx version="1.1" creator="JPX - https://github.com/jenetics/jpx" xmlns="http://www.topografix.com/GPX/1/1"><trk><trkseg><trkpt lat="43.3076134651972" lon="11.936593043318457"><ele>343.0</ele><time>2026-04-25T08:59:51.001Z</time></trkpt><trkpt lat="43.3075628781617" lon="11.936534830837244"><ele>343.0</ele><time>2026-04-25T08:59:54.001Z</time></trkpt><trkpt lat="43.30750420889674" lon="11.936457889478932"><ele>343.0</ele><time>2026-04-25T08:59:58.001Z</time></trkpt><trkpt lat="43.307540358799216" lon="11.93637366812654"><ele>343.0</ele><time>2026-04-25T09:00:02.001Z</time></trkpt><trkpt lat="43.30760733714873" lon="11.936372722615394"><ele>343.0</ele><time>2026-04-25T09:00:05.001Z</time></trkpt><trkpt lat="43.307687348013935" lon="11.936350577402232"><ele>343.0</ele><time>2026-04-25T09:00:08Z</time></trkpt><trkpt lat="43.307746455766086" lon="11.936313356035068"><ele>343.0</ele><time>2026-04-25T09:00:10Z</time></trkpt><trkpt lat="43.3078110565461" lon="11.936228492725576"><ele>343.0</ele><time>2026-04-25T09:00:13Z</time></trkpt><trkpt lat="43.30784111839507" lon="11.936117649730534"><ele>343.0</ele><time>2026-04-25T09:00:16Z</time></trkpt><trkpt lat="43.30787190479495" lon="11.936015827962494"><ele>343.0</ele><time>2026-04-25T09:00:19Z</time></trkpt><trkpt lat="43.307923053757825" lon="11.93594109283929"><ele>343.0</ele><time>2026-04-25T09:00:22Z</time></trkpt><trkpt lat="43.307982650463096" lon="11.935892990944858"><ele>343.0</ele><time>2026-04-25T09:00:26Z</time></trkpt><trkpt lat="43.30802498875547" lon="11.935822640440437"><ele>343.0</ele><time>2026-04-25T09:00:30Z</time></trkpt><trkpt lat="43.30809488400133" lon="11.935775446915478"><ele>343.85714285714283</ele><time>2026-04-25T09:00:35Z</time></trkpt><trkpt lat="43.308139479924485" lon="11.935707494671828"><ele>344.7142857142857</ele><time>2026-04-25T09:00:39Z</time></trkpt><trkpt lat="43.30818866218131" lon="11.935630483518866"><ele>345.57142857142856</ele><time>2026-04-25T09:00:43Z</time></trkpt><trkpt lat="43.308236592122356" lon="11.935550294526351"><ele>346.42857142857144</ele><time>2026-04-25T09:00:48Z</time></trkpt><trkpt lat="43.30828768029353" lon="11.935499621355325"><ele>347.2857142857143</ele><time>2026-04-25T09:00:52Z</time></trkpt><trkpt lat="43.308339749207114" lon="11.935426718021022"><ele>348.1428571428571</ele><time>2026-04-25T09:00:56Z</time></trkpt><trkpt lat="43.30835906381301" lon="11.935340080677909"><ele>349.0</ele><time>2026-04-25T09:01:00Z</time></trkpt><trkpt lat="43.30841145542165" lon="11.935262747249464"><ele>349.0</ele><time>2026-04-25T09:01:05Z</time></trkpt><trkpt lat="43.308450528089935" lon="11.935167704813626"><ele>349.0</ele><time>2026-04-25T09:01:09Z</time></trkpt><trkpt lat="43.30848932134902" lon="11.935093578468878"><ele>349.0</ele><time>2026-04-25T09:01:13Z</time></trkpt><trkpt lat="43.30854633618182" lon="11.935013378015425"><ele>349.0</ele><time>2026-04-25T09:01:17Z</time></trkpt><trkpt lat="43.308601117601675" lon="11.934933702127873"><ele>349.0</ele><time>2026-04-25T09:01:21Z</time></trkpt><trkpt lat="43.308614344543095" lon="11.934820305363981"><ele>349.0</ele><time>2026-04-25T09:01:24Z</time></trkpt><trkpt lat="43.30867298639227" lon="11.934753764086906"><ele>349.3333333333333</ele><time>2026-04-25T09:01:27Z</time></trkpt><trkpt lat="43.30873423885045" lon="11.93470073463981"><ele>349.66666666666663</ele><time>2026-04-25T09:01:30Z</time></trkpt><trkpt lat="43.30880470176047" lon="11.93465328814879"><ele>350.0</ele><time>2026-04-25T09:01:33Z</time></trkpt><trkpt lat="43.30888288983931" lon="11.934625382414017"><ele>350.3333333333333</ele><time>2026-04-25T09:01:36Z</time></trkpt><trkpt lat="43.30895811199427" lon="11.934605599439372"><ele>350.6666666666667</ele><time>2026-04-25T09:01:39Z</time></trkpt><trkpt lat="43.30903948329411" lon="11.934636847226386"><ele>351.0</ele><time>2026-04-25T09:01:42Z</time></trkpt><trkpt lat="43.30911199414798" lon="11.934671097621688"><ele>351.0</ele><time>2026-04-25T09:01:45Z</time></trkpt><trkpt lat="43.30918695552643" lon="11.934704121256692"><ele>351.0</ele><time>2026-04-25T09:01:48Z</time></trkpt><trkpt lat="43.309259885908226" lon="11.93473326406331"><ele>351.0</ele><time>2026-04-25T09:01:51Z</time></trkpt><trkpt lat="43.30931568748649" lon="11.934806673706717"><ele>351.0</ele><time>2026-04-25T09:01:54Z</time></trkpt><trkpt lat="43.30938330951054" lon="11.934860146819174"><ele>351.0</ele><time>2026-04-25T09:01:57Z</time></trkpt><trkpt lat="43.30947143879783" lon="11.934898458610549"><ele>351.0</ele><time>2026-04-25T09:02:01Z</time></trkpt><trkpt lat="43.30955008304701" lon="11.934930767487904"><ele>351.0</ele><time>2026-04-25T09:02:04Z</time></trkpt><trkpt lat="43.30961505715051" lon="11.934935735764169"><ele>351.0</ele><time>2026-04-25T09:02:07Z</time></trkpt><trkpt lat="43.30968194300664" lon="11.934916652201057"><ele>351.0</ele><time>2026-04-25T09:02:10Z</time></trkpt><trkpt lat="43.30976794652808" lon="11.934902287115388"><ele>351.0</ele><time>2026-04-25T09:02:13Z</time></trkpt><trkpt lat="43.309844570492785" lon="11.934863662106615"><ele>351.0</ele><time>2026-04-25T09:02:16Z</time></trkpt><trkpt lat="43.309891423026855" lon="11.934786099840515"><ele>351.0</ele><time>2026-04-25T09:02:19Z</time></trkpt><trkpt lat="43.30990700183677" lon="11.934660838559545"><ele>350.3333333333333</ele><time>2026-04-25T09:02:23Z</time></trkpt><trkpt lat="43.30993054734269" lon="11.934552018393061"><ele>349.6666666666667</ele><time>2026-04-25T09:02:26Z</time></trkpt><trkpt lat="43.30995289690388" lon="11.93443794475696"><ele>349.0</ele><time>2026-04-25T09:02:29Z</time></trkpt><trkpt lat="43.309993350230386" lon="11.934365231276326"><ele>348.33333333333337</ele><time>2026-04-25T09:02:32Z</time></trkpt><trkpt lat="43.31005397089099" lon="11.934290171667648"><ele>347.6666666666667</ele><time>2026-04-25T09:02:35Z</time></trkpt><trkpt lat="43.31011885660387" lon="11.93421576529611"><ele>347.0</ele><time>2026-04-25T09:02:39Z</time></trkpt><trkpt lat="43.31018400440156" lon="11.934161693608628"><ele>347.0</ele><time>2026-04-25T09:02:42Z</time></trkpt><trkpt lat="43.31024874256438" lon="11.934131736026954"><ele>347.0</ele><time>2026-04-25T09:02:46Z</time></trkpt><trkpt lat="43.31031721356808" lon="11.934194068229356"><ele>347.0</ele><time>2026-04-25T09:02:50Z</time></trkpt><trkpt lat="43.31035998605746" lon="11.934281678162105"><ele>347.0</ele><time>2026-04-25T09:02:53Z</time></trkpt><trkpt lat="43.31042280547691" lon="11.934334815582206"><ele>347.0</ele><time>2026-04-25T09:02:57Z</time></trkpt><trkpt lat="43.31049168061515" lon="11.934409462851585"><ele>347.0</ele><time>2026-04-25T09:03:01Z</time></trkpt><trkpt lat="43.310554070669184" lon="11.934447607993988"><ele>346.42857142857144</ele><time>2026-04-25T09:03:04Z</time></trkpt><trkpt lat="43.31061823112687" lon="11.934493242782251"><ele>345.85714285714283</ele><time>2026-04-25T09:03:08Z</time></trkpt><trkpt lat="43.31067378700428" lon="11.934534851750968"><ele>345.2857142857143</ele><time>2026-04-25T09:03:12Z</time></trkpt><trkpt lat="43.310732770007036" lon="11.934579711659435"><ele>344.7142857142857</ele><time>2026-04-25T09:03:17Z</time></trkpt><trkpt lat="43.310803390257796" lon="11.934621617002312"><ele>344.1428571428571</ele><time>2026-04-25T09:03:22Z</time></trkpt><trkpt lat="43.31086626975386" lon="11.934662851854128"><ele>343.57142857142856</ele><time>2026-04-25T09:03:26Z</time></trkpt><trkpt lat="43.310934177751626" lon="11.93471822680036"><ele>343.0</ele><time>2026-04-25T09:03:30Z</time></trkpt><trkpt lat="43.31099926854606" lon="11.934768770143409"><ele>343.0</ele><time>2026-04-25T09:03:35Z</time></trkpt><trkpt lat="43.31105272180359" lon="11.934818355430536"><ele>343.0</ele><time>2026-04-25T09:03:38Z</time></trkpt><trkpt lat="43.31111174348887" lon="11.934868698761857"><ele>343.0</ele><time>2026-04-25T09:03:42Z</time></trkpt><trkpt lat="43.31117401865407" lon="11.934901836271491"><ele>343.0</ele><time>2026-04-25T09:03:46Z</time></trkpt><trkpt lat="43.311238826221576" lon="11.934927888039873"><ele>343.0</ele><time>2026-04-25T09:03:50Z</time></trkpt><trkpt lat="43.31130651219242" lon="11.934957883832329"><ele>343.0</ele><time>2026-04-25T09:03:54Z</time></trkpt><trkpt lat="43.31137846110508" lon="11.934996299674257"><ele>343.0</ele><time>2026-04-25T09:03:59Z</time></trkpt><trkpt lat="43.311446210408306" lon="11.93503109470025"><ele>341.0</ele><time>2026-04-25T09:04:03Z</time></trkpt><trkpt lat="43.31151682264885" lon="11.935037011181839"><ele>339.0</ele><time>2026-04-25T09:04:07Z</time></trkpt><trkpt lat="43.311591216229104" lon="11.93504520700911"><ele>337.0</ele><time>2026-04-25T09:04:12Z</time></trkpt><trkpt lat="43.311668924514095" lon="11.935040230282604"><ele>335.0</ele><time>2026-04-25T09:04:16Z</time></trkpt><trkpt lat="43.31173292566726" lon="11.935049356966188"><ele>333.0</ele><time>2026-04-25T09:04:19Z</time></trkpt><trkpt lat="43.311806281170824" lon="11.935094503173774"><ele>331.0</ele><time>2026-04-25T09:04:23Z</time></trkpt><trkpt lat="43.311867376080905" lon="11.935128790797334"><ele>329.0</ele><time>2026-04-25T09:04:26Z</time></trkpt><trkpt lat="43.31192416201213" lon="11.935172758192797"><ele>327.57142857142856</ele><time>2026-04-25T09:04:29Z</time></trkpt><trkpt lat="43.31199510179711" lon="11.935190636584448"><ele>326.1428571428571</ele><time>2026-04-25T09:04:32Z</time></trkpt><trkpt lat="43.312074853361345" lon="11.935211623738768"><ele>324.7142857142857</ele><time>2026-04-25T09:04:36Z</time></trkpt><trkpt lat="43.31213880276571" lon="11.935163929085325"><ele>323.2857142857143</ele><time>2026-04-25T09:04:39Z</time></trkpt><trkpt lat="43.31220807957451" lon="11.935122098697498"><ele>321.85714285714283</ele><time>2026-04-25T09:04:42Z</time></trkpt><trkpt lat="43.31227129577874" lon="11.935073854590321"><ele>320.42857142857144</ele><time>2026-04-25T09:04:45Z</time></trkpt><trkpt lat="43.31232720514435" lon="11.935016001588307"><ele>319.0</ele><time>2026-04-25T09:04:48Z</time></trkpt><trkpt lat="43.31238526974631" lon="11.934953905713924"><ele>319.0</ele><time>2026-04-25T09:04:51Z</time></trkpt><trkpt lat="43.312441576914175" lon="11.934877616870924"><ele>319.0</ele><time>2026-04-25T09:04:54Z</time></trkpt><trkpt lat="43.312509079171996" lon="11.934858747457959"><ele>319.0</ele><time>2026-04-25T09:04:57Z</time></trkpt><trkpt lat="43.31255372186139" lon="11.934935868806283"><ele>319.0</ele><time>2026-04-25T09:05:00Z</time></trkpt><trkpt lat="43.312547014114976" lon="11.935038155271474"><ele>319.0</ele><time>2026-04-25T09:05:03Z</time></trkpt><trkpt lat="43.31260421258564" lon="11.9350845094138"><ele>319.0</ele><time>2026-04-25T09:05:06Z</time></trkpt><trkpt lat="43.31266854352979" lon="11.935095355975644"><ele>319.0</ele><time>2026-04-25T09:05:10Z</time></trkpt><trkpt lat="43.312732925103326" lon="11.93513834154631"><ele>317.14285714285717</ele><time>2026-04-25T09:05:15Z</time></trkpt><trkpt lat="43.312802243719005" lon="11.93516249954374"><ele>315.2857142857143</ele><time>2026-04-25T09:05:19Z</time></trkpt><trkpt lat="43.31288055483841" lon="11.935146707174539"><ele>313.42857142857144</ele><time>2026-04-25T09:05:24Z</time></trkpt><trkpt lat="43.31295798443617" lon="11.935112981066442"><ele>311.57142857142856</ele><time>2026-04-25T09:05:28Z</time></trkpt><trkpt lat="43.31302494055856" lon="11.935112813599568"><ele>309.7142857142857</ele><time>2026-04-25T09:05:32Z</time></trkpt><trkpt lat="43.31309518807036" lon="11.935116513149898"><ele>307.85714285714283</ele><time>2026-04-25T09:05:36Z</time></trkpt><trkpt lat="43.31316257784126" lon="11.935085017223768"><ele>306.0</ele><time>2026-04-25T09:05:40Z</time></trkpt><trkpt lat="43.31323310067347" lon="11.935063729484098"><ele>308.5</ele><time>2026-04-25T09:05:43.999Z</time></trkpt><trkpt lat="43.313303946871294" lon="11.935030099925049"><ele>311.0</ele><time>2026-04-25T09:05:47.999Z</time></trkpt><trkpt lat="43.31336858133596" lon="11.93499312328747"><ele>313.5</ele><time>2026-04-25T09:05:50.999Z</time></trkpt><trkpt lat="43.3134263109682" lon="11.93492134298451"><ele>316.0</ele><time>2026-04-25T09:05:54.999Z</time></trkpt><trkpt lat="43.31347858125913" lon="11.934832514552859"><ele>318.5</ele><time>2026-04-25T09:05:58.999Z</time></trkpt><trkpt lat="43.31349873416064" lon="11.934734106485415"><ele>321.0</ele><time>2026-04-25T09:06:04Z</time></trkpt><trkpt lat="43.31354067106197" lon="11.934657881657111"><ele>320.99999999999994</ele><time>2026-04-25T09:06:08Z</time></trkpt><trkpt lat="43.313552991172386" lon="11.934552603107008"><ele>321.0</ele><time>2026-04-25T09:06:12Z</time></trkpt><trkpt lat="43.31357174705577" lon="11.934446283053092"><ele>321.0</ele><time>2026-04-25T09:06:16Z</time></trkpt><trkpt lat="43.3136223806881" lon="11.934391066796005"><ele>321.0</ele><time>2026-04-25T09:06:19Z</time></trkpt><trkpt lat="43.31368489086843" lon="11.934402167772333"><ele>321.0</ele><time>2026-04-25T09:06:22Z</time></trkpt><trkpt lat="43.31375557504827" lon="11.93439607387194"><ele>320.99999999999994</ele><time>2026-04-25T09:06:26Z</time></trkpt><trkpt lat="43.313832843881094" lon="11.934355568728206"><ele>321.0</ele><time>2026-04-25T09:06:32Z</time></trkpt><trkpt lat="43.31390272182921" lon="11.934320984148249"><ele>320.4285714285714</ele><time>2026-04-25T09:06:35Z</time></trkpt><trkpt lat="43.31397816266611" lon="11.934306338151355"><ele>319.85714285714283</ele><time>2026-04-25T09:06:39Z</time></trkpt><trkpt lat="43.31404299170638" lon="11.934298973161937"><ele>319.2857142857143</ele><time>2026-04-25T09:06:42Z</time></trkpt><trkpt lat="43.314108658175485" lon="11.93424275277293"><ele>318.71428571428567</ele><time>2026-04-25T09:06:46Z</time></trkpt><trkpt lat="43.31417119406035" lon="11.934227110768914"><ele>318.1428571428571</ele><time>2026-04-25T09:06:49Z</time></trkpt><trkpt lat="43.31423320480592" lon="11.934187539857277"><ele>317.57142857142856</ele><time>2026-04-25T09:06:52Z</time></trkpt><trkpt lat="43.31427396100039" lon="11.934121511349336"><ele>317.0</ele><time>2026-04-25T09:06:56Z</time></trkpt><trkpt lat="43.314283766256615" lon="11.934016282920881"><ele>319.42857142857144</ele><time>2026-04-25T09:07:00Z</time></trkpt><trkpt lat="43.314319214061385" lon="11.933914829107362"><ele>321.85714285714283</ele><time>2026-04-25T09:07:04Z</time></trkpt><trkpt lat="43.314302759065335" lon="11.933829551418517"><ele>324.2857142857143</ele><time>2026-04-25T09:07:07Z</time></trkpt><trkpt lat="43.314293090800696" lon="11.933738648101821"><ele>326.7142857142857</ele><time>2026-04-25T09:07:10Z</time></trkpt><trkpt lat="43.314256093712345" lon="11.933639480844839"><ele>329.14285714285717</ele><time>2026-04-25T09:07:13.999Z</time></trkpt><trkpt lat="43.314251834052136" lon="11.933549215583792"><ele>331.57142857142856</ele><time>2026-04-25T09:07:16.999Z</time></trkpt><trkpt lat="43.314246783134166" lon="11.933432488714802"><ele>334.0</ele><time>2026-04-25T09:07:20.999Z</time></trkpt><trkpt lat="43.31426328860223" lon="11.933337991420245"><ele>335.7142857142857</ele><time>2026-04-25T09:07:24.999Z</time></trkpt><trkpt lat="43.31428764259218" lon="11.933253990038274"><ele>337.42857142857144</ele><time>2026-04-25T09:07:27.999Z</time></trkpt><trkpt lat="43.31429412637208" lon="11.933165580383523"><ele>339.1428571428571</ele><time>2026-04-25T09:07:31.999Z</time></trkpt><trkpt lat="43.3142778740677" lon="11.933065493312428"><ele>340.8571428571429</ele><time>2026-04-25T09:07:35.999Z</time></trkpt><trkpt lat="43.31426976731396" lon="11.932968749282445"><ele>342.5714285714286</ele><time>2026-04-25T09:07:39.999Z</time></trkpt><trkpt lat="43.31427546098813" lon="11.932877894008481"><ele>344.2857142857143</ele><time>2026-04-25T09:07:42.999Z</time></trkpt><trkpt lat="43.31427709345865" lon="11.932783510351994"><ele>346.0</ele><time>2026-04-25T09:07:45.999Z</time></trkpt><trkpt lat="43.3142891264714" lon="11.932691857084354"><ele>346.0</ele><time>2026-04-25T09:07:48.999Z</time></trkpt><trkpt lat="43.31429861397166" lon="11.932598003195844"><ele>346.0</ele><time>2026-04-25T09:07:51.999Z</time></trkpt><trkpt lat="43.31431402943323" lon="11.932498339523299"><ele>346.0</ele><time>2026-04-25T09:07:55.999Z</time></trkpt><trkpt lat="43.31434380705535" lon="11.932378985590407"><ele>346.0</ele><time>2026-04-25T09:07:59.999Z</time></trkpt><trkpt lat="43.31435418737284" lon="11.932293206242806"><ele>346.0</ele><time>2026-04-25T09:08:03.999Z</time></trkpt><trkpt lat="43.314420094927016" lon="11.932233131770511"><ele>346.0</ele><time>2026-04-25T09:08:07.999Z</time></trkpt><trkpt lat="43.31448525639651" lon="11.932223165639899"><ele>346.0</ele><time>2026-04-25T09:08:12Z</time></trkpt><trkpt lat="43.31455410391718" lon="11.932234260292553"><ele>347.57142857142856</ele><time>2026-04-25T09:08:16Z</time></trkpt><trkpt lat="43.31461927104241" lon="11.932204268386434"><ele>349.14285714285717</ele><time>2026-04-25T09:08:20Z</time></trkpt><trkpt lat="43.31468704976413" lon="11.932187489330552"><ele>350.7142857142857</ele><time>2026-04-25T09:08:24Z</time></trkpt><trkpt lat="43.31474599746676" lon="11.932149940207962"><ele>352.2857142857143</ele><time>2026-04-25T09:08:27Z</time></trkpt><trkpt lat="43.31481239100193" lon="11.932070575056432"><ele>353.8571428571429</ele><time>2026-04-25T09:08:32Z</time></trkpt><trkpt lat="43.314840212631665" lon="11.931980690860543"><ele>355.42857142857144</ele><time>2026-04-25T09:08:35Z</time></trkpt><trkpt lat="43.31487334561228" lon="11.931904777391331"><ele>357.0</ele><time>2026-04-25T09:08:38Z</time></trkpt><trkpt lat="43.31487667418101" lon="11.931790971872509"><ele>355.57142857142856</ele><time>2026-04-25T09:08:42Z</time></trkpt><trkpt lat="43.31489869369783" lon="11.931707514106249"><ele>354.1428571428571</ele><time>2026-04-25T09:08:45Z</time></trkpt><trkpt lat="43.31491341334945" lon="11.93159535962793"><ele>352.7142857142857</ele><time>2026-04-25T09:08:49Z</time></trkpt><trkpt lat="43.31493333667185" lon="11.93150984131994"><ele>351.2857142857143</ele><time>2026-04-25T09:08:52Z</time></trkpt><trkpt lat="43.31495256369486" lon="11.93141318799094"><ele>349.85714285714283</ele><time>2026-04-25T09:08:55Z</time></trkpt><trkpt lat="43.31497382384493" lon="11.93129591707341"><ele>348.42857142857144</ele><time>2026-04-25T09:08:58.999Z</time></trkpt><trkpt lat="43.314993000065" lon="11.93120605995506"><ele>347.0</ele><time>2026-04-25T09:09:01.999Z</time></trkpt><trkpt lat="43.31501200426648" lon="11.93109365183006"><ele>347.0</ele><time>2026-04-25T09:09:05.999Z</time></trkpt><trkpt lat="43.31502785020118" lon="11.930978146589139"><ele>347.0</ele><time>2026-04-25T09:09:09.999Z</time></trkpt><trkpt lat="43.315058566666664" lon="11.930866600000002"><ele>347.0</ele><time>2026-04-25T09:09:13.498Z</time></trkpt><trkpt lat="43.3150816" lon="11.930769816666668"><ele>347.0</ele><time>2026-04-25T09:09:16.498Z</time></trkpt><trkpt lat="43.315104166666664" lon="11.930678799999999"><ele>347.0</ele><time>2026-04-25T09:09:19.305Z</time></trkpt><trkpt lat="43.315118283333334" lon="11.93058315"><ele>347.0</ele><time>2026-04-25T09:09:22.321Z</time></trkpt><trkpt lat="43.31513321666666" lon="11.930494433333335"><ele>347.7142857142857</ele><time>2026-04-25T09:09:25.455Z</time></trkpt><trkpt lat="43.31514993333334" lon="11.930407083333334"><ele>348.4285714285714</ele><time>2026-04-25T09:09:28.444Z</time></trkpt><trkpt lat="43.315163816666676" lon="11.930313550000001"><ele>349.1428571428571</ele><time>2026-04-25T09:09:31.471Z</time></trkpt><trkpt lat="43.31517685000001" lon="11.930221366666668"><ele>349.8571428571429</ele><time>2026-04-25T09:09:34.464Z</time></trkpt><trkpt lat="43.315181066666675" lon="11.930127233333332"><ele>350.57142857142856</ele><time>2026-04-25T09:09:37.46Z</time></trkpt><trkpt lat="43.31519363333334" lon="11.9300306"><ele>351.2857142857143</ele><time>2026-04-25T09:09:40.482Z</time></trkpt><trkpt lat="43.315219866666666" lon="11.9299445"><ele>352.0</ele><time>2026-04-25T09:09:43.477Z</time></trkpt><trkpt lat="43.315279049999994" lon="11.929892566666668"><ele>352.0</ele><time>2026-04-25T09:09:46.489Z</time></trkpt><trkpt lat="43.31535148333334" lon="11.929858783333335"><ele>352.0</ele><time>2026-04-25T09:09:49.524Z</time></trkpt><trkpt lat="43.31542923333333" lon="11.929828666666666"><ele>352.0</ele><time>2026-04-25T09:09:52.609Z</time></trkpt><trkpt lat="43.31550350000001" lon="11.929791966666667"><ele>352.0</ele><time>2026-04-25T09:09:55.622Z</time></trkpt><trkpt lat="43.31557171666667" lon="11.92975015"><ele>352.0</ele><time>2026-04-25T09:09:58.609Z</time></trkpt><trkpt lat="43.31563163333333" lon="11.929706166666664"><ele>352.0</ele><time>2026-04-25T09:10:01.727Z</time></trkpt><trkpt lat="43.315688583333326" lon="11.929650683333334"><ele>352.0</ele><time>2026-04-25T09:10:04.807Z</time></trkpt><trkpt lat="43.31574971666667" lon="11.929572983333331"><ele>350.5</ele><time>2026-04-25T09:10:07.872Z</time></trkpt><trkpt lat="43.31579620000001" lon="11.929486049999998"><ele>349.0</ele><time>2026-04-25T09:10:10.883Z</time></trkpt><trkpt lat="43.315835533333335" lon="11.929396650000001"><ele>347.5</ele><time>2026-04-25T09:10:13.869Z</time></trkpt><trkpt lat="43.315864016666666" lon="11.929293566666669"><ele>346.0</ele><time>2026-04-25T09:10:16.881Z</time></trkpt><trkpt lat="43.31589040000001" lon="11.929203800000002"><ele>344.5</ele><time>2026-04-25T09:10:19.887Z</time></trkpt><trkpt lat="43.31593658333333" lon="11.929278383333335"><ele>343.0</ele><time>2026-04-25T09:10:23.881Z</time></trkpt><trkpt lat="43.31597958333334" lon="11.929371399999997"><ele>343.0</ele><time>2026-04-25T09:10:26.897Z</time></trkpt><trkpt lat="43.31603571666667" lon="11.929448716666666"><ele>343.0</ele><time>2026-04-25T09:10:29.906Z</time></trkpt><trkpt lat="43.316102900000004" lon="11.929441116666666"><ele>343.0</ele><time>2026-04-25T09:10:32.962Z</time></trkpt><trkpt lat="43.31613938333333" lon="11.929360350000001"><ele>343.0</ele><time>2026-04-25T09:10:34.977Z</time></trkpt><trkpt lat="43.31614705" lon="11.929254966666667"><ele>343.0</ele><time>2026-04-25T09:10:37.982Z</time></trkpt><trkpt lat="43.316090816666666" lon="11.929175483333331"><ele>343.0</ele><time>2026-04-25T09:10:40.977Z</time></trkpt><trkpt lat="43.31602121666666" lon="11.9291145"><ele>342.5</ele><time>2026-04-25T09:10:43.985Z</time></trkpt><trkpt lat="43.31595478333334" lon="11.929045883333332"><ele>342.0</ele><time>2026-04-25T09:10:47.049Z</time></trkpt><trkpt lat="43.315904883333324" lon="11.928956383333333"><ele>341.5</ele><time>2026-04-25T09:10:50.065Z</time></trkpt><trkpt lat="43.315854566666665" lon="11.928877616666666"><ele>341.0</ele><time>2026-04-25T09:10:53.052Z</time></trkpt><trkpt lat="43.31580755" lon="11.928801966666668"><ele>340.5</ele><time>2026-04-25T09:10:56.159Z</time></trkpt><trkpt lat="43.31575203333334" lon="11.928721583333333"><ele>340.0</ele><time>2026-04-25T09:10:59.172Z</time></trkpt><trkpt lat="43.31568121666666" lon="11.9287797"><ele>340.0</ele><time>2026-04-25T09:11:02.177Z</time></trkpt><trkpt lat="43.31565755" lon="11.928860216666665"><ele>340.0</ele><time>2026-04-25T09:11:04.164Z</time></trkpt><trkpt lat="43.31562505" lon="11.928976800000003"><ele>340.0</ele><time>2026-04-25T09:11:07.183Z</time></trkpt><trkpt lat="43.31557981666666" lon="11.929055116666666"><ele>340.0</ele><time>2026-04-25T09:11:10.243Z</time></trkpt><trkpt lat="43.31551561666667" lon="11.929137066666666"><ele>340.0</ele><time>2026-04-25T09:11:13.252Z</time></trkpt><trkpt lat="43.31545135" lon="11.929213066666668"><ele>340.0</ele><time>2026-04-25T09:11:16.257Z</time></trkpt><trkpt lat="43.315381583333334" lon="11.929279433333333"><ele>342.0</ele><time>2026-04-25T09:11:19.249Z</time></trkpt><trkpt lat="43.31531028333333" lon="11.92933093333333"><ele>344.0</ele><time>2026-04-25T09:11:22.264Z</time></trkpt><trkpt lat="43.315225350000006" lon="11.929338516666666"><ele>346.0</ele><time>2026-04-25T09:11:25.268Z</time></trkpt><trkpt lat="43.315113350000004" lon="11.929312383333334"><ele>348.0</ele><time>2026-04-25T09:11:28.334Z</time></trkpt><trkpt lat="43.31504318333334" lon="11.929288183333332"><ele>350.0</ele><time>2026-04-25T09:11:31.331Z</time></trkpt><trkpt lat="43.31496703333334" lon="11.929265316666667"><ele>352.0</ele><time>2026-04-25T09:11:34.327Z</time></trkpt><trkpt lat="43.31489413333334" lon="11.929242283333332"><ele>352.0</ele><time>2026-04-25T09:11:37.346Z</time></trkpt><trkpt lat="43.31481755" lon="11.929235750000002"><ele>352.0</ele><time>2026-04-25T09:11:40.335Z</time></trkpt><trkpt lat="43.314750833333335" lon="11.929234866666667"><ele>352.0</ele><time>2026-04-25T09:11:43.337Z</time></trkpt><trkpt lat="43.314677550000006" lon="11.929234716666668"><ele>352.0</ele><time>2026-04-25T09:11:46.355Z</time></trkpt><trkpt lat="43.31460813333333" lon="11.929248150000001"><ele>352.0</ele><time>2026-04-25T09:11:49.397Z</time></trkpt><trkpt lat="43.31453911666668" lon="11.929263133333333"><ele>352.0</ele><time>2026-04-25T09:11:52.404Z</time></trkpt><trkpt lat="43.31447461666667" lon="11.929295950000002"><ele>352.0</ele><time>2026-04-25T09:11:55.415Z</time></trkpt><trkpt lat="43.31440156666666" lon="11.929319166666668"><ele>352.66666666666663</ele><time>2026-04-25T09:11:58.408Z</time></trkpt><trkpt lat="43.31432628333334" lon="11.929354266666667"><ele>353.3333333333333</ele><time>2026-04-25T09:12:01.416Z</time></trkpt><trkpt lat="43.31425108333333" lon="11.929387049999999"><ele>354.0</ele><time>2026-04-25T09:12:04.43Z</time></trkpt><trkpt lat="43.31417836666667" lon="11.929426516666668"><ele>354.6666666666667</ele><time>2026-04-25T09:12:07.432Z</time></trkpt><trkpt lat="43.31411301666667" lon="11.929453550000002"><ele>355.33333333333337</ele><time>2026-04-25T09:12:10.428Z</time></trkpt><trkpt lat="43.31404068333333" lon="11.929490800000002"><ele>356.0</ele><time>2026-04-25T09:12:13.436Z</time></trkpt><trkpt lat="43.31397223333333" lon="11.929535516666666"><ele>355.99999999999994</ele><time>2026-04-25T09:12:16.442Z</time></trkpt><trkpt lat="43.313910666666665" lon="11.929590516666668"><ele>356.0</ele><time>2026-04-25T09:12:19.435Z</time></trkpt><trkpt lat="43.313855849999996" lon="11.929642983333334"><ele>356.0</ele><time>2026-04-25T09:12:23.452Z</time></trkpt><trkpt lat="43.31377581666668" lon="11.929695183333335"><ele>356.0</ele><time>2026-04-25T09:12:27.443Z</time></trkpt><trkpt lat="43.31370711666667" lon="11.929737166666667"><ele>356.0</ele><time>2026-04-25T09:12:30.552Z</time></trkpt><trkpt lat="43.313638183333325" lon="11.929777783333334"><ele>355.99999999999994</ele><time>2026-04-25T09:12:33.565Z</time></trkpt><trkpt lat="43.31357368333333" lon="11.929815399999999"><ele>356.0</ele><time>2026-04-25T09:12:36.557Z</time></trkpt><trkpt lat="43.313511733333335" lon="11.929846166666668"><ele>356.1428571428571</ele><time>2026-04-25T09:12:39.557Z</time></trkpt><trkpt lat="43.31344988333334" lon="11.929876383333331"><ele>356.2857142857143</ele><time>2026-04-25T09:12:42.552Z</time></trkpt><trkpt lat="43.31338256666666" lon="11.929902466666665"><ele>356.42857142857144</ele><time>2026-04-25T09:12:45.567Z</time></trkpt><trkpt lat="43.31330345" lon="11.929934583333333"><ele>356.57142857142856</ele><time>2026-04-25T09:12:49.577Z</time></trkpt><trkpt lat="43.31322358333333" lon="11.929958133333331"><ele>356.7142857142857</ele><time>2026-04-25T09:12:53.562Z</time></trkpt><trkpt lat="43.313161816666664" lon="11.929984616666665"><ele>356.85714285714283</ele><time>2026-04-25T09:12:56.581Z</time></trkpt><trkpt lat="43.31309961666666" lon="11.93000985"><ele>357.0</ele><time>2026-04-25T09:12:59.572Z</time></trkpt><trkpt lat="43.31302886666667" lon="11.930032333333335"><ele>357.8333333333333</ele><time>2026-04-25T09:13:02.572Z</time></trkpt><trkpt lat="43.31295166666667" lon="11.930049133333332"><ele>358.6666666666667</ele><time>2026-04-25T09:13:06.597Z</time></trkpt><trkpt lat="43.31286790000001" lon="11.930071216666667"><ele>359.5</ele><time>2026-04-25T09:13:10.585Z</time></trkpt><trkpt lat="43.31280185000001" lon="11.93008593333333"><ele>360.33333333333337</ele><time>2026-04-25T09:13:13.605Z</time></trkpt><trkpt lat="43.31272091666666" lon="11.930108749999999"><ele>361.1666666666667</ele><time>2026-04-25T09:13:17.587Z</time></trkpt><trkpt lat="43.31265163333334" lon="11.930130233333333"><ele>362.0</ele><time>2026-04-25T09:13:20.592Z</time></trkpt><trkpt lat="43.31258793333333" lon="11.930164916666667"><ele>363.6666666666667</ele><time>2026-04-25T09:13:24.616Z</time></trkpt><trkpt lat="43.312517116666676" lon="11.930190699999999"><ele>365.33333333333337</ele><time>2026-04-25T09:13:28.608Z</time></trkpt><trkpt lat="43.312441366666654" lon="11.9302297"><ele>367.0</ele><time>2026-04-25T09:13:32.622Z</time></trkpt><trkpt lat="43.312368666666664" lon="11.930273733333335"><ele>368.6666666666667</ele><time>2026-04-25T09:13:35.606Z</time></trkpt><trkpt lat="43.31230335" lon="11.930328899999997"><ele>370.3333333333333</ele><time>2026-04-25T09:13:38.622Z</time></trkpt><trkpt lat="43.31225183333333" lon="11.930387533333331"><ele>372.0</ele><time>2026-04-25T09:13:41.63Z</time></trkpt><trkpt lat="43.31219738333333" lon="11.930460550000001"><ele>368.8333333333333</ele><time>2026-04-25T09:13:44.629Z</time></trkpt><trkpt lat="43.31214166666667" lon="11.930559766666665"><ele>365.6666666666667</ele><time>2026-04-25T09:13:48.636Z</time></trkpt><trkpt lat="43.31208791666666" lon="11.930645116666668"><ele>362.5</ele><time>2026-04-25T09:13:51.649Z</time></trkpt><trkpt lat="43.312047183333334" lon="11.930729533333333"><ele>359.33333333333337</ele><time>2026-04-25T09:13:54.647Z</time></trkpt><trkpt lat="43.31202173333333" lon="11.93082476666667"><ele>356.1666666666667</ele><time>2026-04-25T09:13:57.63Z</time></trkpt><trkpt lat="43.311980899999995" lon="11.930932600000002"><ele>353.0</ele><time>2026-04-25T09:14:00.643Z</time></trkpt><trkpt lat="43.311939716666664" lon="11.931046133333334"><ele>353.0</ele><time>2026-04-25T09:14:03.649Z</time></trkpt><trkpt lat="43.31191381666666" lon="11.931149216666666"><ele>353.0</ele><time>2026-04-25T09:14:06.649Z</time></trkpt><trkpt lat="43.31188108333334" lon="11.931249199999998"><ele>353.0</ele><time>2026-04-25T09:14:09.665Z</time></trkpt><trkpt lat="43.31184971666667" lon="11.93134513333333"><ele>353.0</ele><time>2026-04-25T09:14:12.751Z</time></trkpt><trkpt lat="43.31181241666667" lon="11.931444849999998"><ele>353.0</ele><time>2026-04-25T09:14:15.768Z</time></trkpt><trkpt lat="43.311767399999994" lon="11.931551566666668"><ele>353.0</ele><time>2026-04-25T09:14:18.777Z</time></trkpt><trkpt lat="43.311731300000005" lon="11.931645383333333"><ele>353.1666666666667</ele><time>2026-04-25T09:14:21.768Z</time></trkpt><trkpt lat="43.31169546666667" lon="11.931748083333332"><ele>353.33333333333337</ele><time>2026-04-25T09:14:24.777Z</time></trkpt><trkpt lat="43.31166543333334" lon="11.9318638"><ele>353.5</ele><time>2026-04-25T09:14:27.767Z</time></trkpt><trkpt lat="43.31164238333334" lon="11.931980433333333"><ele>353.6666666666667</ele><time>2026-04-25T09:14:30.767Z</time></trkpt><trkpt lat="43.311622500000006" lon="11.9321032"><ele>353.8333333333333</ele><time>2026-04-25T09:14:33.789Z</time></trkpt><trkpt lat="43.311589283333326" lon="11.932218483333335"><ele>354.0</ele><time>2026-04-25T09:14:36.776Z</time></trkpt><trkpt lat="43.31154518333333" lon="11.932300883333335"><ele>354.0</ele><time>2026-04-25T09:14:39.778Z</time></trkpt><trkpt lat="43.31147716666666" lon="11.932349916666665"><ele>354.0</ele><time>2026-04-25T09:14:42.796Z</time></trkpt><trkpt lat="43.311405799999996" lon="11.932383949999998"><ele>354.0</ele><time>2026-04-25T09:14:45.791Z</time></trkpt><trkpt lat="43.31133913333333" lon="11.932422966666664"><ele>354.0</ele><time>2026-04-25T09:14:48.79Z</time></trkpt><trkpt lat="43.31126089999999" lon="11.932470699999998"><ele>354.0</ele><time>2026-04-25T09:14:51.807Z</time></trkpt><trkpt lat="43.3111805" lon="11.932521033333334"><ele>354.0</ele><time>2026-04-25T09:14:54.791Z</time></trkpt><trkpt lat="43.311104750000005" lon="11.932589633333334"><ele>353.6666666666667</ele><time>2026-04-25T09:14:57.801Z</time></trkpt><trkpt lat="43.311047666666674" lon="11.932658583333334"><ele>353.3333333333333</ele><time>2026-04-25T09:15:00.866Z</time></trkpt><trkpt lat="43.31099415" lon="11.932736949999999"><ele>353.0</ele><time>2026-04-25T09:15:03.808Z</time></trkpt><trkpt lat="43.31093776666667" lon="11.932820433333333"><ele>352.66666666666663</ele><time>2026-04-25T09:15:06.808Z</time></trkpt><trkpt lat="43.31087913333334" lon="11.9328979"><ele>352.3333333333333</ele><time>2026-04-25T09:15:09.808Z</time></trkpt><trkpt lat="43.31083061666667" lon="11.932990366666669"><ele>352.0</ele><time>2026-04-25T09:15:12.82Z</time></trkpt><trkpt lat="43.310775250000006" lon="11.933063033333335"><ele>352.0</ele><time>2026-04-25T09:15:15.818Z</time></trkpt><trkpt lat="43.310716633333335" lon="11.933142166666668"><ele>352.0</ele><time>2026-04-25T09:15:18.816Z</time></trkpt><trkpt lat="43.31066026666667" lon="11.933221733333335"><ele>352.0</ele><time>2026-04-25T09:15:21.829Z</time></trkpt><trkpt lat="43.31061078333334" lon="11.933293333333332"><ele>352.0</ele><time>2026-04-25T09:15:24.839Z</time></trkpt><trkpt lat="43.310552466666664" lon="11.933369149999999"><ele>352.0</ele><time>2026-04-25T09:15:27.823Z</time></trkpt><trkpt lat="43.31050168333333" lon="11.933455166666665"><ele>352.0</ele><time>2026-04-25T09:15:30.84Z</time></trkpt><trkpt lat="43.31045173333334" lon="11.933530683333334"><ele>349.8333333333333</ele><time>2026-04-25T09:15:33.849Z</time></trkpt><trkpt lat="43.31041603333333" lon="11.93362965"><ele>347.66666666666663</ele><time>2026-04-25T09:15:36.839Z</time></trkpt><trkpt lat="43.31037096666667" lon="11.9337208"><ele>345.5</ele><time>2026-04-25T09:15:39.852Z</time></trkpt><trkpt lat="43.310336383333336" lon="11.933812900000001"><ele>343.3333333333333</ele><time>2026-04-25T09:15:42.838Z</time></trkpt><trkpt lat="43.31030296666666" lon="11.933911783333333"><ele>341.1666666666667</ele><time>2026-04-25T09:15:45.847Z</time></trkpt><trkpt lat="43.31028368333334" lon="11.93401"><ele>339.0</ele><time>2026-04-25T09:15:48.853Z</time></trkpt><trkpt lat="43.31026369999999" lon="11.934093350000001"><ele>339.0</ele><time>2026-04-25T09:15:51.844Z</time></trkpt><trkpt lat="43.31018443333334" lon="11.934130066666668"><ele>339.0</ele><time>2026-04-25T09:15:55.863Z</time></trkpt><trkpt lat="43.310124783333336" lon="11.9341952"><ele>339.0</ele><time>2026-04-25T09:15:58.872Z</time></trkpt><trkpt lat="43.310060099999994" lon="11.934266516666666"><ele>339.0</ele><time>2026-04-25T09:16:01.874Z</time></trkpt><trkpt lat="43.31000483333334" lon="11.934344900000001"><ele>339.0</ele><time>2026-04-25T09:16:04.872Z</time></trkpt><trkpt lat="43.30996653333333" lon="11.93443615"><ele>339.0</ele><time>2026-04-25T09:16:07.883Z</time></trkpt><trkpt lat="43.309939366666676" lon="11.934545283333335"><ele>340.3333333333333</ele><time>2026-04-25T09:16:10.883Z</time></trkpt><trkpt lat="43.309914049999996" lon="11.93465365"><ele>341.6666666666667</ele><time>2026-04-25T09:16:13.883Z</time></trkpt><trkpt lat="43.30989290000001" lon="11.934746050000001"><ele>343.0</ele><time>2026-04-25T09:16:16.892Z</time></trkpt><trkpt lat="43.309858766666665" lon="11.934843416666668"><ele>344.33333333333337</ele><time>2026-04-25T09:16:20.873Z</time></trkpt><trkpt lat="43.30979529999999" lon="11.934891550000001"><ele>345.6666666666667</ele><time>2026-04-25T09:16:23.895Z</time></trkpt><trkpt lat="43.3097192" lon="11.9349124"><ele>347.0</ele><time>2026-04-25T09:16:26.883Z</time></trkpt><trkpt lat="43.30965031666667" lon="11.934926766666667"><ele>347.6666666666667</ele><time>2026-04-25T09:16:29.883Z</time></trkpt><trkpt lat="43.309581849999994" lon="11.934930833333333"><ele>348.33333333333337</ele><time>2026-04-25T09:16:32.905Z</time></trkpt><trkpt lat="43.30950240000001" lon="11.93491935"><ele>349.0</ele><time>2026-04-25T09:16:35.896Z</time></trkpt><trkpt lat="43.309433883333334" lon="11.934887316666668"><ele>349.6666666666667</ele><time>2026-04-25T09:16:38.893Z</time></trkpt><trkpt lat="43.30936941666667" lon="11.934850850000002"><ele>350.3333333333333</ele><time>2026-04-25T09:16:41.917Z</time></trkpt><trkpt lat="43.30930673333334" lon="11.9347967"><ele>351.0</ele><time>2026-04-25T09:16:44.9Z</time></trkpt><trkpt lat="43.30922596666666" lon="11.934734700000002"><ele>351.0</ele><time>2026-04-25T09:16:47.903Z</time></trkpt><trkpt lat="43.309150349999996" lon="11.934684783333333"><ele>351.0</ele><time>2026-04-25T09:16:50.801Z</time></trkpt><trkpt lat="43.30908138333332" lon="11.934651383333334"><ele>351.0</ele><time>2026-04-25T09:16:53.813Z</time></trkpt><trkpt lat="43.308999616666675" lon="11.93462385"><ele>351.0</ele><time>2026-04-25T09:16:56.813Z</time></trkpt><trkpt lat="43.30891138333333" lon="11.934609283333335"><ele>351.0</ele><time>2026-04-25T09:16:59.813Z</time></trkpt><trkpt lat="43.3088269" lon="11.934634500000001"><ele>351.0</ele><time>2026-04-25T09:17:02.821Z</time></trkpt><trkpt lat="43.30875571666667" lon="11.934686483333333"><ele>350.7142857142857</ele><time>2026-04-25T09:17:05.828Z</time></trkpt><trkpt lat="43.30869165000001" lon="11.934744283333336"><ele>350.42857142857144</ele><time>2026-04-25T09:17:08.819Z</time></trkpt><trkpt lat="43.308639783333334" lon="11.934813033333333"><ele>350.1428571428571</ele><time>2026-04-25T09:17:11.813Z</time></trkpt><trkpt lat="43.30859846666667" lon="11.9349109"><ele>349.8571428571429</ele><time>2026-04-25T09:17:15.821Z</time></trkpt><trkpt lat="43.30855785000001" lon="11.934978633333333"><ele>349.57142857142856</ele><time>2026-04-25T09:17:18.838Z</time></trkpt><trkpt lat="43.30850633333333" lon="11.935051549999999"><ele>349.2857142857143</ele><time>2026-04-25T09:17:21.82Z</time></trkpt><trkpt lat="43.308458050000006" lon="11.935138083333333"><ele>349.0</ele><time>2026-04-25T09:17:24.853Z</time></trkpt><trkpt lat="43.30842201666666" lon="11.93521355"><ele>348.99999999999994</ele><time>2026-04-25T09:17:27.845Z</time></trkpt><trkpt lat="43.3083696" lon="11.935303033333332"><ele>349.0</ele><time>2026-04-25T09:17:31.858Z</time></trkpt><trkpt lat="43.30832911666666" lon="11.935395933333332"><ele>349.0</ele><time>2026-04-25T09:17:35.85Z</time></trkpt><trkpt lat="43.30829010000001" lon="11.93547348333333"><ele>349.0</ele><time>2026-04-25T09:17:38.858Z</time></trkpt><trkpt lat="43.30823596666667" lon="11.935528283333333"><ele>349.0</ele><time>2026-04-25T09:17:41.848Z</time></trkpt><trkpt lat="43.308201966666665" lon="11.935603266666666"><ele>348.99999999999994</ele><time>2026-04-25T09:17:44.858Z</time></trkpt><trkpt lat="43.308145716666665" lon="11.935685350000002"><ele>349.0</ele><time>2026-04-25T09:17:48.876Z</time></trkpt><trkpt lat="43.30810346666667" lon="11.935767083333333"><ele>348.0</ele><time>2026-04-25T09:17:52.876Z</time></trkpt><trkpt lat="43.308049733333334" lon="11.935813283333335"><ele>347.0</ele><time>2026-04-25T09:17:56.873Z</time></trkpt><trkpt lat="43.307987966666666" lon="11.935881883333332"><ele>346.0</ele><time>2026-04-25T09:18:01.898Z</time></trkpt><trkpt lat="43.30793154999999" lon="11.93593645"><ele>345.0</ele><time>2026-04-25T09:18:04.89Z</time></trkpt><trkpt lat="43.30787096666666" lon="11.936011933333335"><ele>344.0</ele><time>2026-04-25T09:18:07.898Z</time></trkpt><trkpt lat="43.30783986666667" lon="11.936113616666669"><ele>343.0</ele><time>2026-04-25T09:18:10.891Z</time></trkpt><trkpt lat="43.30781578333334" lon="11.936215483333335"><ele>343.0</ele><time>2026-04-25T09:18:13.901Z</time></trkpt><trkpt lat="43.3077755" lon="11.936293399999998"><ele>343.0</ele><time>2026-04-25T09:18:16.913Z</time></trkpt><trkpt lat="43.30770661666667" lon="11.936356066666667"><ele>343.0</ele><time>2026-04-25T09:18:19.914Z</time></trkpt><trkpt lat="43.30762425" lon="11.936389049999997"><ele>343.0</ele><time>2026-04-25T09:18:22.908Z</time></trkpt><trkpt lat="43.307547400000004" lon="11.936406366666665"><ele>343.0</ele><time>2026-04-25T09:18:25.918Z</time></trkpt><trkpt lat="43.307528683333345" lon="11.936491916666666"><ele>343.0</ele><time>2026-04-25T09:18:29.908Z</time></trkpt><trkpt lat="43.3075957" lon="11.936547433333333"><ele>343.0</ele><time>2026-04-25T09:18:32.913Z</time></trkpt><trkpt lat="43.3076582" lon="11.936599166666667"><ele>343.0</ele><time>2026-04-25T09:18:35.933Z</time></trkpt><trkpt lat="43.30770736666666" lon="11.93666475"><ele>343.0</ele><time>2026-04-25T09:18:38.922Z</time></trkpt><trkpt lat="43.30774785" lon="11.936740850000001"><ele>343.0</ele><time>2026-04-25T09:18:41.934Z</time></trkpt><trkpt lat="43.307793083333344" lon="11.936810266666665"><ele>343.0</ele><time>2026-04-25T09:18:44.945Z</time></trkpt><trkpt lat="43.307844700000004" lon="11.936897199999999"><ele>343.0</ele><time>2026-04-25T09:18:47.933Z</time></trkpt><trkpt lat="43.30788313333334" lon="11.936973033333334"><ele>343.0</ele><time>2026-04-25T09:18:50.944Z</time></trkpt><trkpt lat="43.30788695" lon="11.937071566666669"><ele>344.0</ele><time>2026-04-25T09:18:53.933Z</time></trkpt><trkpt lat="43.30784699999999" lon="11.937144450000002"><ele>345.0</ele><time>2026-04-25T09:18:56.946Z</time></trkpt><trkpt lat="43.30778876666667" lon="11.9372148"><ele>346.0</ele><time>2026-04-25T09:19:00.953Z</time></trkpt><trkpt lat="43.30774693333333" lon="11.93728153333333"><ele>347.0</ele><time>2026-04-25T09:19:03.944Z</time></trkpt><trkpt lat="43.307699766666666" lon="11.937340866666666"><ele>348.0</ele><time>2026-04-25T09:19:06.952Z</time></trkpt><trkpt lat="43.30764523333334" lon="11.937405083333331"><ele>349.0</ele><time>2026-04-25T09:19:10.967Z</time></trkpt><trkpt lat="43.30759058333334" lon="11.937476116666668"><ele>350.0</ele><time>2026-04-25T09:19:14.958Z</time></trkpt><trkpt lat="43.307525133333336" lon="11.937542483333333"><ele>350.2857142857143</ele><time>2026-04-25T09:19:18.971Z</time></trkpt><trkpt lat="43.30745603333333" lon="11.937611933333335"><ele>350.57142857142856</ele><time>2026-04-25T09:19:22.967Z</time></trkpt><trkpt lat="43.30740633333333" lon="11.937682383333334"><ele>350.8571428571429</ele><time>2026-04-25T09:19:27.984Z</time></trkpt><trkpt lat="43.30735635" lon="11.937762833333332"><ele>351.1428571428571</ele><time>2026-04-25T09:19:34.991Z</time></trkpt><trkpt lat="43.30732151666666" lon="11.937838666666668"><ele>351.42857142857144</ele><time>2026-04-25T09:19:38.984Z</time></trkpt><trkpt lat="43.30729738333333" lon="11.9379356"><ele>351.7142857142857</ele><time>2026-04-25T09:19:43.001Z</time></trkpt><trkpt lat="43.30726316666667" lon="11.938013716666667"><ele>352.0</ele><time>2026-04-25T09:19:47.005Z</time></trkpt><trkpt lat="43.30720828333333" lon="11.93809515"><ele>352.8571428571429</ele><time>2026-04-25T09:19:52.009Z</time></trkpt><trkpt lat="43.307155483333325" lon="11.938158316666666"><ele>353.7142857142857</ele><time>2026-04-25T09:19:56.015Z</time></trkpt><trkpt lat="43.30709556666667" lon="11.938207516666667"><ele>354.57142857142856</ele><time>2026-04-25T09:19:59.011Z</time></trkpt><trkpt lat="43.307025599999996" lon="11.938245283333332"><ele>355.42857142857144</ele><time>2026-04-25T09:20:02.022Z</time></trkpt><trkpt lat="43.306950300000004" lon="11.938267616666668"><ele>356.2857142857143</ele><time>2026-04-25T09:20:05.024Z</time></trkpt><trkpt lat="43.30687581666666" lon="11.93827195"><ele>357.14285714285717</ele><time>2026-04-25T09:20:08.021Z</time></trkpt><trkpt lat="43.30680116666667" lon="11.938247333333333"><ele>358.0</ele><time>2026-04-25T09:20:11.009Z</time></trkpt><trkpt lat="43.30672876666666" lon="11.938230633333335"><ele>358.00000000000006</ele><time>2026-04-25T09:20:14.034Z</time></trkpt><trkpt lat="43.30665746666667" lon="11.938213666666664"><ele>358.0</ele><time>2026-04-25T09:20:17.021Z</time></trkpt><trkpt lat="43.30658785000001" lon="11.938212849999998"><ele>358.0</ele><time>2026-04-25T09:20:20.017Z</time></trkpt><trkpt lat="43.30651313333333" lon="11.938204233333332"><ele>358.0</ele><time>2026-04-25T09:20:23.021Z</time></trkpt><trkpt lat="43.30644883333333" lon="11.938173266666668"><ele>358.0</ele><time>2026-04-25T09:20:26.045Z</time></trkpt><trkpt lat="43.30637835" lon="11.938144516666666"><ele>358.00000000000006</ele><time>2026-04-25T09:20:29.03Z</time></trkpt><trkpt lat="43.306303449999994" lon="11.938133966666664"><ele>358.0</ele><time>2026-04-25T09:20:32.042Z</time></trkpt><trkpt lat="43.30623106666667" lon="11.938102366666664"><ele>358.0</ele><time>2026-04-25T09:20:35.052Z</time></trkpt><trkpt lat="43.30616335" lon="11.938081749999998"><ele>358.0</ele><time>2026-04-25T09:20:38.041Z</time></trkpt><trkpt lat="43.30609876666667" lon="11.938062633333335"><ele>358.0</ele><time>2026-04-25T09:20:41.051Z</time></trkpt><trkpt lat="43.30601794999999" lon="11.938036566666666"><ele>358.0</ele><time>2026-04-25T09:20:44.039Z</time></trkpt><trkpt lat="43.30592794999999" lon="11.9380386"><ele>358.0</ele><time>2026-04-25T09:20:47.046Z</time></trkpt><trkpt lat="43.30584574999999" lon="11.93805915"><ele>358.0</ele><time>2026-04-25T09:20:50.064Z</time></trkpt><trkpt lat="43.30576625" lon="11.93808695"><ele>358.00000000000006</ele><time>2026-04-25T09:20:53.049Z</time></trkpt><trkpt lat="43.3056908" lon="11.938103116666666"><ele>358.0</ele><time>2026-04-25T09:20:56.057Z</time></trkpt><trkpt lat="43.30562403333333" lon="11.9381391"><ele>358.0</ele><time>2026-04-25T09:20:59.072Z</time></trkpt><trkpt lat="43.30555991666667" lon="11.938176966666667"><ele>358.0</ele><time>2026-04-25T09:21:02.059Z</time></trkpt><trkpt lat="43.305516350000005" lon="11.938245066666665"><ele>358.0</ele><time>2026-04-25T09:21:05.059Z</time></trkpt><trkpt lat="43.30546568333333" lon="11.938312800000002"><ele>358.00000000000006</ele><time>2026-04-25T09:21:08.084Z</time></trkpt><trkpt lat="43.30540071666666" lon="11.938366516666667"><ele>358.0</ele><time>2026-04-25T09:21:11.078Z</time></trkpt><trkpt lat="43.305325866666664" lon="11.938408633333331"><ele>357.7142857142857</ele><time>2026-04-25T09:21:14.07Z</time></trkpt><trkpt lat="43.30524523333334" lon="11.938435983333333"><ele>357.42857142857144</ele><time>2026-04-25T09:21:17.091Z</time></trkpt><trkpt lat="43.30519519999999" lon="11.938515033333333"><ele>357.1428571428571</ele><time>2026-04-25T09:21:20.077Z</time></trkpt><trkpt lat="43.305163449999995" lon="11.938593483333333"><ele>356.8571428571429</ele><time>2026-04-25T09:21:23.084Z</time></trkpt><trkpt lat="43.305117966666664" lon="11.938663433333334"><ele>356.57142857142856</ele><time>2026-04-25T09:21:26.102Z</time></trkpt><trkpt lat="43.3050566" lon="11.938709349999998"><ele>356.2857142857143</ele><time>2026-04-25T09:21:29.091Z</time></trkpt><trkpt lat="43.30498321666667" lon="11.938739316666666"><ele>356.0</ele><time>2026-04-25T09:21:32.089Z</time></trkpt><trkpt lat="43.30491276666667" lon="11.938777133333334"><ele>355.99999999999994</ele><time>2026-04-25T09:21:35.089Z</time></trkpt><trkpt lat="43.3048535" lon="11.938857416666668"><ele>356.0</ele><time>2026-04-25T09:21:38.096Z</time></trkpt><trkpt lat="43.30483758333333" lon="11.938950700000003"><ele>356.0</ele><time>2026-04-25T09:21:41.103Z</time></trkpt><trkpt lat="43.304816716666664" lon="11.9390449"><ele>356.0</ele><time>2026-04-25T09:21:45.102Z</time></trkpt><trkpt lat="43.30478311666668" lon="11.939121883333334"><ele>356.0</ele><time>2026-04-25T09:21:48.114Z</time></trkpt><trkpt lat="43.304723716666665" lon="11.939168050000001"><ele>355.99999999999994</ele><time>2026-04-25T09:21:51.118Z</time></trkpt><trkpt lat="43.304656800000004" lon="11.939204416666668"><ele>356.0</ele><time>2026-04-25T09:21:54.112Z</time></trkpt><trkpt lat="43.30458591666667" lon="11.9392295"><ele>359.1428571428571</ele><time>2026-04-25T09:21:57.122Z</time></trkpt><trkpt lat="43.30451095" lon="11.939254433333334"><ele>362.2857142857143</ele><time>2026-04-25T09:22:00.124Z</time></trkpt><trkpt lat="43.30444105" lon="11.939259166666666"><ele>365.42857142857144</ele><time>2026-04-25T09:22:03.121Z</time></trkpt><trkpt lat="43.30437263333333" lon="11.939270983333332"><ele>368.57142857142856</ele><time>2026-04-25T09:22:06.134Z</time></trkpt><trkpt lat="43.30430756666666" lon="11.939284033333335"><ele>371.7142857142857</ele><time>2026-04-25T09:22:09.134Z</time></trkpt><trkpt lat="43.30424011666667" lon="11.93929636666667"><ele>374.85714285714283</ele><time>2026-04-25T09:22:12.142Z</time></trkpt><trkpt lat="43.30416631666667" lon="11.939303233333332"><ele>378.0</ele><time>2026-04-25T09:22:15.147Z</time></trkpt><trkpt lat="43.304092366666666" lon="11.939352433333333"><ele>378.0</ele><time>2026-04-25T09:22:19.159Z</time></trkpt><trkpt lat="43.3040265" lon="11.939376566666665"><ele>378.0</ele><time>2026-04-25T09:22:22.147Z</time></trkpt><trkpt lat="43.303968" lon="11.939423583333333"><ele>378.0</ele><time>2026-04-25T09:22:25.159Z</time></trkpt><trkpt lat="43.30391533333333" lon="11.939477283333334"><ele>378.0</ele><time>2026-04-25T09:22:28.169Z</time></trkpt><trkpt lat="43.30386501666667" lon="11.939541783333334"><ele>378.0</ele><time>2026-04-25T09:22:31.159Z</time></trkpt><trkpt lat="43.3038187" lon="11.939606133333333"><ele>378.0</ele><time>2026-04-25T09:22:34.167Z</time></trkpt><trkpt lat="43.30378203333333" lon="11.939684150000001"><ele>378.0</ele><time>2026-04-25T09:22:37.169Z</time></trkpt><trkpt lat="43.30374455" lon="11.939762016666668"><ele>376.7142857142857</ele><time>2026-04-25T09:22:40.167Z</time></trkpt><trkpt lat="43.303704616666664" lon="11.939846433333333"><ele>375.42857142857144</ele><time>2026-04-25T09:22:43.176Z</time></trkpt><trkpt lat="43.30368026666667" lon="11.939947099999998"><ele>374.1428571428571</ele><time>2026-04-25T09:22:46.184Z</time></trkpt><trkpt lat="43.30365704999999" lon="11.940037600000002"><ele>372.8571428571429</ele><time>2026-04-25T09:22:49.175Z</time></trkpt><trkpt lat="43.30364398333333" lon="11.940129383333334"><ele>371.57142857142856</ele><time>2026-04-25T09:22:52.17Z</time></trkpt><trkpt lat="43.30363715" lon="11.940219249999998"><ele>370.2857142857143</ele><time>2026-04-25T09:22:55.189Z</time></trkpt><trkpt lat="43.30362113333334" lon="11.940331166666667"><ele>369.0</ele><time>2026-04-25T09:22:59.184Z</time></trkpt><trkpt lat="43.30360593333334" lon="11.940443033333334"><ele>369.0</ele><time>2026-04-25T09:23:03.183Z</time></trkpt><trkpt lat="43.30358616666667" lon="11.940548466666666"><ele>369.0</ele><time>2026-04-25T09:23:07.197Z</time></trkpt><trkpt lat="43.30356973333335" lon="11.940640466666666"><ele>369.0</ele><time>2026-04-25T09:23:11.19Z</time></trkpt><trkpt lat="43.30356463333332" lon="11.940730550000001"><ele>369.0</ele><time>2026-04-25T09:23:16.216Z</time></trkpt><trkpt lat="43.303556416666666" lon="11.9408205"><ele>369.0</ele><time>2026-04-25T09:23:21.202Z</time></trkpt><trkpt lat="43.303548649999996" lon="11.940906533333335"><ele>369.0</ele><time>2026-04-25T09:23:26.222Z</time></trkpt><trkpt lat="43.303556150000006" lon="11.941000666666666"><ele>369.0</ele><time>2026-04-25T09:23:32.209Z</time></trkpt><trkpt lat="43.303572749999994" lon="11.941091683333331"><ele>370.0</ele><time>2026-04-25T09:23:38.263Z</time></trkpt><trkpt lat="43.30359023333334" lon="11.94118575"><ele>371.0</ele><time>2026-04-25T09:23:41.241Z</time></trkpt><trkpt lat="43.30361521666667" lon="11.941284833333334"><ele>372.0</ele><time>2026-04-25T09:23:44.238Z</time></trkpt><trkpt lat="43.30365168333333" lon="11.941371366666665"><ele>373.0</ele><time>2026-04-25T09:23:47.232Z</time></trkpt><trkpt lat="43.3036912" lon="11.941463333333335"><ele>374.0</ele><time>2026-04-25T09:23:50.232Z</time></trkpt><trkpt lat="43.30372763333333" lon="11.94154545"><ele>375.0</ele><time>2026-04-25T09:23:53.227Z</time></trkpt><trkpt lat="43.30376278333333" lon="11.941626083333333"><ele>376.0</ele><time>2026-04-25T09:23:56.242Z</time></trkpt><trkpt lat="43.30379688333334" lon="11.941732666666667"><ele>378.8333333333333</ele><time>2026-04-25T09:24:04.247Z</time></trkpt><trkpt lat="43.30382781666667" lon="11.941844816666665"><ele>381.66666666666663</ele><time>2026-04-25T09:24:07.257Z</time></trkpt><trkpt lat="43.3038652" lon="11.941937266666667"><ele>384.5</ele><time>2026-04-25T09:24:10.27Z</time></trkpt><trkpt lat="43.30391078333334" lon="11.942028583333334"><ele>387.3333333333333</ele><time>2026-04-25T09:24:13.272Z</time></trkpt><trkpt lat="43.303947016666676" lon="11.942105733333335"><ele>390.1666666666667</ele><time>2026-04-25T09:24:16.267Z</time></trkpt><trkpt lat="43.30397878333333" lon="11.942187033333335"><ele>393.0</ele><time>2026-04-25T09:24:19.279Z</time></trkpt><trkpt lat="43.3040212" lon="11.942287633333335"><ele>393.28571428571433</ele><time>2026-04-25T09:24:23.267Z</time></trkpt><trkpt lat="43.304038049999996" lon="11.942376083333333"><ele>393.57142857142856</ele><time>2026-04-25T09:24:26.281Z</time></trkpt><trkpt lat="43.30405275" lon="11.942463200000002"><ele>393.8571428571429</ele><time>2026-04-25T09:24:29.293Z</time></trkpt><trkpt lat="43.30408751666667" lon="11.942550016666667"><ele>394.14285714285717</ele><time>2026-04-25T09:24:32.282Z</time></trkpt><trkpt lat="43.30410425" lon="11.942650116666668"><ele>394.42857142857144</ele><time>2026-04-25T09:24:36.287Z</time></trkpt><trkpt lat="43.30411006666667" lon="11.942748883333335"><ele>394.7142857142857</ele><time>2026-04-25T09:24:41.329Z</time></trkpt><trkpt lat="43.30411993333334" lon="11.942845216666667"><ele>395.0</ele><time>2026-04-25T09:24:46.293Z</time></trkpt><trkpt lat="43.304138449999996" lon="11.942945750000002"><ele>397.0</ele><time>2026-04-25T09:24:51.302Z</time></trkpt><trkpt lat="43.304158199999996" lon="11.943038300000001"><ele>399.0</ele><time>2026-04-25T09:24:55.32Z</time></trkpt><trkpt lat="43.30417715" lon="11.943127116666668"><ele>401.0</ele><time>2026-04-25T09:25:00.318Z</time></trkpt><trkpt lat="43.304194949999996" lon="11.943222933333333"><ele>403.0</ele><time>2026-04-25T09:25:05.322Z</time></trkpt><trkpt lat="43.30420465" lon="11.943312199999998"><ele>405.0</ele><time>2026-04-25T09:25:09.323Z</time></trkpt><trkpt lat="43.304224716666674" lon="11.943407800000001"><ele>407.0</ele><time>2026-04-25T09:25:13.33Z</time></trkpt><trkpt lat="43.304226633333336" lon="11.94350025"><ele>409.0</ele><time>2026-04-25T09:25:17.346Z</time></trkpt><trkpt lat="43.3042288" lon="11.943590083333333"><ele>410.7142857142857</ele><time>2026-04-25T09:25:21.347Z</time></trkpt><trkpt lat="43.30424828333333" lon="11.943688566666667"><ele>412.42857142857144</ele><time>2026-04-25T09:25:25.362Z</time></trkpt><trkpt lat="43.3042521" lon="11.943778850000001"><ele>414.14285714285717</ele><time>2026-04-25T09:25:29.353Z</time></trkpt><trkpt lat="43.30423776666666" lon="11.943868433333332"><ele>415.8571428571429</ele><time>2026-04-25T09:25:36.374Z</time></trkpt><trkpt lat="43.30424463333334" lon="11.943954883333333"><ele>417.57142857142856</ele><time>2026-04-25T09:25:41.388Z</time></trkpt><trkpt lat="43.30426058333334" lon="11.944051333333334"><ele>419.28571428571433</ele><time>2026-04-25T09:25:47.374Z</time></trkpt><trkpt lat="43.30423446666667" lon="11.9441368"><ele>421.0</ele><time>2026-04-25T09:25:55.405Z</time></trkpt><trkpt lat="43.304172799999996" lon="11.94418255"><ele>422.42857142857144</ele><time>2026-04-25T09:26:02.411Z</time></trkpt><trkpt lat="43.30414378333333" lon="11.944265616666668"><ele>423.8571428571429</ele><time>2026-04-25T09:26:07.405Z</time></trkpt><trkpt lat="43.30415273333333" lon="11.944356483333335"><ele>425.28571428571433</ele><time>2026-04-25T09:26:13.428Z</time></trkpt><trkpt lat="43.30414108333333" lon="11.9444505"><ele>426.7142857142857</ele><time>2026-04-25T09:26:17.412Z</time></trkpt><trkpt lat="43.30417405" lon="11.944546183333333"><ele>428.1428571428571</ele><time>2026-04-25T09:26:21.422Z</time></trkpt><trkpt lat="43.30420305" lon="11.944645283333333"><ele>429.5714285714286</ele><time>2026-04-25T09:26:25.425Z</time></trkpt><trkpt lat="43.304192316666665" lon="11.944730966666668"><ele>431.0</ele><time>2026-04-25T09:26:28.443Z</time></trkpt><trkpt lat="43.30419503333332" lon="11.94483235"><ele>431.0</ele><time>2026-04-25T09:26:32.45Z</time></trkpt><trkpt lat="43.30418953333333" lon="11.944920416666665"><ele>431.0</ele><time>2026-04-25T09:26:36.447Z</time></trkpt><trkpt lat="43.30417881666667" lon="11.945016433333334"><ele>431.0</ele><time>2026-04-25T09:26:40.447Z</time></trkpt><trkpt lat="43.30418006666667" lon="11.945123349999998"><ele>431.0</ele><time>2026-04-25T09:26:44.463Z</time></trkpt><trkpt lat="43.304175" lon="11.945219883333335"><ele>431.0</ele><time>2026-04-25T09:26:48.466Z</time></trkpt><trkpt lat="43.30415521666667" lon="11.945313433333334"><ele>431.0</ele><time>2026-04-25T09:26:54.475Z</time></trkpt><trkpt lat="43.304143483333334" lon="11.945409083333333"><ele>431.0</ele><time>2026-04-25T09:27:00.47Z</time></trkpt><trkpt lat="43.304135300000006" lon="11.945496533333335"><ele>432.2857142857143</ele><time>2026-04-25T09:27:06.493Z</time></trkpt><trkpt lat="43.3041325" lon="11.945584216666669"><ele>433.57142857142856</ele><time>2026-04-25T09:27:11.49Z</time></trkpt><trkpt lat="43.304126433333344" lon="11.9456815"><ele>434.85714285714283</ele><time>2026-04-25T09:27:18.489Z</time></trkpt><trkpt lat="43.304133699999994" lon="11.945780200000002"><ele>436.1428571428571</ele><time>2026-04-25T09:27:22.503Z</time></trkpt><trkpt lat="43.30414008333334" lon="11.945886933333334"><ele>437.42857142857144</ele><time>2026-04-25T09:27:26.503Z</time></trkpt><trkpt lat="43.30415453333333" lon="11.94599225"><ele>438.71428571428567</ele><time>2026-04-25T09:27:30.515Z</time></trkpt><trkpt lat="43.304133766666666" lon="11.946092366666667"><ele>440.0</ele><time>2026-04-25T09:27:34.52Z</time></trkpt><trkpt lat="43.304119033333336" lon="11.946178683333335"><ele>440.49999999999994</ele><time>2026-04-25T09:27:38.52Z</time></trkpt><trkpt lat="43.304112800000006" lon="11.946286200000001"><ele>441.0</ele><time>2026-04-25T09:27:42.528Z</time></trkpt><trkpt lat="43.304081700000005" lon="11.946378300000001"><ele>441.5</ele><time>2026-04-25T09:27:46.543Z</time></trkpt><trkpt lat="43.304039983333325" lon="11.9464718"><ele>442.0</ele><time>2026-04-25T09:27:50.533Z</time></trkpt><trkpt lat="43.30402351666666" lon="11.946576866666666"><ele>442.49999999999994</ele><time>2026-04-25T09:27:54.553Z</time></trkpt><trkpt lat="43.303988700000005" lon="11.946674266666665"><ele>443.0</ele><time>2026-04-25T09:27:58.55Z</time></trkpt><trkpt lat="43.30394598333334" lon="11.94674235"><ele>443.8333333333333</ele><time>2026-04-25T09:28:02.565Z</time></trkpt><trkpt lat="43.30393291666665" lon="11.946850483333332"><ele>444.66666666666663</ele><time>2026-04-25T09:28:06.571Z</time></trkpt><trkpt lat="43.30392986666667" lon="11.946941050000003"><ele>445.5</ele><time>2026-04-25T09:28:09.568Z</time></trkpt><trkpt lat="43.30392815" lon="11.9470489"><ele>446.33333333333337</ele><time>2026-04-25T09:28:13.578Z</time></trkpt><trkpt lat="43.303921" lon="11.947144549999999"><ele>447.1666666666667</ele><time>2026-04-25T09:28:16.572Z</time></trkpt><trkpt lat="43.30392011666667" lon="11.947254233333336"><ele>448.0</ele><time>2026-04-25T09:28:20.588Z</time></trkpt><trkpt lat="43.30391856666667" lon="11.947363233333332"><ele>448.0</ele><time>2026-04-25T09:28:24.592Z</time></trkpt><trkpt lat="43.30392638333333" lon="11.947479433333335"><ele>448.0</ele><time>2026-04-25T09:28:28.591Z</time></trkpt><trkpt lat="43.303922666666665" lon="11.947589349999998"><ele>448.0</ele><time>2026-04-25T09:28:32.603Z</time></trkpt><trkpt lat="43.303931383333335" lon="11.947680133333332"><ele>448.0</ele><time>2026-04-25T09:28:35.596Z</time></trkpt><trkpt lat="43.30394546666666" lon="11.94776635"><ele>448.0</ele><time>2026-04-25T09:28:38.597Z</time></trkpt><trkpt lat="43.30393856666666" lon="11.947854316666668"><ele>448.0</ele><time>2026-04-25T09:28:41.591Z</time></trkpt><trkpt lat="43.30395266666667" lon="11.947964850000002"><ele>448.0</ele><time>2026-04-25T09:28:45.603Z</time></trkpt><trkpt lat="43.30396573333334" lon="11.948050066666667"><ele>449.0</ele><time>2026-04-25T09:28:48.621Z</time></trkpt><trkpt lat="43.30397141666668" lon="11.948137116666667"><ele>450.0</ele><time>2026-04-25T09:28:51.629Z</time></trkpt><trkpt lat="43.30398251666667" lon="11.9482275"><ele>451.0</ele><time>2026-04-25T09:28:54.633Z</time></trkpt><trkpt lat="43.30398721666667" lon="11.948331533333333"><ele>452.0</ele><time>2026-04-25T09:28:58.636Z</time></trkpt><trkpt lat="43.30398635" lon="11.948438566666669"><ele>453.0</ele><time>2026-04-25T09:29:02.628Z</time></trkpt><trkpt lat="43.30399453333333" lon="11.948535433333333"><ele>454.0</ele><time>2026-04-25T09:29:06.641Z</time></trkpt><trkpt lat="43.30398579999999" lon="11.948630816666666"><ele>455.0</ele><time>2026-04-25T09:29:10.633Z</time></trkpt><trkpt lat="43.30400396666668" lon="11.9487241"><ele>456.8571428571429</ele><time>2026-04-25T09:29:14.652Z</time></trkpt><trkpt lat="43.30402768333333" lon="11.948819983333332"><ele>458.7142857142857</ele><time>2026-04-25T09:29:18.666Z</time></trkpt><trkpt lat="43.30404421666667" lon="11.948927816666666"><ele>460.57142857142856</ele><time>2026-04-25T09:29:22.668Z</time></trkpt><trkpt lat="43.304071683333326" lon="11.9490163"><ele>462.42857142857144</ele><time>2026-04-25T09:29:26.658Z</time></trkpt><trkpt lat="43.304094666666664" lon="11.949116666666665"><ele>464.28571428571433</ele><time>2026-04-25T09:29:30.686Z</time></trkpt><trkpt lat="43.304127466666664" lon="11.9491982"><ele>466.14285714285717</ele><time>2026-04-25T09:29:34.677Z</time></trkpt><trkpt lat="43.30416653333334" lon="11.949269"><ele>468.0</ele><time>2026-04-25T09:29:38.695Z</time></trkpt><trkpt lat="43.30420183333334" lon="11.949358183333334"><ele>470.14285714285717</ele><time>2026-04-25T09:29:42.683Z</time></trkpt><trkpt lat="43.30424086666667" lon="11.94944465"><ele>472.28571428571433</ele><time>2026-04-25T09:29:47.702Z</time></trkpt><trkpt lat="43.30428473333333" lon="11.949519149999999"><ele>474.42857142857144</ele><time>2026-04-25T09:29:52.712Z</time></trkpt><trkpt lat="43.30433005" lon="11.949583216666667"><ele>476.57142857142856</ele><time>2026-04-25T09:29:56.702Z</time></trkpt><trkpt lat="43.30438228333334" lon="11.949639966666666"><ele>478.7142857142857</ele><time>2026-04-25T09:30:00.703Z</time></trkpt><trkpt lat="43.304437750000005" lon="11.949687083333334"><ele>480.8571428571429</ele><time>2026-04-25T09:30:04.734Z</time></trkpt><trkpt lat="43.30435335000001" lon="11.949701416666668"><ele>483.0</ele><time>2026-04-25T09:30:12.748Z</time></trkpt><trkpt lat="43.30428865000001" lon="11.949675933333333"><ele>483.0</ele><time>2026-04-25T09:30:16.741Z</time></trkpt><trkpt lat="43.30422178333333" lon="11.949666816666667"><ele>483.0</ele><time>2026-04-25T09:30:20.756Z</time></trkpt><trkpt lat="43.30415316666667" lon="11.949650866666664"><ele>483.0</ele><time>2026-04-25T09:30:24.75Z</time></trkpt><trkpt lat="43.30407665" lon="11.949664333333333"><ele>483.0</ele><time>2026-04-25T09:30:29.748Z</time></trkpt><trkpt lat="43.30401348333333" lon="11.949705833333333"><ele>483.0</ele><time>2026-04-25T09:30:33.756Z</time></trkpt><trkpt lat="43.303950116666655" lon="11.949744583333333"><ele>483.0</ele><time>2026-04-25T09:30:37.77Z</time></trkpt><trkpt lat="43.30388204999999" lon="11.949793616666666"><ele>483.0</ele><time>2026-04-25T09:30:41.786Z</time></trkpt><trkpt lat="43.303843433333334" lon="11.949892216666667"><ele>482.2857142857143</ele><time>2026-04-25T09:30:45.779Z</time></trkpt><trkpt lat="43.30380876666666" lon="11.94999075"><ele>481.57142857142856</ele><time>2026-04-25T09:30:49.785Z</time></trkpt><trkpt lat="43.30378518333334" lon="11.950080099999997"><ele>480.8571428571429</ele><time>2026-04-25T09:30:52.784Z</time></trkpt><trkpt lat="43.30376811666667" lon="11.950168766666666"><ele>480.14285714285717</ele><time>2026-04-25T09:30:55.795Z</time></trkpt><trkpt lat="43.30376818333334" lon="11.95027895"><ele>479.42857142857144</ele><time>2026-04-25T09:30:59.806Z</time></trkpt><trkpt lat="43.30377723333333" lon="11.950381583333334"><ele>478.7142857142858</ele><time>2026-04-25T09:31:03.795Z</time></trkpt><trkpt lat="43.303815633333336" lon="11.950464983333331"><ele>478.00000000000006</ele><time>2026-04-25T09:31:08.82Z</time></trkpt><trkpt lat="43.30387151666667" lon="11.950530050000001"><ele>481.1666666666667</ele><time>2026-04-25T09:31:14.82Z</time></trkpt><trkpt lat="43.303985749999995" lon="11.950533733333335"><ele>484.33333333333337</ele><time>2026-04-25T09:31:25.841Z</time></trkpt><trkpt lat="43.304075916666676" lon="11.950523316666667"><ele>487.5</ele><time>2026-04-25T09:31:33.848Z</time></trkpt><trkpt lat="43.30414128333334" lon="11.950550516666667"><ele>490.66666666666663</ele><time>2026-04-25T09:31:38.864Z</time></trkpt><trkpt lat="43.30419838333334" lon="11.950608166666665"><ele>493.8333333333333</ele><time>2026-04-25T09:31:42.853Z</time></trkpt><trkpt lat="43.30425868333334" lon="11.950676666666666"><ele>497.0</ele><time>2026-04-25T09:31:47.875Z</time></trkpt><trkpt lat="43.30429519999999" lon="11.950769783333332"><ele>497.0</ele><time>2026-04-25T09:31:52.87Z</time></trkpt><trkpt lat="43.30432981666666" lon="11.950866166666666"><ele>497.0</ele><time>2026-04-25T09:31:56.881Z</time></trkpt><trkpt lat="43.3043708" lon="11.950959433333333"><ele>497.0</ele><time>2026-04-25T09:32:00.875Z</time></trkpt><trkpt lat="43.304409316666664" lon="11.95104735"><ele>497.0</ele><time>2026-04-25T09:32:04.88Z</time></trkpt><trkpt lat="43.30443916666667" lon="11.951130983333332"><ele>497.0</ele><time>2026-04-25T09:32:08.904Z</time></trkpt><trkpt lat="43.30447478333334" lon="11.951209400000002"><ele>497.0</ele><time>2026-04-25T09:32:12.912Z</time></trkpt><trkpt lat="43.304509800000005" lon="11.951281366666668"><ele>497.0</ele><time>2026-04-25T09:32:16.903Z</time></trkpt><trkpt lat="43.30454673333334" lon="11.951366266666666"><ele>498.2857142857143</ele><time>2026-04-25T09:32:20.928Z</time></trkpt><trkpt lat="43.30457016666666" lon="11.95145185"><ele>499.57142857142856</ele><time>2026-04-25T09:32:24.927Z</time></trkpt><trkpt lat="43.30456885" lon="11.951540116666669"><ele>500.8571428571429</ele><time>2026-04-25T09:32:29.937Z</time></trkpt><trkpt lat="43.304552933333326" lon="11.951628966666664"><ele>502.14285714285717</ele><time>2026-04-25T09:32:35.927Z</time></trkpt><trkpt lat="43.30451095" lon="11.951708483333334"><ele>503.42857142857144</ele><time>2026-04-25T09:32:42.955Z</time></trkpt><trkpt lat="43.304460783333326" lon="11.951768250000002"><ele>504.7142857142858</ele><time>2026-04-25T09:32:48.957Z</time></trkpt><trkpt lat="43.30440976666667" lon="11.951836916666664"><ele>506.00000000000006</ele><time>2026-04-25T09:32:54.953Z</time></trkpt><trkpt lat="43.304355866666675" lon="11.951889600000001"><ele>506.57142857142867</ele><time>2026-04-25T09:33:00.982Z</time></trkpt><trkpt lat="43.30429731666667" lon="11.951953099999999"><ele>507.14285714285717</ele><time>2026-04-25T09:33:06.982Z</time></trkpt><trkpt lat="43.30428453333334" lon="11.952060366666668"><ele>507.7142857142858</ele><time>2026-04-25T09:33:11.999Z</time></trkpt><trkpt lat="43.304324799999996" lon="11.952144383333334"><ele>508.28571428571433</ele><time>2026-04-25T09:33:15.997Z</time></trkpt><trkpt lat="43.304381466666676" lon="11.952195766666668"><ele>508.8571428571429</ele><time>2026-04-25T09:33:20.008Z</time></trkpt><trkpt lat="43.30444748333333" lon="11.9522434"><ele>509.42857142857144</ele><time>2026-04-25T09:33:24.014Z</time></trkpt><trkpt lat="43.30451045" lon="11.9522838"><ele>510.0</ele><time>2026-04-25T09:33:28.012Z</time></trkpt><trkpt lat="43.304568833333335" lon="11.95234215"><ele>510.0</ele><time>2026-04-25T09:33:33.031Z</time></trkpt><trkpt lat="43.30459265" lon="11.952441366666669"><ele>510.00000000000006</ele><time>2026-04-25T09:33:39.034Z</time></trkpt><trkpt lat="43.30457393333333" lon="11.952538750000002"><ele>510.0</ele><time>2026-04-25T09:33:45.032Z</time></trkpt><trkpt lat="43.30456025" lon="11.952631899999998"><ele>510.0</ele><time>2026-04-25T09:33:51.056Z</time></trkpt><trkpt lat="43.30455905" lon="11.952720083333334"><ele>510.00000000000006</ele><time>2026-04-25T09:33:56.051Z</time></trkpt><trkpt lat="43.30458735" lon="11.952808666666666"><ele>510.0</ele><time>2026-04-25T09:34:02.072Z</time></trkpt><trkpt lat="43.30463766666667" lon="11.9528688"><ele>510.0</ele><time>2026-04-25T09:34:07.095Z</time></trkpt><trkpt lat="43.30471073333333" lon="11.95289375"><ele>514.0</ele><time>2026-04-25T09:34:13.081Z</time></trkpt><trkpt lat="43.30477886666666" lon="11.952889149999997"><ele>518.0</ele><time>2026-04-25T09:34:17.076Z</time></trkpt><trkpt lat="43.30484726666667" lon="11.952851149999999"><ele>522.0</ele><time>2026-04-25T09:34:22.101Z</time></trkpt><trkpt lat="43.3049213" lon="11.952857116666667"><ele>526.0</ele><time>2026-04-25T09:34:26.106Z</time></trkpt><trkpt lat="43.30497270000001" lon="11.952910466666665"><ele>530.0</ele><time>2026-04-25T09:34:32.114Z</time></trkpt><trkpt lat="43.305001933333344" lon="11.952988533333333"><ele>534.0</ele><time>2026-04-25T09:34:40.112Z</time></trkpt><trkpt lat="43.30503886666667" lon="11.953070366666669"><ele>538.0</ele><time>2026-04-25T09:34:47.128Z</time></trkpt><trkpt lat="43.30506866666666" lon="11.953157616666665"><ele>538.0</ele><time>2026-04-25T09:34:55.231Z</time></trkpt><trkpt lat="43.30508846666666" lon="11.953240533333334"><ele>538.0</ele><time>2026-04-25T09:35:04.262Z</time></trkpt><trkpt lat="43.30508316666666" lon="11.953332133333333"><ele>538.0</ele><time>2026-04-25T09:35:10.265Z</time></trkpt><trkpt lat="43.30508263333333" lon="11.953437283333335"><ele>538.0</ele><time>2026-04-25T09:35:15.257Z</time></trkpt><trkpt lat="43.305074600000005" lon="11.953532833333334"><ele>538.0</ele><time>2026-04-25T09:35:20.278Z</time></trkpt><trkpt lat="43.3050493" lon="11.953620916666667"><ele>538.0</ele><time>2026-04-25T09:35:24.271Z</time></trkpt><trkpt lat="43.30504771666667" lon="11.953729183333333"><ele>538.0</ele><time>2026-04-25T09:35:28.282Z</time></trkpt><trkpt lat="43.30505084999999" lon="11.953842566666667"><ele>539.0</ele><time>2026-04-25T09:35:32.305Z</time></trkpt><trkpt lat="43.30505811666667" lon="11.953936233333332"><ele>540.0</ele><time>2026-04-25T09:35:35.286Z</time></trkpt><trkpt lat="43.30506748333334" lon="11.954039900000001"><ele>541.0</ele><time>2026-04-25T09:35:39.303Z</time></trkpt><trkpt lat="43.3050865" lon="11.954143216666667"><ele>542.0</ele><time>2026-04-25T09:35:43.297Z</time></trkpt><trkpt lat="43.30511016666666" lon="11.954230766666669"><ele>543.0</ele><time>2026-04-25T09:35:47.307Z</time></trkpt><trkpt lat="43.30513876666667" lon="11.954330766666665"><ele>544.0</ele><time>2026-04-25T09:35:51.326Z</time></trkpt><trkpt lat="43.30517631666667" lon="11.954430633333335"><ele>544.8333333333334</ele><time>2026-04-25T09:35:54.33Z</time></trkpt><trkpt lat="43.30520518333333" lon="11.954532099999998"><ele>545.6666666666667</ele><time>2026-04-25T09:35:58.326Z</time></trkpt><trkpt lat="43.30523871666666" lon="11.954636249999998"><ele>546.5</ele><time>2026-04-25T09:36:02.342Z</time></trkpt><trkpt lat="43.305286599999995" lon="11.954725366666667"><ele>547.3333333333334</ele><time>2026-04-25T09:36:06.332Z</time></trkpt><trkpt lat="43.30532828333333" lon="11.954828633333333"><ele>548.1666666666666</ele><time>2026-04-25T09:36:10.351Z</time></trkpt><trkpt lat="43.30536208333333" lon="11.9549204"><ele>549.0</ele><time>2026-04-25T09:36:13.361Z</time></trkpt><trkpt lat="43.30540525" lon="11.955002349999999"><ele>551.0</ele><time>2026-04-25T09:36:16.375Z</time></trkpt><trkpt lat="43.305447199999996" lon="11.955085016666665"><ele>553.0</ele><time>2026-04-25T09:36:19.357Z</time></trkpt><trkpt lat="43.30548101666666" lon="11.955170333333335"><ele>555.0</ele><time>2026-04-25T09:36:22.371Z</time></trkpt><trkpt lat="43.305512666666665" lon="11.955254566666667"><ele>557.0</ele><time>2026-04-25T09:36:25.36Z</time></trkpt><trkpt lat="43.305535166666665" lon="11.95534426666667"><ele>559.0</ele><time>2026-04-25T09:36:28.365Z</time></trkpt><trkpt lat="43.30555025000001" lon="11.9554328"><ele>561.0</ele><time>2026-04-25T09:36:31.38Z</time></trkpt><trkpt lat="43.30556176666668" lon="11.955523766666666"><ele>563.0</ele><time>2026-04-25T09:36:34.371Z</time></trkpt><trkpt lat="43.30556401666666" lon="11.955619283333332"><ele>563.0</ele><time>2026-04-25T09:36:37.384Z</time></trkpt><trkpt lat="43.30556348333332" lon="11.95571946666667"><ele>563.0</ele><time>2026-04-25T09:36:40.386Z</time></trkpt><trkpt lat="43.30558015" lon="11.955812250000001"><ele>563.0</ele><time>2026-04-25T09:36:43.403Z</time></trkpt><trkpt lat="43.305596249999994" lon="11.955915383333334"><ele>563.0</ele><time>2026-04-25T09:36:46.388Z</time></trkpt><trkpt lat="43.305619683333326" lon="11.956011149999998"><ele>563.0</ele><time>2026-04-25T09:36:49.396Z</time></trkpt><trkpt lat="43.30566345000001" lon="11.95610635"><ele>563.0</ele><time>2026-04-25T09:36:53.41Z</time></trkpt><trkpt lat="43.3056994" lon="11.956183933333334"><ele>563.0</ele><time>2026-04-25T09:36:56.405Z</time></trkpt><trkpt lat="43.3057323" lon="11.956266566666667"><ele>563.2857142857142</ele><time>2026-04-25T09:36:59.413Z</time></trkpt><trkpt lat="43.30576453333333" lon="11.956357733333334"><ele>563.5714285714286</ele><time>2026-04-25T09:37:02.453Z</time></trkpt><trkpt lat="43.305797283333334" lon="11.956443566666668"><ele>563.8571428571429</ele><time>2026-04-25T09:37:05.413Z</time></trkpt><trkpt lat="43.30583701666666" lon="11.956535383333335"><ele>564.1428571428571</ele><time>2026-04-25T09:37:08.43Z</time></trkpt><trkpt lat="43.305872283333336" lon="11.956618449999999"><ele>564.4285714285714</ele><time>2026-04-25T09:37:11.44Z</time></trkpt><trkpt lat="43.305909050000004" lon="11.956699316666667"><ele>564.7142857142857</ele><time>2026-04-25T09:37:14.427Z</time></trkpt><trkpt lat="43.30593658333334" lon="11.956781416666669"><ele>565.0</ele><time>2026-04-25T09:37:17.435Z</time></trkpt><trkpt lat="43.30596545" lon="11.956872400000002"><ele>565.8333333333334</ele><time>2026-04-25T09:37:20.452Z</time></trkpt><trkpt lat="43.305992783333345" lon="11.956964816666668"><ele>566.6666666666667</ele><time>2026-04-25T09:37:23.46Z</time></trkpt><trkpt lat="43.30601468333332" lon="11.95706345"><ele>567.5</ele><time>2026-04-25T09:37:26.447Z</time></trkpt><trkpt lat="43.30604351666666" lon="11.957160749999998"><ele>568.3333333333334</ele><time>2026-04-25T09:37:29.459Z</time></trkpt><trkpt lat="43.30606825" lon="11.95726575"><ele>569.1666666666666</ele><time>2026-04-25T09:37:32.475Z</time></trkpt><trkpt lat="43.306090049999995" lon="11.9573695"><ele>570.0</ele><time>2026-04-25T09:37:35.46Z</time></trkpt><trkpt lat="43.30611488333334" lon="11.957465466666667"><ele>567.6666666666666</ele><time>2026-04-25T09:37:38.472Z</time></trkpt><trkpt lat="43.30615233333333" lon="11.957561083333331"><ele>565.3333333333334</ele><time>2026-04-25T09:37:41.48Z</time></trkpt><trkpt lat="43.30618966666666" lon="11.957643050000001"><ele>563.0</ele><time>2026-04-25T09:37:44.485Z</time></trkpt><trkpt lat="43.306225566666676" lon="11.957724050000001"><ele>560.6666666666667</ele><time>2026-04-25T09:37:47.479Z</time></trkpt><trkpt lat="43.3062701" lon="11.957813866666667"><ele>558.3333333333334</ele><time>2026-04-25T09:37:50.488Z</time></trkpt><trkpt lat="43.306315533333326" lon="11.957906733333333"><ele>556.0</ele><time>2026-04-25T09:37:53.496Z</time></trkpt><trkpt lat="43.306360600000005" lon="11.957997"><ele>556.0</ele><time>2026-04-25T09:37:56.488Z</time></trkpt><trkpt lat="43.3064067" lon="11.958068633333335"><ele>556.0</ele><time>2026-04-25T09:37:59.502Z</time></trkpt><trkpt lat="43.30644936666666" lon="11.958152716666666"><ele>556.0</ele><time>2026-04-25T09:38:02.505Z</time></trkpt><trkpt lat="43.30650361666667" lon="11.958238016666668"><ele>556.0</ele><time>2026-04-25T09:38:05.502Z</time></trkpt><trkpt lat="43.30656016666667" lon="11.958306683333333"><ele>556.0</ele><time>2026-04-25T09:38:08.508Z</time></trkpt><trkpt lat="43.30660823333333" lon="11.958369366666666"><ele>556.0</ele><time>2026-04-25T09:38:11.515Z</time></trkpt><trkpt lat="43.30665875" lon="11.958455533333332"><ele>556.0</ele><time>2026-04-25T09:38:14.533Z</time></trkpt><trkpt lat="43.3066971" lon="11.958542416666669"><ele>555.5</ele><time>2026-04-25T09:38:17.522Z</time></trkpt><trkpt lat="43.306730349999995" lon="11.958629016666665"><ele>555.0</ele><time>2026-04-25T09:38:20.535Z</time></trkpt><trkpt lat="43.306776883333335" lon="11.958716416666668"><ele>554.5</ele><time>2026-04-25T09:38:23.541Z</time></trkpt><trkpt lat="43.30682088333333" lon="11.9588028"><ele>554.0</ele><time>2026-04-25T09:38:26.531Z</time></trkpt><trkpt lat="43.30686563333334" lon="11.958889666666668"><ele>553.5</ele><time>2026-04-25T09:38:29.543Z</time></trkpt><trkpt lat="43.30692175000001" lon="11.9589741"><ele>553.0</ele><time>2026-04-25T09:38:32.555Z</time></trkpt><trkpt lat="43.306957966666666" lon="11.959071283333332"><ele>553.0</ele><time>2026-04-25T09:38:35.543Z</time></trkpt><trkpt lat="43.30699535000001" lon="11.959163716666668"><ele>553.0</ele><time>2026-04-25T09:38:38.553Z</time></trkpt><trkpt lat="43.30702785" lon="11.959257133333331"><ele>553.0</ele><time>2026-04-25T09:38:41.563Z</time></trkpt><trkpt lat="43.30706403333333" lon="11.959344716666665"><ele>553.0</ele><time>2026-04-25T09:38:44.577Z</time></trkpt><trkpt lat="43.30710451666667" lon="11.9594312"><ele>553.0</ele><time>2026-04-25T09:38:47.563Z</time></trkpt><trkpt lat="43.307138450000004" lon="11.95952405"><ele>553.0</ele><time>2026-04-25T09:38:50.577Z</time></trkpt><trkpt lat="43.3071736" lon="11.9596243"><ele>551.6666666666667</ele><time>2026-04-25T09:38:53.561Z</time></trkpt><trkpt lat="43.30719993333334" lon="11.959723149999999"><ele>550.3333333333334</ele><time>2026-04-25T09:38:56.573Z</time></trkpt><trkpt lat="43.30723056666667" lon="11.959831716666667"><ele>549.0</ele><time>2026-04-25T09:38:59.586Z</time></trkpt><trkpt lat="43.3072458" lon="11.959931183333333"><ele>547.6666666666666</ele><time>2026-04-25T09:39:02.588Z</time></trkpt><trkpt lat="43.30726486666667" lon="11.960019733333336"><ele>546.3333333333333</ele><time>2026-04-25T09:39:05.583Z</time></trkpt><trkpt lat="43.30727838333334" lon="11.960121216666668"><ele>545.0</ele><time>2026-04-25T09:39:08.596Z</time></trkpt><trkpt lat="43.30729405" lon="11.960221133333333"><ele>547.8571428571429</ele><time>2026-04-25T09:39:11.592Z</time></trkpt><trkpt lat="43.30731466666666" lon="11.960306533333334"><ele>550.7142857142858</ele><time>2026-04-25T09:39:14.596Z</time></trkpt><trkpt lat="43.30735306666667" lon="11.960389516666666"><ele>553.5714285714286</ele><time>2026-04-25T09:39:17.608Z</time></trkpt><trkpt lat="43.307393000000005" lon="11.960462500000002"><ele>556.4285714285714</ele><time>2026-04-25T09:39:20.611Z</time></trkpt><trkpt lat="43.30744123333334" lon="11.960534116666668"><ele>559.2857142857142</ele><time>2026-04-25T09:39:23.607Z</time></trkpt><trkpt lat="43.307485766666666" lon="11.960603483333333"><ele>562.1428571428571</ele><time>2026-04-25T09:39:26.613Z</time></trkpt><trkpt lat="43.307526633333325" lon="11.960680816666665"><ele>565.0</ele><time>2026-04-25T09:39:29.624Z</time></trkpt><trkpt lat="43.30756225" lon="11.960759566666665"><ele>564.9999999999999</ele><time>2026-04-25T09:39:32.613Z</time></trkpt><trkpt lat="43.30758895" lon="11.960842600000001"><ele>565.0</ele><time>2026-04-25T09:39:35.626Z</time></trkpt><trkpt lat="43.30761613333334" lon="11.960948883333332"><ele>565.0</ele><time>2026-04-25T09:39:39.611Z</time></trkpt><trkpt lat="43.30763981666667" lon="11.961032816666666"><ele>565.0</ele><time>2026-04-25T09:39:42.63Z</time></trkpt><trkpt lat="43.30765246666666" lon="11.961131033333332"><ele>565.0</ele><time>2026-04-25T09:39:45.641Z</time></trkpt><trkpt lat="43.307672350000004" lon="11.961225"><ele>564.9999999999999</ele><time>2026-04-25T09:39:48.625Z</time></trkpt><trkpt lat="43.30768638333334" lon="11.961319883333333"><ele>565.0</ele><time>2026-04-25T09:39:51.642Z</time></trkpt><trkpt lat="43.30769936666667" lon="11.961411616666664"><ele>565.5714285714286</ele><time>2026-04-25T09:39:54.644Z</time></trkpt><trkpt lat="43.30772695" lon="11.961516583333331"><ele>566.1428571428571</ele><time>2026-04-25T09:39:57.632Z</time></trkpt><trkpt lat="43.30775298333333" lon="11.961616166666666"><ele>566.7142857142858</ele><time>2026-04-25T09:40:00.702Z</time></trkpt><trkpt lat="43.30778235" lon="11.961705349999999"><ele>567.2857142857142</ele><time>2026-04-25T09:40:03.656Z</time></trkpt><trkpt lat="43.30779931666666" lon="11.961794883333335"><ele>567.8571428571429</ele><time>2026-04-25T09:40:06.641Z</time></trkpt><trkpt lat="43.30782216666667" lon="11.961885083333334"><ele>568.4285714285714</ele><time>2026-04-25T09:40:09.659Z</time></trkpt><trkpt lat="43.307856583333326" lon="11.961971649999997"><ele>569.0</ele><time>2026-04-25T09:40:12.668Z</time></trkpt><trkpt lat="43.30789368333334" lon="11.962059883333332"><ele>568.5714285714287</ele><time>2026-04-25T09:40:15.661Z</time></trkpt><trkpt lat="43.307924299999996" lon="11.962138516666668"><ele>568.1428571428571</ele><time>2026-04-25T09:40:18.665Z</time></trkpt><trkpt lat="43.30795706666667" lon="11.962234583333334"><ele>567.7142857142858</ele><time>2026-04-25T09:40:21.659Z</time></trkpt><trkpt lat="43.307984683333345" lon="11.96231735"><ele>567.2857142857143</ele><time>2026-04-25T09:40:24.694Z</time></trkpt><trkpt lat="43.30800871666667" lon="11.962401550000001"><ele>566.8571428571429</ele><time>2026-04-25T09:40:27.68Z</time></trkpt><trkpt lat="43.30803183333334" lon="11.962508966666666"><ele>566.4285714285714</ele><time>2026-04-25T09:40:31.67Z</time></trkpt><trkpt lat="43.30806644999999" lon="11.962613533333336"><ele>566.0</ele><time>2026-04-25T09:40:35.686Z</time></trkpt><trkpt lat="43.30811106666667" lon="11.962709866666668"><ele>567.7142857142858</ele><time>2026-04-25T09:40:39.676Z</time></trkpt><trkpt lat="43.30816535" lon="11.962794916666667"><ele>569.4285714285714</ele><time>2026-04-25T09:40:43.684Z</time></trkpt><trkpt lat="43.308204200000006" lon="11.962884883333334"><ele>571.1428571428571</ele><time>2026-04-25T09:40:47.692Z</time></trkpt><trkpt lat="43.30824278333333" lon="11.962987033333333"><ele>572.8571428571429</ele><time>2026-04-25T09:40:51.698Z</time></trkpt><trkpt lat="43.30826865" lon="11.963080300000001"><ele>574.5714285714286</ele><time>2026-04-25T09:40:57.714Z</time></trkpt><trkpt lat="43.30830041666666" lon="11.963154999999999"><ele>576.2857142857143</ele><time>2026-04-25T09:41:03.701Z</time></trkpt><trkpt lat="43.30832423333333" lon="11.963243333333333"><ele>578.0</ele><time>2026-04-25T09:41:09.719Z</time></trkpt><trkpt lat="43.30832998333334" lon="11.963331116666666"><ele>578.1428571428571</ele><time>2026-04-25T09:41:15.736Z</time></trkpt><trkpt lat="43.3083301" lon="11.96341905"><ele>578.2857142857142</ele><time>2026-04-25T09:41:21.741Z</time></trkpt><trkpt lat="43.30833381666666" lon="11.963512733333335"><ele>578.4285714285713</ele><time>2026-04-25T09:41:28.744Z</time></trkpt><trkpt lat="43.308345333333335" lon="11.963606466666667"><ele>578.5714285714286</ele><time>2026-04-25T09:41:35.741Z</time></trkpt><trkpt lat="43.308363033333336" lon="11.963701600000002"><ele>578.7142857142857</ele><time>2026-04-25T09:41:41.743Z</time></trkpt><trkpt lat="43.30839986666667" lon="11.963779333333331"><ele>578.8571428571428</ele><time>2026-04-25T09:41:48.766Z</time></trkpt><trkpt lat="43.30841601666666" lon="11.96387255"><ele>579.0</ele><time>2026-04-25T09:41:53.768Z</time></trkpt><trkpt lat="43.30842469999999" lon="11.9639602"><ele>579.0</ele><time>2026-04-25T09:41:56.757Z</time></trkpt><trkpt lat="43.30840893333334" lon="11.964062333333333"><ele>579.0</ele><time>2026-04-25T09:41:59.764Z</time></trkpt><trkpt lat="43.30839601666666" lon="11.964159400000002"><ele>579.0</ele><time>2026-04-25T09:42:02.781Z</time></trkpt><trkpt lat="43.30839601666666" lon="11.9642694"><ele>579.0</ele><time>2026-04-25T09:42:05.889Z</time></trkpt><trkpt lat="43.30840270000001" lon="11.9643734"><ele>579.0</ele><time>2026-04-25T09:42:08.876Z</time></trkpt><trkpt lat="43.308399716666656" lon="11.96448355"><ele>579.0</ele><time>2026-04-25T09:42:11.884Z</time></trkpt><trkpt lat="43.308386033333335" lon="11.964595033333335"><ele>578.5</ele><time>2026-04-25T09:42:14.874Z</time></trkpt><trkpt lat="43.30837101666666" lon="11.964709633333332"><ele>578.0</ele><time>2026-04-25T09:42:17.883Z</time></trkpt><trkpt lat="43.30836733333334" lon="11.964815183333334"><ele>577.5</ele><time>2026-04-25T09:42:20.9Z</time></trkpt><trkpt lat="43.30838026666667" lon="11.964922283333332"><ele>577.0</ele><time>2026-04-25T09:42:23.887Z</time></trkpt><trkpt lat="43.30840178333333" lon="11.96502555"><ele>576.5</ele><time>2026-04-25T09:42:26.896Z</time></trkpt><trkpt lat="43.30841576666666" lon="11.965128666666667"><ele>576.0</ele><time>2026-04-25T09:42:29.912Z</time></trkpt><trkpt lat="43.30843855" lon="11.965236633333332"><ele>576.0000000000001</ele><time>2026-04-25T09:42:32.896Z</time></trkpt><trkpt lat="43.30845388333334" lon="11.965328216666668"><ele>576.0</ele><time>2026-04-25T09:42:35.908Z</time></trkpt><trkpt lat="43.308474399999994" lon="11.965423433333335"><ele>576.0</ele><time>2026-04-25T09:42:38.914Z</time></trkpt><trkpt lat="43.308488516666664" lon="11.9655203"><ele>576.0</ele><time>2026-04-25T09:42:41.906Z</time></trkpt><trkpt lat="43.308507383333335" lon="11.965608883333335"><ele>576.0</ele><time>2026-04-25T09:42:44.914Z</time></trkpt><trkpt lat="43.308520900000005" lon="11.96570135"><ele>576.0000000000001</ele><time>2026-04-25T09:42:47.911Z</time></trkpt><trkpt lat="43.308532299999996" lon="11.965790333333333"><ele>576.0</ele><time>2026-04-25T09:42:50.919Z</time></trkpt><trkpt lat="43.30855941666667" lon="11.965877516666668"><ele>576.8571428571429</ele><time>2026-04-25T09:42:53.934Z</time></trkpt><trkpt lat="43.30857491666667" lon="11.965964366666666"><ele>577.7142857142858</ele><time>2026-04-25T09:42:56.933Z</time></trkpt><trkpt lat="43.308566666666664" lon="11.966059833333334"><ele>578.5714285714286</ele><time>2026-04-25T09:42:59.926Z</time></trkpt><trkpt lat="43.308534883333344" lon="11.966142733333333"><ele>579.4285714285714</ele><time>2026-04-25T09:43:03.036Z</time></trkpt><trkpt lat="43.30849048333333" lon="11.966222466666666"><ele>580.2857142857142</ele><time>2026-04-25T09:43:06.051Z</time></trkpt><trkpt lat="43.30844928333333" lon="11.9663081"><ele>581.1428571428571</ele><time>2026-04-25T09:43:09.059Z</time></trkpt><trkpt lat="43.30843356666666" lon="11.966405116666666"><ele>582.0</ele><time>2026-04-25T09:43:12.041Z</time></trkpt><trkpt lat="43.30841675" lon="11.966489750000001"><ele>582.0</ele><time>2026-04-25T09:43:15.06Z</time></trkpt><trkpt lat="43.308426366666666" lon="11.966575699999998"><ele>582.0</ele><time>2026-04-25T09:43:18.051Z</time></trkpt><trkpt lat="43.30846351666667" lon="11.966660850000002"><ele>582.0</ele><time>2026-04-25T09:43:21.056Z</time></trkpt><trkpt lat="43.30848989999999" lon="11.966745533333336"><ele>582.0</ele><time>2026-04-25T09:43:24.069Z</time></trkpt><trkpt lat="43.308505133333334" lon="11.966834883333334"><ele>582.0</ele><time>2026-04-25T09:43:27.056Z</time></trkpt><trkpt lat="43.308533616666665" lon="11.966921766666667"><ele>582.0</ele><time>2026-04-25T09:43:30.061Z</time></trkpt><trkpt lat="43.30856033333333" lon="11.967010000000002"><ele>582.0</ele><time>2026-04-25T09:43:33.08Z</time></trkpt><trkpt lat="43.30859536666667" lon="11.967098666666667"><ele>583.0</ele><time>2026-04-25T09:43:37.069Z</time></trkpt><trkpt lat="43.308629866666664" lon="11.96718705"><ele>584.0</ele><time>2026-04-25T09:43:42.093Z</time></trkpt><trkpt lat="43.30867146666666" lon="11.967267516666668"><ele>585.0</ele><time>2026-04-25T09:43:48.081Z</time></trkpt><trkpt lat="43.30870803333334" lon="11.967358000000003"><ele>586.0</ele><time>2026-04-25T09:44:00.111Z</time></trkpt><trkpt lat="43.30875006666667" lon="11.967438966666668"><ele>587.0</ele><time>2026-04-25T09:44:03.101Z</time></trkpt><trkpt lat="43.30879133333333" lon="11.967509766666668"><ele>588.0</ele><time>2026-04-25T09:44:06.137Z</time></trkpt><trkpt lat="43.30882199999999" lon="11.967591"><ele>589.0</ele><time>2026-04-25T09:44:09.117Z</time></trkpt><trkpt lat="43.30883426666666" lon="11.96768685"><ele>589.1428571428571</ele><time>2026-04-25T09:44:12.134Z</time></trkpt><trkpt lat="43.30884429999999" lon="11.96777505"><ele>589.2857142857142</ele><time>2026-04-25T09:44:15.119Z</time></trkpt><trkpt lat="43.308866833333326" lon="11.9678706"><ele>589.4285714285714</ele><time>2026-04-25T09:44:18.134Z</time></trkpt><trkpt lat="43.30888971666666" lon="11.96795945"><ele>589.5714285714286</ele><time>2026-04-25T09:44:21.143Z</time></trkpt><trkpt lat="43.308917466666664" lon="11.968062416666665"><ele>589.7142857142858</ele><time>2026-04-25T09:44:24.155Z</time></trkpt><trkpt lat="43.30895496666667" lon="11.9681608"><ele>589.8571428571429</ele><time>2026-04-25T09:44:27.144Z</time></trkpt><trkpt lat="43.3089819" lon="11.96824485"><ele>590.0</ele><time>2026-04-25T09:44:30.145Z</time></trkpt><trkpt lat="43.3090192" lon="11.96831491666667"><ele>592.7142857142858</ele><time>2026-04-25T09:44:33.164Z</time></trkpt><trkpt lat="43.30907331666668" lon="11.968393933333335"><ele>595.4285714285714</ele><time>2026-04-25T09:44:36.153Z</time></trkpt><trkpt lat="43.309113966666665" lon="11.96846835"><ele>598.1428571428571</ele><time>2026-04-25T09:44:39.159Z</time></trkpt><trkpt lat="43.30915591666667" lon="11.968551766666666"><ele>600.8571428571429</ele><time>2026-04-25T09:44:42.174Z</time></trkpt><trkpt lat="43.30920344999999" lon="11.968631716666668"><ele>603.5714285714286</ele><time>2026-04-25T09:44:45.184Z</time></trkpt><trkpt lat="43.30924681666667" lon="11.968722633333334"><ele>606.2857142857143</ele><time>2026-04-25T09:44:48.189Z</time></trkpt><trkpt lat="43.30929495000001" lon="11.968788483333332"><ele>609.0</ele><time>2026-04-25T09:44:51.184Z</time></trkpt><trkpt lat="43.30933279999999" lon="11.968868666666665"><ele>609.0</ele><time>2026-04-25T09:44:54.197Z</time></trkpt><trkpt lat="43.309376566666664" lon="11.968947816666665"><ele>609.0</ele><time>2026-04-25T09:44:57.187Z</time></trkpt><trkpt lat="43.309414933333336" lon="11.969019016666667"><ele>609.0</ele><time>2026-04-25T09:45:00.189Z</time></trkpt><trkpt lat="43.30945968333334" lon="11.969091566666668"><ele>609.0</ele><time>2026-04-25T09:45:03.21Z</time></trkpt><trkpt lat="43.30952681666666" lon="11.969161499999998"><ele>609.0</ele><time>2026-04-25T09:45:06.209Z</time></trkpt><trkpt lat="43.30959561666667" lon="11.969232633333334"><ele>609.0</ele><time>2026-04-25T09:45:09.207Z</time></trkpt><trkpt lat="43.30964850000001" lon="11.969317599999998"><ele>610.8333333333334</ele><time>2026-04-25T09:45:12.219Z</time></trkpt><trkpt lat="43.3097068" lon="11.969397399999998"><ele>612.6666666666666</ele><time>2026-04-25T09:45:15.208Z</time></trkpt><trkpt lat="43.309760149999995" lon="11.969477916666664"><ele>614.5</ele><time>2026-04-25T09:45:18.219Z</time></trkpt><trkpt lat="43.309813616666666" lon="11.96956115"><ele>616.3333333333333</ele><time>2026-04-25T09:45:21.227Z</time></trkpt><trkpt lat="43.309857" lon="11.969654633333334"><ele>618.1666666666666</ele><time>2026-04-25T09:45:24.218Z</time></trkpt><trkpt lat="43.30988308333333" lon="11.969746583333333"><ele>620.0</ele><time>2026-04-25T09:45:27.231Z</time></trkpt><trkpt lat="43.30989038333334" lon="11.969845566666667"><ele>617.0</ele><time>2026-04-25T09:45:30.237Z</time></trkpt><trkpt lat="43.30986455000001" lon="11.969962816666667"><ele>614.0</ele><time>2026-04-25T09:45:33.253Z</time></trkpt><trkpt lat="43.30982335000001" lon="11.970070333333336"><ele>611.0</ele><time>2026-04-25T09:45:36.259Z</time></trkpt><trkpt lat="43.30979448333333" lon="11.970180016666667"><ele>608.0</ele><time>2026-04-25T09:45:39.244Z</time></trkpt><trkpt lat="43.309810266666666" lon="11.970297866666666"><ele>605.0</ele><time>2026-04-25T09:45:42.263Z</time></trkpt><trkpt lat="43.309853000000004" lon="11.970396266666667"><ele>602.0</ele><time>2026-04-25T09:45:45.253Z</time></trkpt><trkpt lat="43.309894299999996" lon="11.97050523333333"><ele>602.0</ele><time>2026-04-25T09:45:48.253Z</time></trkpt><trkpt lat="43.30994306666667" lon="11.970608816666667"><ele>602.0</ele><time>2026-04-25T09:45:51.271Z</time></trkpt><trkpt lat="43.30998905" lon="11.970700783333333"><ele>602.0</ele><time>2026-04-25T09:45:54.282Z</time></trkpt><trkpt lat="43.31004313333333" lon="11.970785233333334"><ele>602.0</ele><time>2026-04-25T09:45:57.287Z</time></trkpt><trkpt lat="43.31009686666666" lon="11.970882483333332"><ele>602.0</ele><time>2026-04-25T09:46:00.282Z</time></trkpt><trkpt lat="43.3101523" lon="11.970974349999999"><ele>602.0</ele><time>2026-04-25T09:46:03.294Z</time></trkpt><trkpt lat="43.31018193333333" lon="11.971072816666666"><ele>606.0</ele><time>2026-04-25T09:46:06.299Z</time></trkpt><trkpt lat="43.31022153333333" lon="11.971170083333334"><ele>610.0</ele><time>2026-04-25T09:46:08.287Z</time></trkpt><trkpt lat="43.31028391666667" lon="11.971249833333331"><ele>614.0</ele><time>2026-04-25T09:46:12.304Z</time></trkpt><trkpt lat="43.31038675" lon="11.9713122"><ele>618.0</ele><time>2026-04-25T09:46:15.309Z</time></trkpt><trkpt lat="43.31045906666666" lon="11.971380949999999"><ele>622.0</ele><time>2026-04-25T09:46:18.299Z</time></trkpt><trkpt lat="43.310531833333336" lon="11.971447433333333"><ele>619.0</ele><time>2026-04-25T09:46:21.311Z</time></trkpt><trkpt lat="43.310594200000004" lon="11.97152231666667"><ele>616.0</ele><time>2026-04-25T09:46:24.319Z</time></trkpt><trkpt lat="43.310627866666664" lon="11.971595850000002"><ele>613.0</ele><time>2026-04-25T09:46:26.329Z</time></trkpt><trkpt lat="43.31069093333334" lon="11.971614416666666"><ele>610.0</ele><time>2026-04-25T09:46:28.32Z</time></trkpt><trkpt lat="43.310755316666665" lon="11.97161815"><ele>607.0</ele><time>2026-04-25T09:46:30.32Z</time></trkpt><trkpt lat="43.31084685000001" lon="11.971600683333335"><ele>604.0</ele><time>2026-04-25T09:46:33.334Z</time></trkpt><trkpt lat="43.310916633333335" lon="11.9715982"><ele>601.0</ele><time>2026-04-25T09:46:35.32Z</time></trkpt><trkpt lat="43.31098116666667" lon="11.971590383333334"><ele>601.0</ele><time>2026-04-25T09:46:37.427Z</time></trkpt><trkpt lat="43.31107166666667" lon="11.971601850000003"><ele>601.0</ele><time>2026-04-25T09:46:40.435Z</time></trkpt><trkpt lat="43.311151" lon="11.971621416666668"><ele>601.0</ele><time>2026-04-25T09:46:43.445Z</time></trkpt><trkpt lat="43.31123075000001" lon="11.971641483333332"><ele>601.0</ele><time>2026-04-25T09:46:46.435Z</time></trkpt><trkpt lat="43.31130475" lon="11.9716709"><ele>601.0</ele><time>2026-04-25T09:46:49.454Z</time></trkpt><trkpt lat="43.31137351666666" lon="11.97170355"><ele>601.0</ele><time>2026-04-25T09:46:52.454Z</time></trkpt><trkpt lat="43.31144396666667" lon="11.971750633333333"><ele>603.5714285714286</ele><time>2026-04-25T09:46:55.47Z</time></trkpt><trkpt lat="43.31151466666667" lon="11.971791416666669"><ele>606.1428571428572</ele><time>2026-04-25T09:46:58.455Z</time></trkpt><trkpt lat="43.3115971" lon="11.971826649999999"><ele>608.7142857142858</ele><time>2026-04-25T09:47:01.457Z</time></trkpt><trkpt lat="43.31166316666666" lon="11.971853266666669"><ele>611.2857142857142</ele><time>2026-04-25T09:47:04.484Z</time></trkpt><trkpt lat="43.31172358333334" lon="11.971897616666666"><ele>613.8571428571429</ele><time>2026-04-25T09:47:07.47Z</time></trkpt><trkpt lat="43.31178239999999" lon="11.971951333333333"><ele>616.4285714285714</ele><time>2026-04-25T09:47:11.577Z</time></trkpt><trkpt lat="43.31183783333333" lon="11.971995283333335"><ele>619.0</ele><time>2026-04-25T09:47:15.604Z</time></trkpt><trkpt lat="43.31188683333333" lon="11.97206315"><ele>619.0</ele><time>2026-04-25T09:47:18.585Z</time></trkpt><trkpt lat="43.31193116666667" lon="11.972125149999998"><ele>619.0</ele><time>2026-04-25T09:47:21.602Z</time></trkpt><trkpt lat="43.31198221666667" lon="11.97218465"><ele>619.0</ele><time>2026-04-25T09:47:24.61Z</time></trkpt><trkpt lat="43.312033333333325" lon="11.972239533333335"><ele>619.0</ele><time>2026-04-25T09:47:27.595Z</time></trkpt><trkpt lat="43.31208166666667" lon="11.972301666666665"><ele>619.0</ele><time>2026-04-25T09:47:30.614Z</time></trkpt><trkpt lat="43.31214786666666" lon="11.972370333333332"><ele>619.0</ele><time>2026-04-25T09:47:34.621Z</time></trkpt><trkpt lat="43.31219926666665" lon="11.972431049999999"><ele>619.0</ele><time>2026-04-25T09:47:37.614Z</time></trkpt><trkpt lat="43.31225611666667" lon="11.972474166666666"><ele>617.8333333333334</ele><time>2026-04-25T09:47:40.625Z</time></trkpt><trkpt lat="43.31232801666667" lon="11.972506816666664"><ele>616.6666666666667</ele><time>2026-04-25T09:47:43.63Z</time></trkpt><trkpt lat="43.312388283333334" lon="11.97254738333333"><ele>615.5</ele><time>2026-04-25T09:47:46.645Z</time></trkpt><trkpt lat="43.31245863333333" lon="11.972612233333331"><ele>614.3333333333334</ele><time>2026-04-25T09:47:50.636Z</time></trkpt><trkpt lat="43.31253616666666" lon="11.972627683333334"><ele>613.1666666666666</ele><time>2026-04-25T09:47:53.645Z</time></trkpt><trkpt lat="43.312613799999994" lon="11.972633716666666"><ele>612.0</ele><time>2026-04-25T09:47:56.66Z</time></trkpt><trkpt lat="43.312687183333345" lon="11.972640733333334"><ele>612.0</ele><time>2026-04-25T09:48:00.65Z</time></trkpt><trkpt lat="43.312752" lon="11.972632216666668"><ele>612.0</ele><time>2026-04-25T09:48:03.66Z</time></trkpt><trkpt lat="43.3128116" lon="11.972599199999998"><ele>612.0</ele><time>2026-04-25T09:48:06.654Z</time></trkpt><trkpt lat="43.312861850000004" lon="11.972505799999999"><ele>612.0</ele><time>2026-04-25T09:48:09.66Z</time></trkpt><trkpt lat="43.31290376666667" lon="11.972427516666668"><ele>612.0</ele><time>2026-04-25T09:48:12.673Z</time></trkpt><trkpt lat="43.31295991666666" lon="11.972328200000002"><ele>612.0</ele><time>2026-04-25T09:48:16.687Z</time></trkpt><trkpt lat="43.31301506666667" lon="11.9722857"><ele>612.0</ele><time>2026-04-25T09:48:18.678Z</time></trkpt><trkpt lat="43.31307451666667" lon="11.972211866666665"><ele>613.5714285714286</ele><time>2026-04-25T09:48:21.68Z</time></trkpt><trkpt lat="43.31312258333334" lon="11.972145466666666"><ele>615.1428571428571</ele><time>2026-04-25T09:48:24.695Z</time></trkpt><trkpt lat="43.31315876666666" lon="11.9720541"><ele>616.7142857142858</ele><time>2026-04-25T09:48:28.689Z</time></trkpt><trkpt lat="43.31318361666666" lon="11.971959783333334"><ele>618.2857142857142</ele><time>2026-04-25T09:48:32.7Z</time></trkpt><trkpt lat="43.313238266666666" lon="11.972015066666666"><ele>619.8571428571429</ele><time>2026-04-25T09:48:41.71Z</time></trkpt><trkpt lat="43.31326991666666" lon="11.972103799999998"><ele>621.4285714285714</ele><time>2026-04-25T09:48:46.709Z</time></trkpt><trkpt lat="43.31331151666666" lon="11.972174216666668"><ele>623.0</ele><time>2026-04-25T09:48:50.725Z</time></trkpt><trkpt lat="43.31338484999999" lon="11.97220573333333"><ele>623.0</ele><time>2026-04-25T09:48:54.735Z</time></trkpt><trkpt lat="43.31346025" lon="11.972200466666667"><ele>623.0</ele><time>2026-04-25T09:48:58.73Z</time></trkpt><trkpt lat="43.31353615" lon="11.972207099999999"><ele>623.0</ele><time>2026-04-25T09:49:02.739Z</time></trkpt><trkpt lat="43.313604133333335" lon="11.972242349999998"><ele>623.0</ele><time>2026-04-25T09:49:06.738Z</time></trkpt><trkpt lat="43.31361530000001" lon="11.972334516666667"><ele>623.0</ele><time>2026-04-25T09:49:10.778Z</time></trkpt><trkpt lat="43.31356219999999" lon="11.97241005"><ele>623.0</ele><time>2026-04-25T09:49:14.765Z</time></trkpt><trkpt lat="43.31351558333334" lon="11.97250665"><ele>626.1666666666666</ele><time>2026-04-25T09:49:18.763Z</time></trkpt><trkpt lat="43.31346915" lon="11.972581849999997"><ele>629.3333333333333</ele><time>2026-04-25T09:49:22.774Z</time></trkpt><trkpt lat="43.31346369999999" lon="11.972678166666666"><ele>632.5</ele><time>2026-04-25T09:49:26.789Z</time></trkpt><trkpt lat="43.313498200000005" lon="11.972751183333331"><ele>635.6666666666666</ele><time>2026-04-25T09:49:30.78Z</time></trkpt><trkpt lat="43.313643533333334" lon="11.972768366666665"><ele>638.8333333333334</ele><time>2026-04-25T09:49:40.79Z</time></trkpt><trkpt lat="43.31370263333333" lon="11.972699766666665"><ele>642.0</ele><time>2026-04-25T09:49:44.808Z</time></trkpt><trkpt lat="43.313728449999985" lon="11.972617116666667"><ele>641.9999999999999</ele><time>2026-04-25T09:49:48.799Z</time></trkpt><trkpt lat="43.313760800000004" lon="11.972529633333332"><ele>642.0</ele><time>2026-04-25T09:49:52.81Z</time></trkpt><trkpt lat="43.31379236666667" lon="11.972443333333334"><ele>642.0</ele><time>2026-04-25T09:49:56.815Z</time></trkpt><trkpt lat="43.31384083333334" lon="11.972359733333334"><ele>642.0</ele><time>2026-04-25T09:50:00.82Z</time></trkpt><trkpt lat="43.31388881666667" lon="11.972289716666667"><ele>642.0</ele><time>2026-04-25T09:50:03.83Z</time></trkpt><trkpt lat="43.313936983333335" lon="11.972227033333334"><ele>641.9999999999999</ele><time>2026-04-25T09:50:07.848Z</time></trkpt><trkpt lat="43.31397958333334" lon="11.972143200000001"><ele>642.0</ele><time>2026-04-25T09:50:14.837Z</time></trkpt><trkpt lat="43.31401636666666" lon="11.972063883333332"><ele>641.9999999999999</ele><time>2026-04-25T09:50:19.856Z</time></trkpt><trkpt lat="43.31400921666666" lon="11.971964016666668"><ele>642.0</ele><time>2026-04-25T09:50:25.868Z</time></trkpt><trkpt lat="43.313960716666664" lon="11.971908383333334"><ele>642.0</ele><time>2026-04-25T09:50:29.861Z</time></trkpt><trkpt lat="43.31391345" lon="11.971845533333331"><ele>642.0</ele><time>2026-04-25T09:50:33.868Z</time></trkpt><trkpt lat="43.31391703333334" lon="11.9717539"><ele>642.0</ele><time>2026-04-25T09:50:37.89Z</time></trkpt><trkpt lat="43.313976233333335" lon="11.97169285"><ele>641.9999999999999</ele><time>2026-04-25T09:50:41.882Z</time></trkpt><trkpt lat="43.31404138333334" lon="11.971644116666669"><ele>642.0</ele><time>2026-04-25T09:50:45.896Z</time></trkpt><trkpt lat="43.314107316666664" lon="11.971624433333334"><ele>641.2857142857142</ele><time>2026-04-25T09:50:49.907Z</time></trkpt><trkpt lat="43.31417046666667" lon="11.971611600000003"><ele>640.5714285714286</ele><time>2026-04-25T09:50:52.918Z</time></trkpt><trkpt lat="43.31423338333334" lon="11.97160665"><ele>639.8571428571429</ele><time>2026-04-25T09:50:56.914Z</time></trkpt><trkpt lat="43.31430579999999" lon="11.971573816666668"><ele>639.1428571428571</ele><time>2026-04-25T09:51:01.907Z</time></trkpt><trkpt lat="43.31437908333334" lon="11.971550133333334"><ele>638.4285714285714</ele><time>2026-04-25T09:51:06.923Z</time></trkpt><trkpt lat="43.31444515" lon="11.971539700000003"><ele>637.7142857142857</ele><time>2026-04-25T09:51:10.939Z</time></trkpt><trkpt lat="43.314514466666665" lon="11.971525999999999"><ele>637.0</ele><time>2026-04-25T09:51:15.954Z</time></trkpt><trkpt lat="43.31459466666667" lon="11.971520816666668"><ele>637.0</ele><time>2026-04-25T09:51:22.963Z</time></trkpt><trkpt lat="43.31465703333333" lon="11.971542399999999"><ele>637.0</ele><time>2026-04-25T09:51:30.974Z</time></trkpt><trkpt lat="43.314760516666674" lon="11.971619083333334"><ele>637.0</ele><time>2026-04-25T09:51:46.988Z</time></trkpt><trkpt lat="43.31482973333333" lon="11.971631416666666"><ele>637.0</ele><time>2026-04-25T09:51:53.988Z</time></trkpt><trkpt lat="43.314906400000005" lon="11.971640083333334"><ele>637.0</ele><time>2026-04-25T09:52:01.016Z</time></trkpt><trkpt lat="43.31496693333334" lon="11.971673683333332"><ele>637.0</ele><time>2026-04-25T09:52:05.013Z</time></trkpt><trkpt lat="43.31503001666667" lon="11.971683866666668"><ele>640.5714285714286</ele><time>2026-04-25T09:52:09.024Z</time></trkpt><trkpt lat="43.31509233333333" lon="11.971731066666667"><ele>644.1428571428571</ele><time>2026-04-25T09:52:13.039Z</time></trkpt><trkpt lat="43.315163133333336" lon="11.9717671"><ele>647.7142857142858</ele><time>2026-04-25T09:52:17.03Z</time></trkpt><trkpt lat="43.315228533333325" lon="11.9718302"><ele>651.2857142857142</ele><time>2026-04-25T09:52:21.046Z</time></trkpt><trkpt lat="43.31529143333334" lon="11.971898549999999"><ele>654.8571428571429</ele><time>2026-04-25T09:52:25.031Z</time></trkpt><trkpt lat="43.31534481666666" lon="11.971955333333336"><ele>658.4285714285714</ele><time>2026-04-25T09:52:28.056Z</time></trkpt><trkpt lat="43.315404916666665" lon="11.972003449999999"><ele>662.0</ele><time>2026-04-25T09:52:31.058Z</time></trkpt><trkpt lat="43.31546651666666" lon="11.972077966666665"><ele>662.0</ele><time>2026-04-25T09:52:34.064Z</time></trkpt><trkpt lat="43.31552185" lon="11.972135199999999"><ele>662.0</ele><time>2026-04-25T09:52:37.057Z</time></trkpt><trkpt lat="43.3155793" lon="11.97220105"><ele>662.0</ele><time>2026-04-25T09:52:40.066Z</time></trkpt><trkpt lat="43.315639149999996" lon="11.972264083333334"><ele>662.0</ele><time>2026-04-25T09:52:43.075Z</time></trkpt><trkpt lat="43.31569455" lon="11.972333716666666"><ele>662.0</ele><time>2026-04-25T09:52:46.068Z</time></trkpt><trkpt lat="43.315737850000005" lon="11.97239705"><ele>662.0</ele><time>2026-04-25T09:52:49.075Z</time></trkpt><trkpt lat="43.31578384999999" lon="11.972492733333334"><ele>662.0</ele><time>2026-04-25T09:52:53.093Z</time></trkpt><trkpt lat="43.31582328333334" lon="11.972566083333334"><ele>665.0</ele><time>2026-04-25T09:52:56.084Z</time></trkpt><trkpt lat="43.31585741666666" lon="11.97264555"><ele>668.0</ele><time>2026-04-25T09:52:59.091Z</time></trkpt><trkpt lat="43.315898033333326" lon="11.972726866666667"><ele>671.0</ele><time>2026-04-25T09:53:02.1Z</time></trkpt><trkpt lat="43.31593653333333" lon="11.972810716666666"><ele>674.0</ele><time>2026-04-25T09:53:05.091Z</time></trkpt><trkpt lat="43.31597873333334" lon="11.972885516666667"><ele>677.0</ele><time>2026-04-25T09:53:08.109Z</time></trkpt><trkpt lat="43.31601605000001" lon="11.972966483333334"><ele>680.0</ele><time>2026-04-25T09:53:11.119Z</time></trkpt><trkpt lat="43.31606575000001" lon="11.973062350000003"><ele>683.0</ele><time>2026-04-25T09:53:15.125Z</time></trkpt><trkpt lat="43.31610896666666" lon="11.973134999999997"><ele>683.0</ele><time>2026-04-25T09:53:18.12Z</time></trkpt><trkpt lat="43.31615603333333" lon="11.97321495"><ele>683.0</ele><time>2026-04-25T09:53:21.13Z</time></trkpt><trkpt lat="43.3162097" lon="11.973283633333331"><ele>683.0</ele><time>2026-04-25T09:53:24.133Z</time></trkpt><trkpt lat="43.31626548333334" lon="11.973363933333331"><ele>683.0</ele><time>2026-04-25T09:53:27.134Z</time></trkpt><trkpt lat="43.31630413333334" lon="11.973457533333333"><ele>683.0</ele><time>2026-04-25T09:53:30.141Z</time></trkpt><trkpt lat="43.31636104999999" lon="11.973529033333334"><ele>683.0</ele><time>2026-04-25T09:53:33.176Z</time></trkpt><trkpt lat="43.31642115" lon="11.973597133333334"><ele>683.0</ele><time>2026-04-25T09:53:36.161Z</time></trkpt><trkpt lat="43.31649158333333" lon="11.973654933333334"><ele>683.0</ele><time>2026-04-25T09:53:39.15Z</time></trkpt><trkpt lat="43.316565450000006" lon="11.97372015"><ele>683.0</ele><time>2026-04-25T09:53:42.161Z</time></trkpt><trkpt lat="43.31663416666667" lon="11.973776666666666"><ele>683.0</ele><time>2026-04-25T09:53:45.175Z</time></trkpt><trkpt lat="43.31669425" lon="11.973837166666666"><ele>683.0</ele><time>2026-04-25T09:53:48.184Z</time></trkpt><trkpt lat="43.31675775" lon="11.9739038"><ele>683.0</ele><time>2026-04-25T09:53:51.171Z</time></trkpt><trkpt lat="43.31683018333334" lon="11.973969166666667"><ele>683.0</ele><time>2026-04-25T09:53:54.184Z</time></trkpt><trkpt lat="43.316891883333334" lon="11.974036366666667"><ele>683.0</ele><time>2026-04-25T09:53:57.189Z</time></trkpt><trkpt lat="43.31695423333334" lon="11.974094950000003"><ele>683.0</ele><time>2026-04-25T09:54:00.186Z</time></trkpt><trkpt lat="43.317009183333326" lon="11.974153216666664"><ele>683.0</ele><time>2026-04-25T09:54:03.194Z</time></trkpt><trkpt lat="43.31706971666667" lon="11.974215516666668"><ele>683.0</ele><time>2026-04-25T09:54:06.2Z</time></trkpt><trkpt lat="43.317128966666665" lon="11.974279149999997"><ele>683.0</ele><time>2026-04-25T09:54:09.216Z</time></trkpt><trkpt lat="43.31717785000001" lon="11.974344166666665"><ele>683.0</ele><time>2026-04-25T09:54:12.225Z</time></trkpt><trkpt lat="43.31723843333332" lon="11.974399349999999"><ele>682.0</ele><time>2026-04-25T09:54:15.21Z</time></trkpt><trkpt lat="43.31730975" lon="11.974435999999999"><ele>681.0</ele><time>2026-04-25T09:54:18.23Z</time></trkpt><trkpt lat="43.31737416666667" lon="11.974492750000003"><ele>680.0</ele><time>2026-04-25T09:54:21.239Z</time></trkpt><trkpt lat="43.31742479999999" lon="11.974563049999999"><ele>679.0</ele><time>2026-04-25T09:54:24.244Z</time></trkpt><trkpt lat="43.317482516666665" lon="11.974617299999998"><ele>678.0</ele><time>2026-04-25T09:54:27.239Z</time></trkpt><trkpt lat="43.317537333333334" lon="11.9746619"><ele>677.0</ele><time>2026-04-25T09:54:30.255Z</time></trkpt><trkpt lat="43.31757191666667" lon="11.974749316666665"><ele>676.0</ele><time>2026-04-25T09:54:34.259Z</time></trkpt><trkpt lat="43.317602733333324" lon="11.974827116666667"><ele>676.0</ele><time>2026-04-25T09:54:37.255Z</time></trkpt><trkpt lat="43.31762465" lon="11.974913816666668"><ele>676.0</ele><time>2026-04-25T09:54:41.269Z</time></trkpt><trkpt lat="43.31763656666667" lon="11.974998883333335"><ele>676.0</ele><time>2026-04-25T09:54:47.259Z</time></trkpt><trkpt lat="43.31765693333333" lon="11.975095483333332"><ele>676.0</ele><time>2026-04-25T09:54:53.286Z</time></trkpt><trkpt lat="43.31767084999999" lon="11.975193850000002"><ele>676.0</ele><time>2026-04-25T09:54:57.28Z</time></trkpt><trkpt lat="43.317676399999996" lon="11.975283850000002"><ele>676.0</ele><time>2026-04-25T09:55:01.289Z</time></trkpt><trkpt lat="43.317682133333335" lon="11.975374949999999"><ele>676.0</ele><time>2026-04-25T09:55:05.294Z</time></trkpt><trkpt lat="43.3177071" lon="11.975483166666667"><ele>678.8571428571429</ele><time>2026-04-25T09:55:09.301Z</time></trkpt><trkpt lat="43.31772373333333" lon="11.975576566666666"><ele>681.7142857142857</ele><time>2026-04-25T09:55:13.317Z</time></trkpt><trkpt lat="43.31771848333332" lon="11.97566426666667"><ele>684.5714285714286</ele><time>2026-04-25T09:55:24.339Z</time></trkpt><trkpt lat="43.31772016666667" lon="11.975759566666667"><ele>687.4285714285714</ele><time>2026-04-25T09:55:27.35Z</time></trkpt><trkpt lat="43.31772186666667" lon="11.975855516666664"><ele>690.2857142857143</ele><time>2026-04-25T09:55:30.334Z</time></trkpt><trkpt lat="43.317712150000006" lon="11.975949649999999"><ele>693.1428571428571</ele><time>2026-04-25T09:55:33.339Z</time></trkpt><trkpt lat="43.31771103333334" lon="11.97604008333333"><ele>696.0</ele><time>2026-04-25T09:55:36.34Z</time></trkpt><trkpt lat="43.317719133333334" lon="11.976141183333334"><ele>697.8571428571429</ele><time>2026-04-25T09:55:40.351Z</time></trkpt><trkpt lat="43.3177331" lon="11.976238333333333"><ele>699.7142857142858</ele><time>2026-04-25T09:55:45.366Z</time></trkpt><trkpt lat="43.31771996666666" lon="11.976338400000003"><ele>701.5714285714287</ele><time>2026-04-25T09:55:51.369Z</time></trkpt><trkpt lat="43.317722733333326" lon="11.976427966666666"><ele>703.4285714285714</ele><time>2026-04-25T09:55:56.38Z</time></trkpt><trkpt lat="43.31770531666666" lon="11.976524466666667"><ele>705.2857142857143</ele><time>2026-04-25T09:56:02.388Z</time></trkpt><trkpt lat="43.31768995000001" lon="11.976623183333334"><ele>707.1428571428572</ele><time>2026-04-25T09:56:07.406Z</time></trkpt><trkpt lat="43.31767036666667" lon="11.976720283333336"><ele>709.0</ele><time>2026-04-25T09:56:12.401Z</time></trkpt><trkpt lat="43.31766713333333" lon="11.97680675"><ele>710.8571428571429</ele><time>2026-04-25T09:56:16.412Z</time></trkpt><trkpt lat="43.31768378333332" lon="11.976892516666664"><ele>712.7142857142858</ele><time>2026-04-25T09:56:20.426Z</time></trkpt><trkpt lat="43.317701983333336" lon="11.976985083333334"><ele>714.5714285714287</ele><time>2026-04-25T09:56:25.426Z</time></trkpt><trkpt lat="43.31772049999999" lon="11.977083533333332"><ele>716.4285714285714</ele><time>2026-04-25T09:56:30.444Z</time></trkpt><trkpt lat="43.317765433333335" lon="11.977144833333334"><ele>718.2857142857142</ele><time>2026-04-25T09:56:34.451Z</time></trkpt><trkpt lat="43.3178092" lon="11.977210666666668"><ele>720.1428571428572</ele><time>2026-04-25T09:56:37.457Z</time></trkpt><trkpt lat="43.31784723333334" lon="11.9772871"><ele>722.0</ele><time>2026-04-25T09:56:40.459Z</time></trkpt><trkpt lat="43.3178883" lon="11.97738185"><ele>722.0</ele><time>2026-04-25T09:56:43.469Z</time></trkpt><trkpt lat="43.31792431666666" lon="11.977471116666667"><ele>722.0</ele><time>2026-04-25T09:56:46.46Z</time></trkpt><trkpt lat="43.317968533333335" lon="11.9775544"><ele>722.0</ele><time>2026-04-25T09:56:49.467Z</time></trkpt><trkpt lat="43.31802461666666" lon="11.977646466666664"><ele>722.0</ele><time>2026-04-25T09:56:53.462Z</time></trkpt><trkpt lat="43.31807953333333" lon="11.977719166666668"><ele>722.0</ele><time>2026-04-25T09:56:56.464Z</time></trkpt><trkpt lat="43.31812329999999" lon="11.97779631666667"><ele>722.0</ele><time>2026-04-25T09:57:00.486Z</time></trkpt><trkpt lat="43.31813950000001" lon="11.977892766666667"><ele>719.5714285714286</ele><time>2026-04-25T09:57:06.485Z</time></trkpt><trkpt lat="43.31814346666667" lon="11.977982133333335"><ele>717.1428571428571</ele><time>2026-04-25T09:57:14.511Z</time></trkpt><trkpt lat="43.318131316666665" lon="11.978072433333333"><ele>714.7142857142857</ele><time>2026-04-25T09:57:23.501Z</time></trkpt><trkpt lat="43.318143583333324" lon="11.978158250000002"><ele>712.2857142857142</ele><time>2026-04-25T09:57:31.512Z</time></trkpt><trkpt lat="43.31812839999999" lon="11.978260733333332"><ele>709.8571428571429</ele><time>2026-04-25T09:57:39.537Z</time></trkpt><trkpt lat="43.31809369999999" lon="11.978356483333334"><ele>707.4285714285713</ele><time>2026-04-25T09:57:44.535Z</time></trkpt><trkpt lat="43.31806151666667" lon="11.978457500000003"><ele>705.0</ele><time>2026-04-25T09:57:49.559Z</time></trkpt><trkpt lat="43.318043933333335" lon="11.978559883333332"><ele>711.1428571428571</ele><time>2026-04-25T09:57:53.541Z</time></trkpt><trkpt lat="43.31803918333333" lon="11.978661233333332"><ele>717.2857142857142</ele><time>2026-04-25T09:57:56.551Z</time></trkpt><trkpt lat="43.31804788333334" lon="11.978757666666668"><ele>723.4285714285713</ele><time>2026-04-25T09:57:59.567Z</time></trkpt><trkpt lat="43.31802904999999" lon="11.978867549999999"><ele>729.5714285714286</ele><time>2026-04-25T09:58:03.559Z</time></trkpt><trkpt lat="43.318001933333335" lon="11.978948733333333"><ele>735.7142857142858</ele><time>2026-04-25T09:58:07.576Z</time></trkpt><trkpt lat="43.31798886666667" lon="11.979036066666668"><ele>741.8571428571428</ele><time>2026-04-25T09:58:13.582Z</time></trkpt><trkpt lat="43.318005283333335" lon="11.979119966666666"><ele>748.0</ele><time>2026-04-25T09:58:20.576Z</time></trkpt><trkpt lat="43.318030383333344" lon="11.97920955"><ele>744.7142857142857</ele><time>2026-04-25T09:58:28.601Z</time></trkpt><trkpt lat="43.31807310000001" lon="11.979288250000003"><ele>741.4285714285714</ele><time>2026-04-25T09:58:36.614Z</time></trkpt><trkpt lat="43.3181298" lon="11.979346249999999"><ele>738.1428571428571</ele><time>2026-04-25T09:58:43.611Z</time></trkpt><trkpt lat="43.318181583333335" lon="11.979414366666667"><ele>734.8571428571429</ele><time>2026-04-25T09:58:47.631Z</time></trkpt><trkpt lat="43.31822205" lon="11.979504383333335"><ele>731.5714285714287</ele><time>2026-04-25T09:58:51.616Z</time></trkpt><trkpt lat="43.31825025" lon="11.979604683333331"><ele>728.2857142857143</ele><time>2026-04-25T09:58:55.64Z</time></trkpt><trkpt lat="43.318282" lon="11.979697566666667"><ele>725.0</ele><time>2026-04-25T09:58:59.628Z</time></trkpt><trkpt lat="43.31830473333333" lon="11.979788316666669"><ele>725.0</ele><time>2026-04-25T09:59:03.642Z</time></trkpt><trkpt lat="43.31832636666666" lon="11.979877516666667"><ele>725.0</ele><time>2026-04-25T09:59:08.662Z</time></trkpt><trkpt lat="43.318347133333326" lon="11.979975316666666"><ele>725.0</ele><time>2026-04-25T09:59:13.658Z</time></trkpt><trkpt lat="43.31836805" lon="11.98006015"><ele>725.0</ele><time>2026-04-25T09:59:17.673Z</time></trkpt><trkpt lat="43.31841896666666" lon="11.980148249999997"><ele>725.0</ele><time>2026-04-25T09:59:21.662Z</time></trkpt><trkpt lat="43.318453333333345" lon="11.980230700000002"><ele>725.0</ele><time>2026-04-25T09:59:24.676Z</time></trkpt><trkpt lat="43.31847821666667" lon="11.980313550000002"><ele>725.0</ele><time>2026-04-25T09:59:27.681Z</time></trkpt><trkpt lat="43.31850066666666" lon="11.98042345"><ele>727.2857142857143</ele><time>2026-04-25T09:59:31.677Z</time></trkpt><trkpt lat="43.31850513333333" lon="11.980520916666666"><ele>729.5714285714287</ele><time>2026-04-25T09:59:35.699Z</time></trkpt><trkpt lat="43.31850186666667" lon="11.980609233333334"><ele>731.8571428571429</ele><time>2026-04-25T09:59:47.715Z</time></trkpt><trkpt lat="43.318555516666656" lon="11.98066065"><ele>734.1428571428571</ele><time>2026-04-25T09:59:50.698Z</time></trkpt><trkpt lat="43.31858611666667" lon="11.980748000000002"><ele>736.4285714285714</ele><time>2026-04-25T09:59:53.716Z</time></trkpt><trkpt lat="43.318617366666665" lon="11.980844500000002"><ele>738.7142857142857</ele><time>2026-04-25T09:59:56.725Z</time></trkpt><trkpt lat="43.31866051666666" lon="11.980926516666667"><ele>741.0</ele><time>2026-04-25T09:59:59.738Z</time></trkpt><trkpt lat="43.31871188333333" lon="11.981006166666669"><ele>741.0</ele><time>2026-04-25T10:00:02.723Z</time></trkpt><trkpt lat="43.31875921666666" lon="11.981082483333333"><ele>741.0</ele><time>2026-04-25T10:00:05.738Z</time></trkpt><trkpt lat="43.31880866666667" lon="11.981161266666668"><ele>741.0</ele><time>2026-04-25T10:00:08.726Z</time></trkpt><trkpt lat="43.31884828333333" lon="11.981241699999998"><ele>741.0</ele><time>2026-04-25T10:00:10.733Z</time></trkpt><trkpt lat="43.3189097" lon="11.981323999999999"><ele>741.0</ele><time>2026-04-25T10:00:13.738Z</time></trkpt><trkpt lat="43.318980200000006" lon="11.9813713"><ele>741.0</ele><time>2026-04-25T10:00:16.733Z</time></trkpt><trkpt lat="43.31905426666667" lon="11.981370299999998"><ele>741.0</ele><time>2026-04-25T10:00:19.738Z</time></trkpt><trkpt lat="43.31912654999999" lon="11.981351949999997"><ele>741.0</ele><time>2026-04-25T10:00:22.777Z</time></trkpt><trkpt lat="43.31935383333333" lon="11.981343983333334"><ele>741.0</ele><time>2026-04-25T10:00:31.776Z</time></trkpt><trkpt lat="43.319457549999996" lon="11.981351983333331"><ele>741.0</ele><time>2026-04-25T10:00:36.782Z</time></trkpt><trkpt lat="43.31953828333334" lon="11.9813625"><ele>741.0</ele><time>2026-04-25T10:00:40.773Z</time></trkpt><trkpt lat="43.31961096666667" lon="11.981371549999997"><ele>741.0</ele><time>2026-04-25T10:00:44.788Z</time></trkpt><trkpt lat="43.3196837" lon="11.981347750000003"><ele>741.0</ele><time>2026-04-25T10:00:47.8Z</time></trkpt><trkpt lat="43.319753216666676" lon="11.981311983333335"><ele>741.0</ele><time>2026-04-25T10:00:50.788Z</time></trkpt><trkpt lat="43.31982921666666" lon="11.98128325"><ele>741.0</ele><time>2026-04-25T10:00:53.788Z</time></trkpt><trkpt lat="43.3198989" lon="11.981269550000002"><ele>741.0</ele><time>2026-04-25T10:00:56.808Z</time></trkpt><trkpt lat="43.320042783333335" lon="11.981253266666664"><ele>742.3333333333334</ele><time>2026-04-25T10:01:02.808Z</time></trkpt><trkpt lat="43.32013093333333" lon="11.9812309"><ele>743.6666666666666</ele><time>2026-04-25T10:01:05.818Z</time></trkpt><trkpt lat="43.320276150000005" lon="11.98123071666667"><ele>745.0</ele><time>2026-04-25T10:01:10.82Z</time></trkpt><trkpt lat="43.320337733333325" lon="11.981208250000002"><ele>746.3333333333333</ele><time>2026-04-25T10:01:12.828Z</time></trkpt><trkpt lat="43.32039641666667" lon="11.981174683333332"><ele>747.6666666666666</ele><time>2026-04-25T10:01:14.825Z</time></trkpt><trkpt lat="43.32046901666666" lon="11.98111405"><ele>749.0</ele><time>2026-04-25T10:01:17.843Z</time></trkpt><trkpt lat="43.320539350000004" lon="11.98104925"><ele>749.0</ele><time>2026-04-25T10:01:20.833Z</time></trkpt><trkpt lat="43.32061121666667" lon="11.980972683333334"><ele>749.0</ele><time>2026-04-25T10:01:23.84Z</time></trkpt><trkpt lat="43.32068336666666" lon="11.980897599999999"><ele>749.0</ele><time>2026-04-25T10:01:26.833Z</time></trkpt><trkpt lat="43.320758" lon="11.980833866666668"><ele>749.0</ele><time>2026-04-25T10:01:29.841Z</time></trkpt><trkpt lat="43.32083303333334" lon="11.9807776"><ele>749.0</ele><time>2026-04-25T10:01:32.846Z</time></trkpt><trkpt lat="43.32091073333333" lon="11.98075585"><ele>749.0</ele><time>2026-04-25T10:01:35.863Z</time></trkpt><trkpt lat="43.32098163333333" lon="11.980774466666666"><ele>749.0</ele><time>2026-04-25T10:01:38.873Z</time></trkpt><trkpt lat="43.32103918333334" lon="11.980839566666669"><ele>749.0</ele><time>2026-04-25T10:01:41.858Z</time></trkpt><trkpt lat="43.32111273333333" lon="11.980905533333335"><ele>749.0</ele><time>2026-04-25T10:01:45.872Z</time></trkpt><trkpt lat="43.321171783333334" lon="11.980969983333333"><ele>749.0</ele><time>2026-04-25T10:01:48.888Z</time></trkpt><trkpt lat="43.321240599999996" lon="11.981023966666665"><ele>749.0</ele><time>2026-04-25T10:01:51.872Z</time></trkpt><trkpt lat="43.321306783333334" lon="11.981072516666666"><ele>749.0</ele><time>2026-04-25T10:01:54.883Z</time></trkpt><trkpt lat="43.321374500000005" lon="11.981124683333334"><ele>746.1666666666666</ele><time>2026-04-25T10:01:57.898Z</time></trkpt><trkpt lat="43.32144985" lon="11.9811931"><ele>743.3333333333333</ele><time>2026-04-25T10:02:00.883Z</time></trkpt><trkpt lat="43.32152583333333" lon="11.981267849999998"><ele>740.5</ele><time>2026-04-25T10:02:03.898Z</time></trkpt><trkpt lat="43.3215908" lon="11.981342883333332"><ele>737.6666666666666</ele><time>2026-04-25T10:02:06.908Z</time></trkpt><trkpt lat="43.321652766666666" lon="11.981429166666667"><ele>734.8333333333334</ele><time>2026-04-25T10:02:09.895Z</time></trkpt><trkpt lat="43.32170411666666" lon="11.981517733333332"><ele>732.0</ele><time>2026-04-25T10:02:12.908Z</time></trkpt><trkpt lat="43.321743466666675" lon="11.981606533333334"><ele>732.0</ele><time>2026-04-25T10:02:15.918Z</time></trkpt><trkpt lat="43.321802283333334" lon="11.98167825"><ele>732.0</ele><time>2026-04-25T10:02:18.927Z</time></trkpt><trkpt lat="43.32185085" lon="11.981768583333334"><ele>732.0</ele><time>2026-04-25T10:02:21.918Z</time></trkpt><trkpt lat="43.32190146666667" lon="11.981844066666667"><ele>732.0</ele><time>2026-04-25T10:02:24.933Z</time></trkpt><trkpt lat="43.321955366666664" lon="11.981929050000002"><ele>732.0</ele><time>2026-04-25T10:02:27.938Z</time></trkpt><trkpt lat="43.32201335" lon="11.981994850000001"><ele>732.0</ele><time>2026-04-25T10:02:30.928Z</time></trkpt><trkpt lat="43.3220905" lon="11.982051083333333"><ele>730.8333333333334</ele><time>2026-04-25T10:02:33.938Z</time></trkpt><trkpt lat="43.322167683333326" lon="11.9820878"><ele>729.6666666666666</ele><time>2026-04-25T10:02:36.948Z</time></trkpt><trkpt lat="43.322249166666666" lon="11.982124766666667"><ele>728.5</ele><time>2026-04-25T10:02:39.942Z</time></trkpt><trkpt lat="43.32232763333334" lon="11.982159750000001"><ele>727.3333333333333</ele><time>2026-04-25T10:02:42.951Z</time></trkpt><trkpt lat="43.32239976666666" lon="11.982209350000002"><ele>726.1666666666666</ele><time>2026-04-25T10:02:45.967Z</time></trkpt><trkpt lat="43.32246786666666" lon="11.982286616666666"><ele>725.0</ele><time>2026-04-25T10:02:48.958Z</time></trkpt><trkpt lat="43.3225253" lon="11.982374216666665"><ele>725.0</ele><time>2026-04-25T10:02:51.958Z</time></trkpt><trkpt lat="43.322586083333334" lon="11.982462266666667"><ele>725.0</ele><time>2026-04-25T10:02:54.975Z</time></trkpt><trkpt lat="43.32262636666666" lon="11.982542699999998"><ele>725.0</ele><time>2026-04-25T10:02:56.978Z</time></trkpt><trkpt lat="43.32268098333334" lon="11.982637666666669"><ele>725.0</ele><time>2026-04-25T10:02:59.971Z</time></trkpt><trkpt lat="43.322750116666676" lon="11.98270963333333"><ele>725.0</ele><time>2026-04-25T10:03:02.984Z</time></trkpt><trkpt lat="43.32282348333333" lon="11.982770116666666"><ele>725.0</ele><time>2026-04-25T10:03:05.991Z</time></trkpt><trkpt lat="43.322896300000004" lon="11.982831500000001"><ele>723.8333333333333</ele><time>2026-04-25T10:03:09Z</time></trkpt><trkpt lat="43.322963783333336" lon="11.982897333333336"><ele>722.6666666666666</ele><time>2026-04-25T10:03:11.988Z</time></trkpt><trkpt lat="43.32303265000001" lon="11.982967583333334"><ele>721.5</ele><time>2026-04-25T10:03:15.001Z</time></trkpt><trkpt lat="43.32308131666667" lon="11.9830524"><ele>720.3333333333334</ele><time>2026-04-25T10:03:18.008Z</time></trkpt><trkpt lat="43.32313353333333" lon="11.983136416666666"><ele>719.1666666666667</ele><time>2026-04-25T10:03:21.002Z</time></trkpt><trkpt lat="43.323184049999995" lon="11.98323025"><ele>718.0</ele><time>2026-04-25T10:03:24.113Z</time></trkpt><trkpt lat="43.32322606666667" lon="11.983338649999999"><ele>718.5</ele><time>2026-04-25T10:03:27.108Z</time></trkpt><trkpt lat="43.323271000000005" lon="11.983436716666665"><ele>719.0</ele><time>2026-04-25T10:03:30.111Z</time></trkpt><trkpt lat="43.32331113333333" lon="11.983536316666669"><ele>719.5</ele><time>2026-04-25T10:03:33.121Z</time></trkpt><trkpt lat="43.32335293333334" lon="11.983630750000001"><ele>720.0</ele><time>2026-04-25T10:03:36.141Z</time></trkpt><trkpt lat="43.323394066666665" lon="11.983721766666669"><ele>720.5</ele><time>2026-04-25T10:03:39.143Z</time></trkpt><trkpt lat="43.32343246666666" lon="11.9838178"><ele>721.0</ele><time>2026-04-25T10:03:42.127Z</time></trkpt><trkpt lat="43.32347208333334" lon="11.983900766666666"><ele>721.0</ele><time>2026-04-25T10:03:45.143Z</time></trkpt><trkpt lat="43.32351499999999" lon="11.983986033333332"><ele>721.0</ele><time>2026-04-25T10:03:48.133Z</time></trkpt><trkpt lat="43.32355658333333" lon="11.984063516666668"><ele>721.0</ele><time>2026-04-25T10:03:51.149Z</time></trkpt><trkpt lat="43.32352486666667" lon="11.98414295"><ele>721.0</ele><time>2026-04-25T10:03:54.153Z</time></trkpt><trkpt lat="43.323442199999995" lon="11.984148733333331"><ele>721.0</ele><time>2026-04-25T10:03:58.168Z</time></trkpt><trkpt lat="43.32337290000001" lon="11.984112183333332"><ele>721.0</ele><time>2026-04-25T10:04:01.161Z</time></trkpt><trkpt lat="43.323304166666674" lon="11.984064816666667"><ele>721.0</ele><time>2026-04-25T10:04:04.168Z</time></trkpt><trkpt lat="43.32323193333333" lon="11.9840241"><ele>721.0</ele><time>2026-04-25T10:04:07.183Z</time></trkpt><trkpt lat="43.32316878333333" lon="11.984006733333336"><ele>721.0</ele><time>2026-04-25T10:04:10.167Z</time></trkpt><trkpt lat="43.32310411666667" lon="11.983996549999999"><ele>721.0</ele><time>2026-04-25T10:04:13.178Z</time></trkpt><trkpt lat="43.32303711666667" lon="11.983993533333333"><ele>721.0</ele><time>2026-04-25T10:04:16.191Z</time></trkpt><trkpt lat="43.322959899999994" lon="11.983972116666665"><ele>721.0</ele><time>2026-04-25T10:04:20.183Z</time></trkpt><trkpt lat="43.3230368" lon="11.983998833333333"><ele>721.0</ele><time>2026-04-25T10:04:28.192Z</time></trkpt><trkpt lat="43.32311456666666" lon="11.984010999999997"><ele>721.0</ele><time>2026-04-25T10:04:31.205Z</time></trkpt><trkpt lat="43.32319241666668" lon="11.984024883333332"><ele>721.0</ele><time>2026-04-25T10:04:34.213Z</time></trkpt><trkpt lat="43.323268383333335" lon="11.984048366666666"><ele>721.0</ele><time>2026-04-25T10:04:37.202Z</time></trkpt><trkpt lat="43.32333418333333" lon="11.9841024"><ele>721.0</ele><time>2026-04-25T10:04:40.208Z</time></trkpt><trkpt lat="43.323399249999994" lon="11.984146333333333"><ele>721.0</ele><time>2026-04-25T10:04:43.223Z</time></trkpt><trkpt lat="43.32348305" lon="11.984164649999999"><ele>721.0</ele><time>2026-04-25T10:04:47.241Z</time></trkpt><trkpt lat="43.32355823333334" lon="11.984133249999998"><ele>721.0</ele><time>2026-04-25T10:04:50.226Z</time></trkpt><trkpt lat="43.3236275" lon="11.984093816666666"><ele>721.0</ele><time>2026-04-25T10:04:53.238Z</time></trkpt><trkpt lat="43.32369273333333" lon="11.984047883333334"><ele>721.0</ele><time>2026-04-25T10:04:57.248Z</time></trkpt><trkpt lat="43.32376219999999" lon="11.984038433333335"><ele>721.0</ele><time>2026-04-25T10:05:01.238Z</time></trkpt><trkpt lat="43.323828333333324" lon="11.983984749999998"><ele>721.0</ele><time>2026-04-25T10:05:05.258Z</time></trkpt><trkpt lat="43.323884833333345" lon="11.983935716666668"><ele>721.0</ele><time>2026-04-25T10:05:08.268Z</time></trkpt><trkpt lat="43.32395378333334" lon="11.983906183333334"><ele>721.0</ele><time>2026-04-25T10:05:11.258Z</time></trkpt><trkpt lat="43.32402766666668" lon="11.983909166666669"><ele>721.0</ele><time>2026-04-25T10:05:14.271Z</time></trkpt><trkpt lat="43.32410284999999" lon="11.983926049999999"><ele>719.6666666666667</ele><time>2026-04-25T10:05:17.283Z</time></trkpt><trkpt lat="43.32417843333332" lon="11.983959200000001"><ele>718.3333333333334</ele><time>2026-04-25T10:05:20.267Z</time></trkpt><trkpt lat="43.324257766666676" lon="11.983986233333335"><ele>717.0</ele><time>2026-04-25T10:05:23.274Z</time></trkpt><trkpt lat="43.32433138333334" lon="11.984000466666666"><ele>715.6666666666666</ele><time>2026-04-25T10:05:26.288Z</time></trkpt><trkpt lat="43.324400266666665" lon="11.984034783333334"><ele>714.3333333333333</ele><time>2026-04-25T10:05:29.301Z</time></trkpt><trkpt lat="43.32446683333333" lon="11.984071649999999"><ele>713.0</ele><time>2026-04-25T10:05:32.293Z</time></trkpt><trkpt lat="43.32453566666667" lon="11.9841186"><ele>713.0</ele><time>2026-04-25T10:05:35.301Z</time></trkpt><trkpt lat="43.324603683333336" lon="11.984161983333335"><ele>713.0</ele><time>2026-04-25T10:05:38.308Z</time></trkpt><trkpt lat="43.324673366666666" lon="11.984186733333337"><ele>713.0</ele><time>2026-04-25T10:05:40.293Z</time></trkpt><trkpt lat="43.324743149999996" lon="11.984211683333333"><ele>713.0</ele><time>2026-04-25T10:05:43.311Z</time></trkpt><trkpt lat="43.32481155000001" lon="11.984224266666669"><ele>713.0</ele><time>2026-04-25T10:05:46.313Z</time></trkpt><trkpt lat="43.324881033333334" lon="11.9842316"><ele>713.0</ele><time>2026-04-25T10:05:49.329Z</time></trkpt><trkpt lat="43.324958200000005" lon="11.984254633333334"><ele>713.0</ele><time>2026-04-25T10:05:52.316Z</time></trkpt><trkpt lat="43.325033399999995" lon="11.984276916666667"><ele>713.5714285714286</ele><time>2026-04-25T10:05:55.333Z</time></trkpt><trkpt lat="43.32510576666667" lon="11.984306466666666"><ele>714.1428571428572</ele><time>2026-04-25T10:05:58.341Z</time></trkpt><trkpt lat="43.32517898333334" lon="11.984332733333334"><ele>714.7142857142858</ele><time>2026-04-25T10:06:01.333Z</time></trkpt><trkpt lat="43.325250149999995" lon="11.984330916666666"><ele>715.2857142857142</ele><time>2026-04-25T10:06:04.342Z</time></trkpt><trkpt lat="43.32532313333333" lon="11.9843139"><ele>715.8571428571429</ele><time>2026-04-25T10:06:07.351Z</time></trkpt><trkpt lat="43.32538925000001" lon="11.984307783333334"><ele>716.4285714285714</ele><time>2026-04-25T10:06:10.341Z</time></trkpt><trkpt lat="43.3254543" lon="11.984300216666668"><ele>717.0</ele><time>2026-04-25T10:06:13.352Z</time></trkpt><trkpt lat="43.32552885" lon="11.984319149999997"><ele>718.1428571428571</ele><time>2026-04-25T10:06:17.363Z</time></trkpt><trkpt lat="43.32558568333334" lon="11.984359866666667"><ele>719.2857142857142</ele><time>2026-04-25T10:06:20.373Z</time></trkpt><trkpt lat="43.32564046666666" lon="11.984442666666666"><ele>720.4285714285714</ele><time>2026-04-25T10:06:24.364Z</time></trkpt><trkpt lat="43.32569974999999" lon="11.984495216666668"><ele>721.5714285714286</ele><time>2026-04-25T10:06:28.384Z</time></trkpt><trkpt lat="43.32577993333332" lon="11.984520833333331"><ele>722.7142857142858</ele><time>2026-04-25T10:06:32.37Z</time></trkpt><trkpt lat="43.32584848333333" lon="11.98451771666667"><ele>723.8571428571429</ele><time>2026-04-25T10:06:35.384Z</time></trkpt><trkpt lat="43.32591625" lon="11.984483699999998"><ele>725.0</ele><time>2026-04-25T10:06:38.394Z</time></trkpt><trkpt lat="43.32598573333333" lon="11.984440816666666"><ele>725.0</ele><time>2026-04-25T10:06:41.393Z</time></trkpt><trkpt lat="43.326060250000005" lon="11.984396283333336"><ele>725.0</ele><time>2026-04-25T10:06:44.394Z</time></trkpt><trkpt lat="43.326133250000005" lon="11.984358116666666"><ele>725.0</ele><time>2026-04-25T10:06:47.409Z</time></trkpt><trkpt lat="43.32621563333334" lon="11.984361183333332"><ele>725.0</ele><time>2026-04-25T10:06:50.398Z</time></trkpt><trkpt lat="43.326300016666664" lon="11.984353549999998"><ele>725.0</ele><time>2026-04-25T10:06:53.409Z</time></trkpt><trkpt lat="43.32642821666666" lon="11.984337416666664"><ele>724.0</ele><time>2026-04-25T10:06:58.404Z</time></trkpt><trkpt lat="43.326502016666666" lon="11.984354333333332"><ele>723.0</ele><time>2026-04-25T10:07:01.414Z</time></trkpt><trkpt lat="43.326582499999994" lon="11.984394066666669"><ele>722.0</ele><time>2026-04-25T10:07:04.419Z</time></trkpt><trkpt lat="43.32666376666666" lon="11.984432383333335"><ele>721.0</ele><time>2026-04-25T10:07:07.434Z</time></trkpt><trkpt lat="43.326739100000005" lon="11.984476183333333"><ele>720.0</ele><time>2026-04-25T10:07:10.444Z</time></trkpt><trkpt lat="43.32681255000001" lon="11.9845126"><ele>719.0</ele><time>2026-04-25T10:07:13.434Z</time></trkpt><trkpt lat="43.32689345000001" lon="11.984533033333333"><ele>719.0</ele><time>2026-04-25T10:07:16.444Z</time></trkpt><trkpt lat="43.326969766666664" lon="11.984549566666665"><ele>719.0</ele><time>2026-04-25T10:07:19.44Z</time></trkpt><trkpt lat="43.327037450000006" lon="11.984592600000001"><ele>719.0</ele><time>2026-04-25T10:07:22.449Z</time></trkpt><trkpt lat="43.327105066666675" lon="11.984640783333335"><ele>719.0</ele><time>2026-04-25T10:07:25.461Z</time></trkpt><trkpt lat="43.327182400000005" lon="11.984693049999999"><ele>719.0</ele><time>2026-04-25T10:07:28.468Z</time></trkpt><trkpt lat="43.32725978333333" lon="11.984744933333332"><ele>719.0</ele><time>2026-04-25T10:07:31.473Z</time></trkpt><trkpt lat="43.327327916666675" lon="11.984811116666666"><ele>719.1666666666666</ele><time>2026-04-25T10:07:34.467Z</time></trkpt><trkpt lat="43.327405633333335" lon="11.984845533333331"><ele>719.3333333333333</ele><time>2026-04-25T10:07:37.473Z</time></trkpt><trkpt lat="43.32748225" lon="11.98488795"><ele>719.5</ele><time>2026-04-25T10:07:40.484Z</time></trkpt><trkpt lat="43.3275397" lon="11.984958516666666"><ele>719.6666666666666</ele><time>2026-04-25T10:07:43.474Z</time></trkpt><trkpt lat="43.32759981666666" lon="11.985029650000001"><ele>719.8333333333334</ele><time>2026-04-25T10:07:46.484Z</time></trkpt><trkpt lat="43.327657200000004" lon="11.985111116666667"><ele>720.0</ele><time>2026-04-25T10:07:49.499Z</time></trkpt><trkpt lat="43.32769693333333" lon="11.985211616666666"><ele>718.6666666666666</ele><time>2026-04-25T10:07:52.492Z</time></trkpt><trkpt lat="43.327725300000004" lon="11.985314249999998"><ele>717.3333333333334</ele><time>2026-04-25T10:07:55.494Z</time></trkpt><trkpt lat="43.327767949999995" lon="11.985419883333336"><ele>716.0</ele><time>2026-04-25T10:07:58.509Z</time></trkpt><trkpt lat="43.32781981666667" lon="11.9855103"><ele>714.6666666666667</ele><time>2026-04-25T10:08:01.495Z</time></trkpt><trkpt lat="43.327889683333325" lon="11.98558405"><ele>713.3333333333334</ele><time>2026-04-25T10:08:04.509Z</time></trkpt><trkpt lat="43.327940700000006" lon="11.985676433333333"><ele>712.0</ele><time>2026-04-25T10:08:07.498Z</time></trkpt><trkpt lat="43.3279637" lon="11.98578118333333"><ele>712.1666666666667</ele><time>2026-04-25T10:08:10.503Z</time></trkpt><trkpt lat="43.327978416666674" lon="11.985884800000001"><ele>712.3333333333334</ele><time>2026-04-25T10:08:13.522Z</time></trkpt><trkpt lat="43.32801313333333" lon="11.985993883333334"><ele>712.5</ele><time>2026-04-25T10:08:16.53Z</time></trkpt><trkpt lat="43.328065583333334" lon="11.986093400000001"><ele>712.6666666666666</ele><time>2026-04-25T10:08:19.518Z</time></trkpt><trkpt lat="43.328117199999994" lon="11.98618355"><ele>712.8333333333333</ele><time>2026-04-25T10:08:22.523Z</time></trkpt><trkpt lat="43.32814445" lon="11.986276100000001"><ele>713.0</ele><time>2026-04-25T10:08:25.539Z</time></trkpt><trkpt lat="43.328152366666664" lon="11.986387749999999"><ele>713.0</ele><time>2026-04-25T10:08:28.524Z</time></trkpt><trkpt lat="43.328153050000004" lon="11.986501133333336"><ele>713.0</ele><time>2026-04-25T10:08:31.54Z</time></trkpt><trkpt lat="43.32815239999999" lon="11.986608666666667"><ele>713.0</ele><time>2026-04-25T10:08:34.549Z</time></trkpt><trkpt lat="43.328169716666665" lon="11.986720333333336"><ele>713.0</ele><time>2026-04-25T10:08:37.534Z</time></trkpt><trkpt lat="43.328235083333325" lon="11.986778366666666"><ele>713.0</ele><time>2026-04-25T10:08:40.552Z</time></trkpt><trkpt lat="43.328295966666666" lon="11.986819949999997"><ele>713.0</ele><time>2026-04-25T10:08:43.562Z</time></trkpt><trkpt lat="43.32822468333334" lon="11.986773433333335"><ele>713.0</ele><time>2026-04-25T10:08:49.544Z</time></trkpt><trkpt lat="43.328167533333335" lon="11.986701650000002"><ele>713.0</ele><time>2026-04-25T10:08:52.566Z</time></trkpt><trkpt lat="43.32815659999999" lon="11.986599633333332"><ele>713.0</ele><time>2026-04-25T10:08:55.569Z</time></trkpt><trkpt lat="43.32816621666666" lon="11.986499050000003"><ele>713.0</ele><time>2026-04-25T10:08:58.568Z</time></trkpt><trkpt lat="43.328164666666666" lon="11.98639595"><ele>713.0</ele><time>2026-04-25T10:09:01.581Z</time></trkpt><trkpt lat="43.32814931666667" lon="11.986284750000001"><ele>713.0</ele><time>2026-04-25T10:09:04.566Z</time></trkpt><trkpt lat="43.32810921666666" lon="11.986179933333334"><ele>712.8333333333333</ele><time>2026-04-25T10:09:07.579Z</time></trkpt><trkpt lat="43.32805785000001" lon="11.986080916666667"><ele>712.6666666666666</ele><time>2026-04-25T10:09:10.567Z</time></trkpt><trkpt lat="43.32801301666667" lon="11.985981366666666"><ele>712.5</ele><time>2026-04-25T10:09:13.647Z</time></trkpt><trkpt lat="43.32798756666666" lon="11.985872983333337"><ele>712.3333333333334</ele><time>2026-04-25T10:09:16.765Z</time></trkpt><trkpt lat="43.327959083333326" lon="11.985759"><ele>712.1666666666667</ele><time>2026-04-25T10:09:19.749Z</time></trkpt><trkpt lat="43.327929766666664" lon="11.985649733333332"><ele>712.0</ele><time>2026-04-25T10:09:22.757Z</time></trkpt><trkpt lat="43.32787069999999" lon="11.985558916666665"><ele>712.0</ele><time>2026-04-25T10:09:25.774Z</time></trkpt><trkpt lat="43.32780636666666" lon="11.985493233333333"><ele>712.0</ele><time>2026-04-25T10:09:28.765Z</time></trkpt><trkpt lat="43.32775946666668" lon="11.985406666666664"><ele>712.0</ele><time>2026-04-25T10:09:31.777Z</time></trkpt><trkpt lat="43.327721966666665" lon="11.985305883333334"><ele>712.0</ele><time>2026-04-25T10:09:34.764Z</time></trkpt><trkpt lat="43.3276928" lon="11.985198166666665"><ele>712.0</ele><time>2026-04-25T10:09:37.822Z</time></trkpt><trkpt lat="43.327651616666664" lon="11.985117700000002"><ele>712.0</ele><time>2026-04-25T10:09:40.896Z</time></trkpt><trkpt lat="43.32760620000001" lon="11.985036216666668"><ele>712.9999999999999</ele><time>2026-04-25T10:09:43.923Z</time></trkpt><trkpt lat="43.32756466666667" lon="11.984950299999998"><ele>714.0</ele><time>2026-04-25T10:09:46.928Z</time></trkpt><trkpt lat="43.32752866666666" lon="11.984861583333336"><ele>715.0</ele><time>2026-04-25T10:09:50.023Z</time></trkpt><trkpt lat="43.3274826" lon="11.984799416666664"><ele>716.0</ele><time>2026-04-25T10:09:53.029Z</time></trkpt><trkpt lat="43.32740845" lon="11.984803533333334"><ele>717.0</ele><time>2026-04-25T10:09:56.022Z</time></trkpt><trkpt lat="43.32732865" lon="11.984798799999998"><ele>717.9999999999999</ele><time>2026-04-25T10:09:59.029Z</time></trkpt><trkpt lat="43.32726518333334" lon="11.984764683333333"><ele>719.0</ele><time>2026-04-25T10:10:02.04Z</time></trkpt><trkpt lat="43.327196666666666" lon="11.984707683333333"><ele>719.0</ele><time>2026-04-25T10:10:05.179Z</time></trkpt><trkpt lat="43.32713306666666" lon="11.984656133333331"><ele>719.0</ele><time>2026-04-25T10:10:08.164Z</time></trkpt><trkpt lat="43.32706983333334" lon="11.9846009"><ele>719.0</ele><time>2026-04-25T10:10:11.179Z</time></trkpt><trkpt lat="43.326997166666665" lon="11.984547950000001"><ele>719.0</ele><time>2026-04-25T10:10:14.19Z</time></trkpt><trkpt lat="43.32691988333333" lon="11.984527016666668"><ele>719.0</ele><time>2026-04-25T10:10:17.175Z</time></trkpt><trkpt lat="43.326839050000004" lon="11.984508866666665"><ele>719.0</ele><time>2026-04-25T10:10:20.186Z</time></trkpt><trkpt lat="43.32676108333333" lon="11.984478566666665"><ele>719.0</ele><time>2026-04-25T10:10:23.174Z</time></trkpt><trkpt lat="43.32668558333334" lon="11.98444045"><ele>719.0</ele><time>2026-04-25T10:10:26.189Z</time></trkpt><trkpt lat="43.32660814999999" lon="11.984390316666667"><ele>719.0</ele><time>2026-04-25T10:10:29.252Z</time></trkpt><trkpt lat="43.3265322" lon="11.984364783333335"><ele>719.0</ele><time>2026-04-25T10:10:32.24Z</time></trkpt><trkpt lat="43.32644666666667" lon="11.9843315"><ele>719.0</ele><time>2026-04-25T10:10:35.244Z</time></trkpt><trkpt lat="43.32636300000001" lon="11.984321450000001"><ele>719.0</ele><time>2026-04-25T10:10:38.254Z</time></trkpt><trkpt lat="43.32628808333334" lon="11.984339183333335"><ele>720.0</ele><time>2026-04-25T10:10:41.27Z</time></trkpt><trkpt lat="43.326208799999996" lon="11.984348050000001"><ele>721.0</ele><time>2026-04-25T10:10:44.254Z</time></trkpt><trkpt lat="43.32612806666666" lon="11.984352249999999"><ele>722.0</ele><time>2026-04-25T10:10:47.267Z</time></trkpt><trkpt lat="43.3260445" lon="11.984376583333336"><ele>723.0</ele><time>2026-04-25T10:10:50.261Z</time></trkpt><trkpt lat="43.32597956666667" lon="11.984417983333334"><ele>724.0</ele><time>2026-04-25T10:10:53.272Z</time></trkpt><trkpt lat="43.3259183" lon="11.984453766666666"><ele>725.0</ele><time>2026-04-25T10:10:56.273Z</time></trkpt><trkpt lat="43.325853633333324" lon="11.984484733333332"><ele>725.0</ele><time>2026-04-25T10:10:59.264Z</time></trkpt><trkpt lat="43.32577814999999" lon="11.984499333333334"><ele>725.0</ele><time>2026-04-25T10:11:02.379Z</time></trkpt><trkpt lat="43.32571253333334" lon="11.984491283333332"><ele>725.0</ele><time>2026-04-25T10:11:06.389Z</time></trkpt><trkpt lat="43.32564118333333" lon="11.984441583333336"><ele>725.0</ele><time>2026-04-25T10:11:10.392Z</time></trkpt><trkpt lat="43.32558013333335" lon="11.984369466666665"><ele>725.0</ele><time>2026-04-25T10:11:13.395Z</time></trkpt><trkpt lat="43.32551166666667" lon="11.984311283333332"><ele>725.0</ele><time>2026-04-25T10:11:16.382Z</time></trkpt><trkpt lat="43.325431550000005" lon="11.984288966666668"><ele>723.6666666666666</ele><time>2026-04-25T10:11:19.388Z</time></trkpt><trkpt lat="43.32534640000001" lon="11.984284633333335"><ele>722.3333333333333</ele><time>2026-04-25T10:11:22.405Z</time></trkpt><trkpt lat="43.32526373333333" lon="11.984298883333334"><ele>721.0</ele><time>2026-04-25T10:11:25.396Z</time></trkpt><trkpt lat="43.32517886666666" lon="11.984314549999999"><ele>719.6666666666666</ele><time>2026-04-25T10:11:28.405Z</time></trkpt><trkpt lat="43.325103066666664" lon="11.98430735"><ele>718.3333333333334</ele><time>2026-04-25T10:11:31.415Z</time></trkpt><trkpt lat="43.325036233333336" lon="11.984291383333334"><ele>717.0</ele><time>2026-04-25T10:11:34.41Z</time></trkpt><trkpt lat="43.32496163333334" lon="11.98426785"><ele>717.0</ele><time>2026-04-25T10:11:37.415Z</time></trkpt><trkpt lat="43.32487911666667" lon="11.984243433333333"><ele>717.0</ele><time>2026-04-25T10:11:40.432Z</time></trkpt><trkpt lat="43.32479895" lon="11.984224533333334"><ele>717.0</ele><time>2026-04-25T10:11:43.414Z</time></trkpt><trkpt lat="43.324711416666666" lon="11.984203966666666"><ele>717.0</ele><time>2026-04-25T10:11:46.43Z</time></trkpt><trkpt lat="43.3246408" lon="11.984172616666667"><ele>717.0</ele><time>2026-04-25T10:11:49.435Z</time></trkpt><trkpt lat="43.32455780000001" lon="11.984124083333333"><ele>717.0</ele><time>2026-04-25T10:11:52.43Z</time></trkpt><trkpt lat="43.324482016666664" lon="11.984078983333331"><ele>716.3333333333334</ele><time>2026-04-25T10:11:55.435Z</time></trkpt><trkpt lat="43.32440288333334" lon="11.984035583333332"><ele>715.6666666666666</ele><time>2026-04-25T10:11:58.443Z</time></trkpt><trkpt lat="43.324324499999996" lon="11.983996233333334"><ele>715.0</ele><time>2026-04-25T10:12:01.455Z</time></trkpt><trkpt lat="43.324259366666666" lon="11.983970333333332"><ele>714.3333333333333</ele><time>2026-04-25T10:12:04.449Z</time></trkpt><trkpt lat="43.32418776666666" lon="11.983956483333333"><ele>713.6666666666666</ele><time>2026-04-25T10:12:07.455Z</time></trkpt><trkpt lat="43.32410496666666" lon="11.983930833333332"><ele>713.0</ele><time>2026-04-25T10:12:11.445Z</time></trkpt><trkpt lat="43.32402423333333" lon="11.983905983333335"><ele>713.0</ele><time>2026-04-25T10:12:15.462Z</time></trkpt><trkpt lat="43.32395865" lon="11.9839096"><ele>713.0</ele><time>2026-04-25T10:12:18.45Z</time></trkpt><trkpt lat="43.323890250000005" lon="11.983921866666666"><ele>713.0</ele><time>2026-04-25T10:12:21.464Z</time></trkpt><trkpt lat="43.32382299999999" lon="11.98395095"><ele>713.0</ele><time>2026-04-25T10:12:25.48Z</time></trkpt><trkpt lat="43.323762550000005" lon="11.984001633333333"><ele>713.0</ele><time>2026-04-25T10:12:33.464Z</time></trkpt><trkpt lat="43.323702033333326" lon="11.984035500000001"><ele>713.0</ele><time>2026-04-25T10:12:39.485Z</time></trkpt><trkpt lat="43.32364043333333" lon="11.984061000000002"><ele>713.0</ele><time>2026-04-25T10:12:45.48Z</time></trkpt><trkpt lat="43.323578299999994" lon="11.98409655"><ele>714.1428571428571</ele><time>2026-04-25T10:12:51.501Z</time></trkpt><trkpt lat="43.32351255" lon="11.984131183333332"><ele>715.2857142857143</ele><time>2026-04-25T10:12:57.505Z</time></trkpt><trkpt lat="43.32343915" lon="11.984134133333335"><ele>716.4285714285714</ele><time>2026-04-25T10:13:01.514Z</time></trkpt><trkpt lat="43.323362033333325" lon="11.984103783333333"><ele>717.5714285714286</ele><time>2026-04-25T10:13:05.505Z</time></trkpt><trkpt lat="43.32329885000001" lon="11.984060216666668"><ele>718.7142857142858</ele><time>2026-04-25T10:13:08.52Z</time></trkpt><trkpt lat="43.323226850000005" lon="11.98401575"><ele>719.8571428571429</ele><time>2026-04-25T10:13:11.513Z</time></trkpt><trkpt lat="43.32315959999999" lon="11.983995783333333"><ele>721.0</ele><time>2026-04-25T10:13:14.515Z</time></trkpt><trkpt lat="43.32309271666666" lon="11.983988616666666"><ele>722.1428571428571</ele><time>2026-04-25T10:13:17.506Z</time></trkpt><trkpt lat="43.32302471666667" lon="11.983994483333333"><ele>723.2857142857142</ele><time>2026-04-25T10:13:20.52Z</time></trkpt><trkpt lat="43.32295978333333" lon="11.983981400000001"><ele>724.4285714285714</ele><time>2026-04-25T10:13:23.523Z</time></trkpt><trkpt lat="43.32289493333332" lon="11.983983433333334"><ele>725.5714285714286</ele><time>2026-04-25T10:13:26.519Z</time></trkpt><trkpt lat="43.32282610000001" lon="11.983981483333332"><ele>726.7142857142857</ele><time>2026-04-25T10:13:29.53Z</time></trkpt><trkpt lat="43.32275121666667" lon="11.983992066666667"><ele>727.8571428571429</ele><time>2026-04-25T10:13:33.539Z</time></trkpt><trkpt lat="43.322688066666664" lon="11.9840024"><ele>729.0</ele><time>2026-04-25T10:13:36.534Z</time></trkpt><trkpt lat="43.32262238333333" lon="11.984012550000001"><ele>729.0</ele><time>2026-04-25T10:13:39.53Z</time></trkpt><trkpt lat="43.32254526666667" lon="11.984000700000001"><ele>729.0</ele><time>2026-04-25T10:13:43.555Z</time></trkpt><trkpt lat="43.32246261666666" lon="11.983985333333333"><ele>729.0</ele><time>2026-04-25T10:13:47.548Z</time></trkpt><trkpt lat="43.322393083333324" lon="11.983982666666668"><ele>729.0</ele><time>2026-04-25T10:13:51.563Z</time></trkpt><trkpt lat="43.322327099999995" lon="11.98397995"><ele>729.0</ele><time>2026-04-25T10:13:57.564Z</time></trkpt><trkpt lat="43.32226515000001" lon="11.983958816666666"><ele>729.0</ele><time>2026-04-25T10:14:03.585Z</time></trkpt><trkpt lat="43.32219641666667" lon="11.98394635"><ele>729.0</ele><time>2026-04-25T10:14:09.581Z</time></trkpt><trkpt lat="43.32212966666666" lon="11.98393265"><ele>730.2857142857143</ele><time>2026-04-25T10:14:17.591Z</time></trkpt><trkpt lat="43.322059016666664" lon="11.983903866666667"><ele>731.5714285714286</ele><time>2026-04-25T10:14:24.598Z</time></trkpt><trkpt lat="43.321989183333336" lon="11.9838785"><ele>732.8571428571429</ele><time>2026-04-25T10:14:29.605Z</time></trkpt><trkpt lat="43.3219232" lon="11.983867116666667"><ele>734.1428571428571</ele><time>2026-04-25T10:14:37.625Z</time></trkpt><trkpt lat="43.32185891666666" lon="11.983846033333334"><ele>735.4285714285713</ele><time>2026-04-25T10:14:43.62Z</time></trkpt><trkpt lat="43.32179401666667" lon="11.983820366666665"><ele>736.7142857142857</ele><time>2026-04-25T10:14:54.638Z</time></trkpt><trkpt lat="43.32174206666667" lon="11.983766033333332"><ele>738.0</ele><time>2026-04-25T10:15:01.647Z</time></trkpt><trkpt lat="43.321695000000005" lon="11.983698633333331"><ele>738.0</ele><time>2026-04-25T10:15:08.669Z</time></trkpt><trkpt lat="43.321659066666676" lon="11.983620583333334"><ele>738.0</ele><time>2026-04-25T10:15:15.668Z</time></trkpt><trkpt lat="43.3216085" lon="11.983555066666668"><ele>738.0</ele><time>2026-04-25T10:15:22.681Z</time></trkpt><trkpt lat="43.32155541666666" lon="11.983497066666665"><ele>738.0</ele><time>2026-04-25T10:15:28.706Z</time></trkpt><trkpt lat="43.321494900000005" lon="11.983435899999998"><ele>738.0</ele><time>2026-04-25T10:15:33.703Z</time></trkpt><trkpt lat="43.32141905" lon="11.98338966666667"><ele>738.0</ele><time>2026-04-25T10:15:37.706Z</time></trkpt><trkpt lat="43.32134726666667" lon="11.983375016666667"><ele>738.0</ele><time>2026-04-25T10:15:40.718Z</time></trkpt><trkpt lat="43.32126183333333" lon="11.98336225"><ele>736.8333333333334</ele><time>2026-04-25T10:15:43.726Z</time></trkpt><trkpt lat="43.32118606666666" lon="11.983356016666667"><ele>735.6666666666666</ele><time>2026-04-25T10:15:46.718Z</time></trkpt><trkpt lat="43.321110033333326" lon="11.983376416666665"><ele>734.5</ele><time>2026-04-25T10:15:49.729Z</time></trkpt><trkpt lat="43.32103753333334" lon="11.983416466666664"><ele>733.3333333333333</ele><time>2026-04-25T10:15:52.739Z</time></trkpt><trkpt lat="43.32096485" lon="11.983437550000001"><ele>732.1666666666666</ele><time>2026-04-25T10:15:55.738Z</time></trkpt><trkpt lat="43.320887416666665" lon="11.983433616666666"><ele>731.0</ele><time>2026-04-25T10:15:58.736Z</time></trkpt><trkpt lat="43.32081191666666" lon="11.983425633333331"><ele>731.0</ele><time>2026-04-25T10:16:01.745Z</time></trkpt><trkpt lat="43.32073736666666" lon="11.98339695"><ele>731.0</ele><time>2026-04-25T10:16:04.756Z</time></trkpt><trkpt lat="43.32066911666667" lon="11.98337065"><ele>731.0</ele><time>2026-04-25T10:16:07.746Z</time></trkpt><trkpt lat="43.32059898333334" lon="11.983368766666668"><ele>731.0</ele><time>2026-04-25T10:16:10.762Z</time></trkpt><trkpt lat="43.32052791666666" lon="11.983362700000002"><ele>731.0</ele><time>2026-04-25T10:16:13.749Z</time></trkpt><trkpt lat="43.32046201666667" lon="11.98333295"><ele>731.0</ele><time>2026-04-25T10:16:16.762Z</time></trkpt><trkpt lat="43.32039678333334" lon="11.983282266666667"><ele>731.0</ele><time>2026-04-25T10:16:19.766Z</time></trkpt><trkpt lat="43.320335750000005" lon="11.983236600000001"><ele>733.1666666666666</ele><time>2026-04-25T10:16:22.781Z</time></trkpt><trkpt lat="43.32026616666667" lon="11.983178"><ele>735.3333333333333</ele><time>2026-04-25T10:16:26.771Z</time></trkpt><trkpt lat="43.320198433333346" lon="11.983118200000002"><ele>737.5</ele><time>2026-04-25T10:16:30.791Z</time></trkpt><trkpt lat="43.32013955000001" lon="11.983059466666669"><ele>739.6666666666666</ele><time>2026-04-25T10:16:33.781Z</time></trkpt><trkpt lat="43.32008146666667" lon="11.9829855"><ele>741.8333333333334</ele><time>2026-04-25T10:16:36.781Z</time></trkpt><trkpt lat="43.32000983333334" lon="11.982944000000002"><ele>744.0</ele><time>2026-04-25T10:16:39.796Z</time></trkpt><trkpt lat="43.31992816666666" lon="11.98289815"><ele>744.0</ele><time>2026-04-25T10:16:43.811Z</time></trkpt><trkpt lat="43.31985008333333" lon="11.982840666666666"><ele>744.0</ele><time>2026-04-25T10:16:46.795Z</time></trkpt><trkpt lat="43.31974831666666" lon="11.982770799999999"><ele>744.0</ele><time>2026-04-25T10:16:50.736Z</time></trkpt><trkpt lat="43.31968001666667" lon="11.982732866666668"><ele>744.0</ele><time>2026-04-25T10:16:53.756Z</time></trkpt><trkpt lat="43.31961448333333" lon="11.9826771"><ele>744.0</ele><time>2026-04-25T10:16:57.741Z</time></trkpt><trkpt lat="43.31955515" lon="11.9826222"><ele>744.0</ele><time>2026-04-25T10:17:00.764Z</time></trkpt><trkpt lat="43.3195074" lon="11.982549716666666"><ele>743.7142857142858</ele><time>2026-04-25T10:17:03.77Z</time></trkpt><trkpt lat="43.31943858333334" lon="11.982493766666668"><ele>743.4285714285714</ele><time>2026-04-25T10:17:07.857Z</time></trkpt><trkpt lat="43.31938234999999" lon="11.982444416666667"><ele>743.1428571428571</ele><time>2026-04-25T10:17:10.87Z</time></trkpt><trkpt lat="43.31932978333333" lon="11.982391150000002"><ele>742.8571428571429</ele><time>2026-04-25T10:17:13.877Z</time></trkpt><trkpt lat="43.31926383333332" lon="11.9823257"><ele>742.5714285714286</ele><time>2026-04-25T10:17:16.866Z</time></trkpt><trkpt lat="43.31920381666667" lon="11.982261366666668"><ele>742.2857142857143</ele><time>2026-04-25T10:17:19.884Z</time></trkpt><trkpt lat="43.319141900000005" lon="11.982203966666669"><ele>742.0</ele><time>2026-04-25T10:17:22.874Z</time></trkpt><trkpt lat="43.31907345" lon="11.982157133333333"><ele>742.0</ele><time>2026-04-25T10:17:25.875Z</time></trkpt><trkpt lat="43.319000016666664" lon="11.9821521"><ele>742.0</ele><time>2026-04-25T10:17:28.896Z</time></trkpt><trkpt lat="43.318921616666664" lon="11.982144349999999"><ele>742.0</ele><time>2026-04-25T10:17:31.901Z</time></trkpt><trkpt lat="43.3188517" lon="11.982120183333333"><ele>742.0</ele><time>2026-04-25T10:17:34.892Z</time></trkpt><trkpt lat="43.31878053333333" lon="11.982110216666669"><ele>742.0</ele><time>2026-04-25T10:17:37.896Z</time></trkpt><trkpt lat="43.318716333333334" lon="11.982093383333332"><ele>742.0</ele><time>2026-04-25T10:17:40.89Z</time></trkpt><trkpt lat="43.318652699999994" lon="11.982075083333333"><ele>742.0</ele><time>2026-04-25T10:17:43.896Z</time></trkpt><trkpt lat="43.31858703333334" lon="11.982051149999998"><ele>742.2857142857143</ele><time>2026-04-25T10:17:46.909Z</time></trkpt><trkpt lat="43.31850946666666" lon="11.982036416666665"><ele>742.5714285714286</ele><time>2026-04-25T10:17:49.896Z</time></trkpt><trkpt lat="43.31844008333334" lon="11.982053883333334"><ele>742.8571428571429</ele><time>2026-04-25T10:17:52.916Z</time></trkpt><trkpt lat="43.31838173333334" lon="11.982094383333333"><ele>743.1428571428571</ele><time>2026-04-25T10:17:55.9Z</time></trkpt><trkpt lat="43.31831783333334" lon="11.982135983333336"><ele>743.4285714285714</ele><time>2026-04-25T10:17:58.906Z</time></trkpt><trkpt lat="43.318257433333336" lon="11.982177983333333"><ele>743.7142857142858</ele><time>2026-04-25T10:18:01.923Z</time></trkpt><trkpt lat="43.318189749999995" lon="11.9822501"><ele>744.0</ele><time>2026-04-25T10:18:05.934Z</time></trkpt><trkpt lat="43.31814773333334" lon="11.982322299999998"><ele>744.0000000000001</ele><time>2026-04-25T10:18:08.916Z</time></trkpt><trkpt lat="43.318094433333336" lon="11.982383216666664"><ele>744.0</ele><time>2026-04-25T10:18:11.934Z</time></trkpt><trkpt lat="43.318038949999995" lon="11.982429383333333"><ele>744.0</ele><time>2026-04-25T10:18:14.941Z</time></trkpt><trkpt lat="43.31796451666667" lon="11.982480166666669"><ele>744.0</ele><time>2026-04-25T10:18:18.934Z</time></trkpt><trkpt lat="43.31791374999999" lon="11.98254125"><ele>744.0</ele><time>2026-04-25T10:18:21.95Z</time></trkpt><trkpt lat="43.317860950000004" lon="11.982618233333335"><ele>744.0000000000001</ele><time>2026-04-25T10:18:24.934Z</time></trkpt><trkpt lat="43.317811299999995" lon="11.982687783333331"><ele>744.0</ele><time>2026-04-25T10:18:27.941Z</time></trkpt><trkpt lat="43.31776098333333" lon="11.9827541"><ele>744.0000000000001</ele><time>2026-04-25T10:18:30.956Z</time></trkpt><trkpt lat="43.317818149999994" lon="11.982714883333331"><ele>744.0</ele><time>2026-04-25T10:21:28.224Z</time></trkpt><trkpt lat="43.31785906666668" lon="11.982645566666667"><ele>744.0</ele><time>2026-04-25T10:21:31.205Z</time></trkpt><trkpt lat="43.31790801666666" lon="11.98257795"><ele>744.0</ele><time>2026-04-25T10:21:34.229Z</time></trkpt><trkpt lat="43.31796731666667" lon="11.982525516666664"><ele>744.0</ele><time>2026-04-25T10:21:37.214Z</time></trkpt><trkpt lat="43.31802886666666" lon="11.982467883333333"><ele>744.0000000000001</ele><time>2026-04-25T10:21:40.225Z</time></trkpt><trkpt lat="43.31808373333333" lon="11.982396916666668"><ele>744.0</ele><time>2026-04-25T10:21:43.234Z</time></trkpt><trkpt lat="43.318136633333346" lon="11.982322766666668"><ele>744.0</ele><time>2026-04-25T10:21:46.242Z</time></trkpt><trkpt lat="43.3181945" lon="11.982264166666669"><ele>744.0</ele><time>2026-04-25T10:21:49.233Z</time></trkpt><trkpt lat="43.31824758333334" lon="11.982205650000001"><ele>744.0</ele><time>2026-04-25T10:21:52.243Z</time></trkpt><trkpt lat="43.31832463333333" lon="11.98215475"><ele>744.0</ele><time>2026-04-25T10:21:56.26Z</time></trkpt><trkpt lat="43.31839493333334" lon="11.982113883333334"><ele>744.0</ele><time>2026-04-25T10:21:59.264Z</time></trkpt><trkpt lat="43.31847668333333" lon="11.982078166666668"><ele>744.0</ele><time>2026-04-25T10:22:02.267Z</time></trkpt><trkpt lat="43.31856278333333" lon="11.9820788"><ele>744.0</ele><time>2026-04-25T10:22:05.267Z</time></trkpt><trkpt lat="43.31865198333333" lon="11.98208255"><ele>744.0</ele><time>2026-04-25T10:22:08.265Z</time></trkpt><trkpt lat="43.31872978333334" lon="11.982092216666668"><ele>744.0</ele><time>2026-04-25T10:22:11.29Z</time></trkpt><trkpt lat="43.31879058333334" lon="11.982067800000001"><ele>744.0</ele><time>2026-04-25T10:22:14.279Z</time></trkpt><trkpt lat="43.31879155" lon="11.981956416666666"><ele>744.0</ele><time>2026-04-25T10:22:18.279Z</time></trkpt><trkpt lat="43.31878243333333" lon="11.981844333333333"><ele>744.0</ele><time>2026-04-25T10:22:22.304Z</time></trkpt><trkpt lat="43.31877763333333" lon="11.981734666666666"><ele>744.8333333333334</ele><time>2026-04-25T10:22:26.308Z</time></trkpt><trkpt lat="43.31877294999999" lon="11.981648316666668"><ele>745.6666666666666</ele><time>2026-04-25T10:22:29.314Z</time></trkpt><trkpt lat="43.3187649" lon="11.981556383333334"><ele>746.5</ele><time>2026-04-25T10:22:32.319Z</time></trkpt><trkpt lat="43.31876568333334" lon="11.981404916666667"><ele>747.3333333333333</ele><time>2026-04-25T10:22:36.314Z</time></trkpt><trkpt lat="43.31875758333334" lon="11.981302166666666"><ele>748.1666666666666</ele><time>2026-04-25T10:22:39.329Z</time></trkpt><trkpt lat="43.31872343333333" lon="11.981212283333333"><ele>749.0</ele><time>2026-04-25T10:22:42.315Z</time></trkpt><trkpt lat="43.318669799999995" lon="11.981156549999998"><ele>749.0</ele><time>2026-04-25T10:22:45.334Z</time></trkpt><trkpt lat="43.31861913333334" lon="11.981095383333333"><ele>749.0</ele><time>2026-04-25T10:22:48.338Z</time></trkpt><trkpt lat="43.31857803333334" lon="11.981009083333333"><ele>749.0</ele><time>2026-04-25T10:22:51.329Z</time></trkpt><trkpt lat="43.31855318333334" lon="11.980918833333332"><ele>749.0</ele><time>2026-04-25T10:22:54.34Z</time></trkpt><trkpt lat="43.31852883333333" lon="11.980824283333334"><ele>749.0</ele><time>2026-04-25T10:22:57.349Z</time></trkpt><trkpt lat="43.31846968333332" lon="11.980750200000001"><ele>749.0</ele><time>2026-04-25T10:23:02.342Z</time></trkpt><trkpt lat="43.318422250000005" lon="11.980683749999999"><ele>749.0</ele><time>2026-04-25T10:23:20.39Z</time></trkpt><trkpt lat="43.3183617" lon="11.980613866666666"><ele>747.8571428571429</ele><time>2026-04-25T10:23:24.375Z</time></trkpt><trkpt lat="43.31830336666667" lon="11.980561783333334"><ele>746.7142857142858</ele><time>2026-04-25T10:23:28.395Z</time></trkpt><trkpt lat="43.31824585" lon="11.980502616666667"><ele>745.5714285714286</ele><time>2026-04-25T10:23:32.39Z</time></trkpt><trkpt lat="43.318193633333344" lon="11.98042625"><ele>744.4285714285714</ele><time>2026-04-25T10:23:36.495Z</time></trkpt><trkpt lat="43.31815078333334" lon="11.980353950000001"><ele>743.2857142857143</ele><time>2026-04-25T10:23:39.512Z</time></trkpt><trkpt lat="43.31810841666667" lon="11.980274666666666"><ele>742.1428571428571</ele><time>2026-04-25T10:23:42.522Z</time></trkpt><trkpt lat="43.31806786666666" lon="11.980195433333332"><ele>741.0</ele><time>2026-04-25T10:23:45.616Z</time></trkpt><trkpt lat="43.31803073333334" lon="11.980114266666666"><ele>745.8333333333334</ele><time>2026-04-25T10:23:48.525Z</time></trkpt><trkpt lat="43.317988666666665" lon="11.980016533333332"><ele>750.6666666666667</ele><time>2026-04-25T10:23:51.53Z</time></trkpt><trkpt lat="43.31795006666666" lon="11.97990785"><ele>755.5</ele><time>2026-04-25T10:23:54.53Z</time></trkpt><trkpt lat="43.31791046666667" lon="11.9798184"><ele>760.3333333333334</ele><time>2026-04-25T10:23:57.524Z</time></trkpt><trkpt lat="43.31787013333333" lon="11.979735049999999"><ele>765.1666666666667</ele><time>2026-04-25T10:24:00.546Z</time></trkpt><trkpt lat="43.31783205" lon="11.979655300000001"><ele>770.0</ele><time>2026-04-25T10:24:03.532Z</time></trkpt><trkpt lat="43.31778498333333" lon="11.979574349999998"><ele>770.0</ele><time>2026-04-25T10:24:07.551Z</time></trkpt><trkpt lat="43.31773715" lon="11.9795025"><ele>770.0</ele><time>2026-04-25T10:24:11.565Z</time></trkpt><trkpt lat="43.31768841666667" lon="11.979429466666668"><ele>770.0</ele><time>2026-04-25T10:24:15.555Z</time></trkpt><trkpt lat="43.31763376666666" lon="11.979372466666666"><ele>770.0</ele><time>2026-04-25T10:24:19.57Z</time></trkpt><trkpt lat="43.31757831666667" lon="11.979289283333332"><ele>770.0</ele><time>2026-04-25T10:24:23.582Z</time></trkpt><trkpt lat="43.317546283333336" lon="11.979211416666667"><ele>770.0</ele><time>2026-04-25T10:24:26.575Z</time></trkpt><trkpt lat="43.31751165000001" lon="11.979125849999999"><ele>770.0</ele><time>2026-04-25T10:24:29.582Z</time></trkpt><trkpt lat="43.31747341666666" lon="11.9790375"><ele>766.3333333333334</ele><time>2026-04-25T10:24:32.589Z</time></trkpt><trkpt lat="43.31743886666667" lon="11.97894065"><ele>762.6666666666667</ele><time>2026-04-25T10:24:57.626Z</time></trkpt><trkpt lat="43.31742343333334" lon="11.978838266666665"><ele>759.0</ele><time>2026-04-25T10:25:01.634Z</time></trkpt><trkpt lat="43.317401616666665" lon="11.97873675"><ele>755.3333333333334</ele><time>2026-04-25T10:25:04.646Z</time></trkpt><trkpt lat="43.31736823333333" lon="11.97862135"><ele>751.6666666666667</ele><time>2026-04-25T10:25:07.633Z</time></trkpt><trkpt lat="43.3173384" lon="11.978512599999998"><ele>748.0</ele><time>2026-04-25T10:25:10.64Z</time></trkpt><trkpt lat="43.31731249999999" lon="11.9784235"><ele>746.0</ele><time>2026-04-25T10:25:13.637Z</time></trkpt><trkpt lat="43.31729546666667" lon="11.978334216666667"><ele>744.0</ele><time>2026-04-25T10:25:16.645Z</time></trkpt><trkpt lat="43.317281599999994" lon="11.978233150000003"><ele>742.0</ele><time>2026-04-25T10:25:19.658Z</time></trkpt><trkpt lat="43.3172577" lon="11.978132066666667"><ele>740.0</ele><time>2026-04-25T10:25:23.668Z</time></trkpt><trkpt lat="43.31723778333333" lon="11.978048033333334"><ele>738.0</ele><time>2026-04-25T10:25:26.677Z</time></trkpt><trkpt lat="43.31720038333333" lon="11.977947416666666"><ele>736.0</ele><time>2026-04-25T10:25:30.676Z</time></trkpt><trkpt lat="43.317169383333336" lon="11.977867016666668"><ele>734.0</ele><time>2026-04-25T10:25:33.685Z</time></trkpt><trkpt lat="43.317139566666675" lon="11.977774983333333"><ele>738.8571428571428</ele><time>2026-04-25T10:25:36.668Z</time></trkpt><trkpt lat="43.31710596666667" lon="11.977683866666666"><ele>743.7142857142858</ele><time>2026-04-25T10:25:39.685Z</time></trkpt><trkpt lat="43.317068266666666" lon="11.977591933333333"><ele>748.5714285714286</ele><time>2026-04-25T10:25:42.693Z</time></trkpt><trkpt lat="43.31703184999999" lon="11.977504099999999"><ele>753.4285714285713</ele><time>2026-04-25T10:25:45.688Z</time></trkpt><trkpt lat="43.31699036666667" lon="11.977425266666668"><ele>758.2857142857142</ele><time>2026-04-25T10:25:48.7Z</time></trkpt><trkpt lat="43.316954566666666" lon="11.977347916666666"><ele>763.1428571428571</ele><time>2026-04-25T10:25:51.707Z</time></trkpt><trkpt lat="43.31691935" lon="11.977267616666666"><ele>768.0</ele><time>2026-04-25T10:25:54.715Z</time></trkpt><trkpt lat="43.316882466666655" lon="11.977179183333332"><ele>768.0</ele><time>2026-04-25T10:25:57.703Z</time></trkpt><trkpt lat="43.31684624999999" lon="11.977087"><ele>768.0</ele><time>2026-04-25T10:26:00.714Z</time></trkpt><trkpt lat="43.3168057" lon="11.97698675"><ele>768.0</ele><time>2026-04-25T10:26:03.727Z</time></trkpt><trkpt lat="43.31676665" lon="11.976885899999997"><ele>768.0</ele><time>2026-04-25T10:26:06.717Z</time></trkpt><trkpt lat="43.31672629999999" lon="11.976806566666667"><ele>768.0</ele><time>2026-04-25T10:26:09.733Z</time></trkpt><trkpt lat="43.316694583333344" lon="11.976721049999998"><ele>768.0</ele><time>2026-04-25T10:26:12.735Z</time></trkpt><trkpt lat="43.31665951666667" lon="11.9766356"><ele>767.4285714285713</ele><time>2026-04-25T10:26:15.727Z</time></trkpt><trkpt lat="43.31661645000001" lon="11.976566916666664"><ele>766.8571428571429</ele><time>2026-04-25T10:26:19.739Z</time></trkpt><trkpt lat="43.3165762" lon="11.976492366666665"><ele>766.2857142857142</ele><time>2026-04-25T10:26:25.767Z</time></trkpt><trkpt lat="43.31653063333333" lon="11.976431366666668"><ele>765.7142857142857</ele><time>2026-04-25T10:26:28.752Z</time></trkpt><trkpt lat="43.31646983333333" lon="11.976370349999998"><ele>765.1428571428571</ele><time>2026-04-25T10:26:31.768Z</time></trkpt><trkpt lat="43.31640025" lon="11.976314050000001"><ele>764.5714285714286</ele><time>2026-04-25T10:26:35.777Z</time></trkpt><trkpt lat="43.316328649999996" lon="11.976260233333335"><ele>764.0</ele><time>2026-04-25T10:26:39.772Z</time></trkpt><trkpt lat="43.31625928333333" lon="11.976201783333332"><ele>764.0</ele><time>2026-04-25T10:26:43.785Z</time></trkpt><trkpt lat="43.316201983333336" lon="11.976165383333335"><ele>764.0</ele><time>2026-04-25T10:26:47.777Z</time></trkpt><trkpt lat="43.3161254" lon="11.976174066666665"><ele>764.0</ele><time>2026-04-25T10:26:51.789Z</time></trkpt><trkpt lat="43.3160488" lon="11.976217683333335"><ele>764.0</ele><time>2026-04-25T10:26:55.788Z</time></trkpt><trkpt lat="43.31599218333334" lon="11.9762674"><ele>764.0</ele><time>2026-04-25T10:26:58.796Z</time></trkpt><trkpt lat="43.315929116666666" lon="11.976314766666668"><ele>764.0</ele><time>2026-04-25T10:27:01.807Z</time></trkpt><trkpt lat="43.31585831666666" lon="11.976376433333332"><ele>764.0</ele><time>2026-04-25T10:27:05.902Z</time></trkpt><trkpt lat="43.31580779999999" lon="11.976454516666669"><ele>764.0</ele><time>2026-04-25T10:27:09.911Z</time></trkpt><trkpt lat="43.315857766666674" lon="11.976400016666666"><ele>764.0</ele><time>2026-04-25T10:28:37.008Z</time></trkpt><trkpt lat="43.31590786666668" lon="11.976344950000003"><ele>764.0</ele><time>2026-04-25T10:28:44.029Z</time></trkpt><trkpt lat="43.31595871666667" lon="11.9762651"><ele>764.0</ele><time>2026-04-25T10:28:51.029Z</time></trkpt><trkpt lat="43.31600545" lon="11.976191649999999"><ele>764.0</ele><time>2026-04-25T10:28:55.044Z</time></trkpt><trkpt lat="43.316055483333336" lon="11.976130816666668"><ele>764.0</ele><time>2026-04-25T10:29:00.056Z</time></trkpt><trkpt lat="43.31611131666667" lon="11.976084283333334"><ele>764.0</ele><time>2026-04-25T10:29:06.041Z</time></trkpt><trkpt lat="43.31612015" lon="11.975993016666667"><ele>764.0</ele><time>2026-04-25T10:29:13.054Z</time></trkpt><trkpt lat="43.31605209999999" lon="11.975928066666667"><ele>764.0</ele><time>2026-04-25T10:29:17.06Z</time></trkpt><trkpt lat="43.315981816666664" lon="11.975890216666668"><ele>764.0</ele><time>2026-04-25T10:29:20.068Z</time></trkpt><trkpt lat="43.315917783333326" lon="11.975865266666665"><ele>764.0</ele><time>2026-04-25T10:29:23.067Z</time></trkpt><trkpt lat="43.31585438333333" lon="11.975850099999999"><ele>764.0</ele><time>2026-04-25T10:29:26.061Z</time></trkpt><trkpt lat="43.315786016666664" lon="11.975840766666666"><ele>764.0</ele><time>2026-04-25T10:29:29.088Z</time></trkpt><trkpt lat="43.31571635" lon="11.975857383333334"><ele>764.0</ele><time>2026-04-25T10:29:33.093Z</time></trkpt><trkpt lat="43.315641983333336" lon="11.975851050000001"><ele>761.7142857142858</ele><time>2026-04-25T10:29:37.094Z</time></trkpt><trkpt lat="43.31557123333334" lon="11.975846366666667"><ele>759.4285714285713</ele><time>2026-04-25T10:29:41.098Z</time></trkpt><trkpt lat="43.31550046666666" lon="11.975862516666668"><ele>757.1428571428571</ele><time>2026-04-25T10:29:45.093Z</time></trkpt><trkpt lat="43.315442299999994" lon="11.975898116666666"><ele>754.8571428571429</ele><time>2026-04-25T10:29:48.109Z</time></trkpt><trkpt lat="43.31537186666666" lon="11.975940033333332"><ele>752.5714285714287</ele><time>2026-04-25T10:29:52.098Z</time></trkpt><trkpt lat="43.31530254999999" lon="11.975977383333335"><ele>750.2857142857142</ele><time>2026-04-25T10:29:56.096Z</time></trkpt><trkpt lat="43.3152276" lon="11.9760126"><ele>748.0</ele><time>2026-04-25T10:30:00.1Z</time></trkpt><trkpt lat="43.31516716666667" lon="11.976051133333332"><ele>748.0</ele><time>2026-04-25T10:30:03.116Z</time></trkpt><trkpt lat="43.315107850000004" lon="11.976092566666667"><ele>748.0</ele><time>2026-04-25T10:30:07.129Z</time></trkpt><trkpt lat="43.315048766666656" lon="11.976129883333332"><ele>748.0</ele><time>2026-04-25T10:30:12.123Z</time></trkpt><trkpt lat="43.31501313333333" lon="11.976222600000002"><ele>748.0</ele><time>2026-04-25T10:30:16.139Z</time></trkpt><trkpt lat="43.31496731666666" lon="11.976298133333334"><ele>748.0</ele><time>2026-04-25T10:30:19.129Z</time></trkpt><trkpt lat="43.3149128" lon="11.976366283333334"><ele>748.0</ele><time>2026-04-25T10:30:22.133Z</time></trkpt><trkpt lat="43.314849766666676" lon="11.97641725"><ele>748.0</ele><time>2026-04-25T10:30:25.149Z</time></trkpt><trkpt lat="43.3147734" lon="11.976413183333333"><ele>748.2857142857142</ele><time>2026-04-25T10:30:28.147Z</time></trkpt><trkpt lat="43.314693133333336" lon="11.976391766666667"><ele>748.5714285714287</ele><time>2026-04-25T10:30:31.148Z</time></trkpt><trkpt lat="43.31461908333334" lon="11.976379349999998"><ele>748.8571428571429</ele><time>2026-04-25T10:30:34.159Z</time></trkpt><trkpt lat="43.31456121666667" lon="11.976338233333335"><ele>749.1428571428571</ele><time>2026-04-25T10:30:37.149Z</time></trkpt><trkpt lat="43.31450536666666" lon="11.976284133333337"><ele>749.4285714285713</ele><time>2026-04-25T10:30:53.2Z</time></trkpt><trkpt lat="43.31445036666668" lon="11.976224666666669"><ele>749.7142857142858</ele><time>2026-04-25T10:30:57.186Z</time></trkpt><trkpt lat="43.31439861666666" lon="11.9761602"><ele>750.0</ele><time>2026-04-25T10:31:00.225Z</time></trkpt><trkpt lat="43.31434816666667" lon="11.976091266666666"><ele>750.0</ele><time>2026-04-25T10:31:04.177Z</time></trkpt><trkpt lat="43.31429835" lon="11.976030683333333"><ele>750.0</ele><time>2026-04-25T10:31:07.198Z</time></trkpt><trkpt lat="43.3142455" lon="11.975968783333334"><ele>750.0</ele><time>2026-04-25T10:31:10.202Z</time></trkpt><trkpt lat="43.31419596666667" lon="11.975896616666667"><ele>750.0</ele><time>2026-04-25T10:31:13.212Z</time></trkpt><trkpt lat="43.31414378333334" lon="11.975830383333335"><ele>750.0</ele><time>2026-04-25T10:31:16.228Z</time></trkpt><trkpt lat="43.31408051666667" lon="11.975747750000002"><ele>750.0</ele><time>2026-04-25T10:31:20.218Z</time></trkpt><trkpt lat="43.31403135000001" lon="11.9756899"><ele>750.0</ele><time>2026-04-25T10:31:23.203Z</time></trkpt><trkpt lat="43.313982466666666" lon="11.975623700000002"><ele>747.8571428571429</ele><time>2026-04-25T10:31:27.222Z</time></trkpt><trkpt lat="43.31393198333334" lon="11.975554616666667"><ele>745.7142857142857</ele><time>2026-04-25T10:31:31.212Z</time></trkpt><trkpt lat="43.31387543333334" lon="11.975491366666665"><ele>743.5714285714286</ele><time>2026-04-25T10:31:35.222Z</time></trkpt><trkpt lat="43.31381925000001" lon="11.975439850000003"><ele>741.4285714285714</ele><time>2026-04-25T10:31:39.217Z</time></trkpt><trkpt lat="43.313771333333335" lon="11.97537295"><ele>739.2857142857142</ele><time>2026-04-25T10:31:43.234Z</time></trkpt><trkpt lat="43.313713899999996" lon="11.975301883333335"><ele>737.1428571428571</ele><time>2026-04-25T10:31:47.247Z</time></trkpt><trkpt lat="43.31366930000001" lon="11.975232933333332"><ele>735.0</ele><time>2026-04-25T10:31:51.234Z</time></trkpt><trkpt lat="43.313605083333336" lon="11.975174466666665"><ele>735.0</ele><time>2026-04-25T10:31:55.257Z</time></trkpt><trkpt lat="43.31353373333333" lon="11.975121699999999"><ele>735.0</ele><time>2026-04-25T10:31:59.24Z</time></trkpt><trkpt lat="43.31346855" lon="11.975051916666667"><ele>735.0</ele><time>2026-04-25T10:32:03.263Z</time></trkpt><trkpt lat="43.31341921666667" lon="11.974993833333334"><ele>735.0</ele><time>2026-04-25T10:32:06.252Z</time></trkpt><trkpt lat="43.31335049999999" lon="11.974950349999999"><ele>735.0</ele><time>2026-04-25T10:32:09.255Z</time></trkpt><trkpt lat="43.31329211666666" lon="11.974915516666666"><ele>735.0</ele><time>2026-04-25T10:32:12.263Z</time></trkpt><trkpt lat="43.3132217" lon="11.974886883333333"><ele>735.0</ele><time>2026-04-25T10:32:16.278Z</time></trkpt><trkpt lat="43.31314675" lon="11.97485353333333"><ele>730.5</ele><time>2026-04-25T10:32:20.279Z</time></trkpt><trkpt lat="43.31307425" lon="11.974803666666666"><ele>726.0</ele><time>2026-04-25T10:32:24.289Z</time></trkpt><trkpt lat="43.31300103333333" lon="11.974756516666666"><ele>721.5</ele><time>2026-04-25T10:32:28.287Z</time></trkpt><trkpt lat="43.312971749999996" lon="11.974676749999999"><ele>717.0</ele><time>2026-04-25T10:32:35.335Z</time></trkpt><trkpt lat="43.313039633333325" lon="11.974638116666664"><ele>712.5</ele><time>2026-04-25T10:32:49.306Z</time></trkpt><trkpt lat="43.31312128333334" lon="11.974629466666665"><ele>708.0</ele><time>2026-04-25T10:32:53.327Z</time></trkpt><trkpt lat="43.313189333333334" lon="11.974615616666666"><ele>708.0</ele><time>2026-04-25T10:32:56.323Z</time></trkpt><trkpt lat="43.31325615000001" lon="11.974579483333331"><ele>708.0</ele><time>2026-04-25T10:33:00.332Z</time></trkpt><trkpt lat="43.313325" lon="11.974543783333337"><ele>708.0</ele><time>2026-04-25T10:33:04.349Z</time></trkpt><trkpt lat="43.31338948333334" lon="11.974532566666667"><ele>708.0</ele><time>2026-04-25T10:33:08.339Z</time></trkpt><trkpt lat="43.31346856666667" lon="11.97454295"><ele>708.0</ele><time>2026-04-25T10:33:12.354Z</time></trkpt><trkpt lat="43.313553133333336" lon="11.974544566666667"><ele>708.0</ele><time>2026-04-25T10:33:16.347Z</time></trkpt><trkpt lat="43.313623516666674" lon="11.974567166666668"><ele>708.0</ele><time>2026-04-25T10:33:19.354Z</time></trkpt><trkpt lat="43.31370401666666" lon="11.974582066666668"><ele>708.0</ele><time>2026-04-25T10:33:23.377Z</time></trkpt><trkpt lat="43.31376773333333" lon="11.974596883333332"><ele>708.0</ele><time>2026-04-25T10:33:26.36Z</time></trkpt><trkpt lat="43.31384289999999" lon="11.974623899999997"><ele>708.0</ele><time>2026-04-25T10:33:30.387Z</time></trkpt><trkpt lat="43.31390536666666" lon="11.974648633333333"><ele>708.0</ele><time>2026-04-25T10:33:33.386Z</time></trkpt><trkpt lat="43.313965333333336" lon="11.974682866666669"><ele>708.0</ele><time>2026-04-25T10:33:36.375Z</time></trkpt><trkpt lat="43.31403356666666" lon="11.97470595"><ele>708.0</ele><time>2026-04-25T10:33:40.405Z</time></trkpt><trkpt lat="43.31411198333333" lon="11.974709016666669"><ele>708.0</ele><time>2026-04-25T10:33:44.4Z</time></trkpt><trkpt lat="43.314178766666664" lon="11.974665783333334"><ele>706.1666666666666</ele><time>2026-04-25T10:33:47.397Z</time></trkpt><trkpt lat="43.31421281666667" lon="11.974573133333335"><ele>704.3333333333334</ele><time>2026-04-25T10:33:50.405Z</time></trkpt><trkpt lat="43.314226049999995" lon="11.974458816666667"><ele>702.5</ele><time>2026-04-25T10:33:54.393Z</time></trkpt><trkpt lat="43.31422778333334" lon="11.974345716666669"><ele>700.6666666666667</ele><time>2026-04-25T10:33:58.409Z</time></trkpt><trkpt lat="43.31422965" lon="11.9742385"><ele>698.8333333333334</ele><time>2026-04-25T10:34:02.4Z</time></trkpt><trkpt lat="43.31425621666667" lon="11.97415585"><ele>697.0</ele><time>2026-04-25T10:34:05.41Z</time></trkpt><trkpt lat="43.31430113333332" lon="11.974093349999999"><ele>693.2857142857143</ele><time>2026-04-25T10:34:08.525Z</time></trkpt><trkpt lat="43.314368483333325" lon="11.97405075"><ele>689.5714285714286</ele><time>2026-04-25T10:34:11.514Z</time></trkpt><trkpt lat="43.31442998333333" lon="11.973987933333333"><ele>685.8571428571429</ele><time>2026-04-25T10:34:14.525Z</time></trkpt><trkpt lat="43.314469249999995" lon="11.973908500000002"><ele>682.1428571428571</ele><time>2026-04-25T10:34:17.53Z</time></trkpt><trkpt lat="43.31450233333334" lon="11.973826799999998"><ele>678.4285714285714</ele><time>2026-04-25T10:34:20.55Z</time></trkpt><trkpt lat="43.31455040000001" lon="11.973735633333334"><ele>674.7142857142857</ele><time>2026-04-25T10:34:24.535Z</time></trkpt><trkpt lat="43.31458063333332" lon="11.9736474"><ele>671.0</ele><time>2026-04-25T10:34:27.53Z</time></trkpt><trkpt lat="43.3146063" lon="11.973551416666664"><ele>671.0</ele><time>2026-04-25T10:34:30.539Z</time></trkpt><trkpt lat="43.31462373333334" lon="11.973448316666667"><ele>671.0</ele><time>2026-04-25T10:34:33.545Z</time></trkpt><trkpt lat="43.31465068333333" lon="11.973361633333331"><ele>671.0</ele><time>2026-04-25T10:34:36.555Z</time></trkpt><trkpt lat="43.31467429999999" lon="11.973274783333332"><ele>671.0</ele><time>2026-04-25T10:34:39.559Z</time></trkpt><trkpt lat="43.31471048333333" lon="11.97318255"><ele>671.0</ele><time>2026-04-25T10:34:42.55Z</time></trkpt><trkpt lat="43.314752733333336" lon="11.973075683333333"><ele>671.0</ele><time>2026-04-25T10:34:45.562Z</time></trkpt><trkpt lat="43.31478608333334" lon="11.972965916666665"><ele>671.2857142857142</ele><time>2026-04-25T10:34:48.571Z</time></trkpt><trkpt lat="43.31481706666666" lon="11.972866466666668"><ele>671.5714285714287</ele><time>2026-04-25T10:34:51.57Z</time></trkpt><trkpt lat="43.31483648333333" lon="11.972771366666667"><ele>671.8571428571429</ele><time>2026-04-25T10:34:54.575Z</time></trkpt><trkpt lat="43.314856483333344" lon="11.972668066666666"><ele>672.1428571428571</ele><time>2026-04-25T10:34:57.577Z</time></trkpt><trkpt lat="43.31485263333334" lon="11.972576983333333"><ele>672.4285714285713</ele><time>2026-04-25T10:35:00.583Z</time></trkpt><trkpt lat="43.31482728333334" lon="11.97247915"><ele>672.7142857142858</ele><time>2026-04-25T10:35:03.583Z</time></trkpt><trkpt lat="43.314791650000004" lon="11.972385000000001"><ele>673.0</ele><time>2026-04-25T10:35:06.58Z</time></trkpt><trkpt lat="43.314742300000006" lon="11.972280366666666"><ele>668.5714285714286</ele><time>2026-04-25T10:35:09.587Z</time></trkpt><trkpt lat="43.31470006666667" lon="11.972181433333333"><ele>664.1428571428571</ele><time>2026-04-25T10:35:12.593Z</time></trkpt><trkpt lat="43.31467578333333" lon="11.972094766666665"><ele>659.7142857142857</ele><time>2026-04-25T10:35:15.59Z</time></trkpt><trkpt lat="43.3146556" lon="11.971994033333331"><ele>655.2857142857142</ele><time>2026-04-25T10:35:19.589Z</time></trkpt><trkpt lat="43.314649633333325" lon="11.971892216666665"><ele>650.8571428571429</ele><time>2026-04-25T10:35:23.613Z</time></trkpt><trkpt lat="43.314640466666674" lon="11.97180305"><ele>646.4285714285713</ele><time>2026-04-25T10:35:26.614Z</time></trkpt><trkpt lat="43.3146469" lon="11.971712749999998"><ele>642.0</ele><time>2026-04-25T10:35:29.62Z</time></trkpt><trkpt lat="43.31466366666667" lon="11.971616433333335"><ele>641.2857142857142</ele><time>2026-04-25T10:35:57.639Z</time></trkpt><trkpt lat="43.31462086666667" lon="11.971550783333333"><ele>640.5714285714286</ele><time>2026-04-25T10:36:02.643Z</time></trkpt><trkpt lat="43.31456081666667" lon="11.971523349999998"><ele>639.8571428571429</ele><time>2026-04-25T10:36:07.663Z</time></trkpt><trkpt lat="43.31449685" lon="11.971510716666668"><ele>639.1428571428571</ele><time>2026-04-25T10:36:39.688Z</time></trkpt><trkpt lat="43.31442196666667" lon="11.971522883333334"><ele>638.4285714285714</ele><time>2026-04-25T10:36:45.688Z</time></trkpt><trkpt lat="43.314352400000004" lon="11.971547883333335"><ele>637.7142857142857</ele><time>2026-04-25T10:36:49.709Z</time></trkpt><trkpt lat="43.31426955" lon="11.971564933333333"><ele>637.0</ele><time>2026-04-25T10:36:53.713Z</time></trkpt><trkpt lat="43.31418651666666" lon="11.97158978333333"><ele>637.0</ele><time>2026-04-25T10:36:57.709Z</time></trkpt><trkpt lat="43.314116150000004" lon="11.971602166666665"><ele>637.0</ele><time>2026-04-25T10:37:00.721Z</time></trkpt><trkpt lat="43.31405265000001" lon="11.971623766666667"><ele>637.0</ele><time>2026-04-25T10:37:03.713Z</time></trkpt><trkpt lat="43.31398843333333" lon="11.9716518"><ele>637.0</ele><time>2026-04-25T10:37:06.813Z</time></trkpt><trkpt lat="43.3139203" lon="11.971706633333334"><ele>637.0</ele><time>2026-04-25T10:37:10.836Z</time></trkpt><trkpt lat="43.31389533333333" lon="11.971804116666664"><ele>637.0</ele><time>2026-04-25T10:37:14.834Z</time></trkpt><trkpt lat="43.31394435000001" lon="11.971884133333333"><ele>637.0</ele><time>2026-04-25T10:37:18.843Z</time></trkpt><trkpt lat="43.3140037" lon="11.971955433333335"><ele>637.8333333333334</ele><time>2026-04-25T10:37:22.838Z</time></trkpt><trkpt lat="43.3139793" lon="11.972067566666665"><ele>638.6666666666667</ele><time>2026-04-25T10:37:26.848Z</time></trkpt><trkpt lat="43.31392016666667" lon="11.972146300000002"><ele>639.5</ele><time>2026-04-25T10:37:29.861Z</time></trkpt><trkpt lat="43.31386308333334" lon="11.972232833333331"><ele>640.3333333333334</ele><time>2026-04-25T10:37:32.848Z</time></trkpt><trkpt lat="43.31380445" lon="11.972307683333336"><ele>641.1666666666666</ele><time>2026-04-25T10:37:35.858Z</time></trkpt><trkpt lat="43.31375551666667" lon="11.972385416666668"><ele>642.0</ele><time>2026-04-25T10:37:38.865Z</time></trkpt><trkpt lat="43.31371455000001" lon="11.972454666666666"><ele>642.0</ele><time>2026-04-25T10:37:41.858Z</time></trkpt><trkpt lat="43.31367088333333" lon="11.972555283333334"><ele>642.0</ele><time>2026-04-25T10:37:45.875Z</time></trkpt><trkpt lat="43.31363535" lon="11.972661883333334"><ele>642.0</ele><time>2026-04-25T10:37:49.863Z</time></trkpt><trkpt lat="43.313591683333335" lon="11.972736000000001"><ele>642.0</ele><time>2026-04-25T10:37:53.878Z</time></trkpt><trkpt lat="43.313519666666664" lon="11.972738566666665"><ele>642.0</ele><time>2026-04-25T10:37:57.89Z</time></trkpt><trkpt lat="43.313446533333334" lon="11.972681416666667"><ele>642.0</ele><time>2026-04-25T10:38:01.883Z</time></trkpt><trkpt lat="43.31345206666666" lon="11.97258875"><ele>638.8333333333334</ele><time>2026-04-25T10:38:04.9Z</time></trkpt><trkpt lat="43.31349886666666" lon="11.972503133333332"><ele>635.6666666666666</ele><time>2026-04-25T10:38:08.889Z</time></trkpt><trkpt lat="43.31354181666667" lon="11.97241765"><ele>632.5</ele><time>2026-04-25T10:38:11.908Z</time></trkpt><trkpt lat="43.31358653333333" lon="11.972320733333333"><ele>629.3333333333333</ele><time>2026-04-25T10:38:15.912Z</time></trkpt><trkpt lat="43.313579733333334" lon="11.972220683333333"><ele>626.1666666666666</ele><time>2026-04-25T10:38:18.905Z</time></trkpt><trkpt lat="43.31351306666667" lon="11.972166516666666"><ele>623.0</ele><time>2026-04-25T10:38:21.916Z</time></trkpt><trkpt lat="43.3134333" lon="11.972166566666665"><ele>623.0</ele><time>2026-04-25T10:38:24.904Z</time></trkpt><trkpt lat="43.31336158333333" lon="11.972184966666669"><ele>623.0</ele><time>2026-04-25T10:38:27.911Z</time></trkpt><trkpt lat="43.31328226666666" lon="11.972160266666668"><ele>623.0</ele><time>2026-04-25T10:38:31.926Z</time></trkpt><trkpt lat="43.313239633333325" lon="11.972083866666665"><ele>623.0</ele><time>2026-04-25T10:38:35.941Z</time></trkpt><trkpt lat="43.31323326666667" lon="11.9719851"><ele>623.0</ele><time>2026-04-25T10:38:39.933Z</time></trkpt><trkpt lat="43.31320155" lon="11.971890933333334"><ele>623.0</ele><time>2026-04-25T10:38:44.954Z</time></trkpt><trkpt lat="43.313125716666676" lon="11.971900483333332"><ele>623.0</ele><time>2026-04-25T10:39:07.974Z</time></trkpt><trkpt lat="43.313106749999996" lon="11.971986066666666"><ele>621.1666666666666</ele><time>2026-04-25T10:39:10.973Z</time></trkpt><trkpt lat="43.313062300000006" lon="11.972070016666665"><ele>619.3333333333333</ele><time>2026-04-25T10:39:13.988Z</time></trkpt><trkpt lat="43.313005583333336" lon="11.97214926666667"><ele>617.5</ele><time>2026-04-25T10:39:16.986Z</time></trkpt><trkpt lat="43.312949133333326" lon="11.972213983333331"><ele>615.6666666666666</ele><time>2026-04-25T10:39:19.987Z</time></trkpt><trkpt lat="43.31289855" lon="11.972290516666666"><ele>613.8333333333334</ele><time>2026-04-25T10:39:23Z</time></trkpt><trkpt lat="43.312849683333326" lon="11.9723656"><ele>612.0</ele><time>2026-04-25T10:39:26.01Z</time></trkpt><trkpt lat="43.31281725000001" lon="11.972454049999998"><ele>612.0</ele><time>2026-04-25T10:39:29.028Z</time></trkpt><trkpt lat="43.31276195" lon="11.972533666666667"><ele>612.0</ele><time>2026-04-25T10:39:32.015Z</time></trkpt><trkpt lat="43.31269256666666" lon="11.9725503"><ele>612.0</ele><time>2026-04-25T10:39:35.006Z</time></trkpt><trkpt lat="43.31262306666666" lon="11.972541916666668"><ele>612.0</ele><time>2026-04-25T10:39:38.026Z</time></trkpt><trkpt lat="43.312546966666666" lon="11.972542816666664"><ele>612.0</ele><time>2026-04-25T10:39:41.026Z</time></trkpt><trkpt lat="43.31247161666667" lon="11.972509516666667"><ele>612.0</ele><time>2026-04-25T10:39:44.035Z</time></trkpt><trkpt lat="43.31240209999999" lon="11.972498583333333"><ele>612.0</ele><time>2026-04-25T10:39:47.025Z</time></trkpt><trkpt lat="43.31233518333334" lon="11.9724572"><ele>612.0</ele><time>2026-04-25T10:39:50.032Z</time></trkpt><trkpt lat="43.31226561666668" lon="11.9724179"><ele>612.0</ele><time>2026-04-25T10:39:53.041Z</time></trkpt><trkpt lat="43.31220055000001" lon="11.97237105"><ele>612.0</ele><time>2026-04-25T10:39:56.057Z</time></trkpt><trkpt lat="43.31214006666667" lon="11.972313616666668"><ele>612.0</ele><time>2026-04-25T10:39:59.056Z</time></trkpt><trkpt lat="43.31207888333333" lon="11.972236999999998"><ele>612.0</ele><time>2026-04-25T10:40:03.064Z</time></trkpt><trkpt lat="43.312023950000004" lon="11.972172433333332"><ele>612.0</ele><time>2026-04-25T10:40:06.065Z</time></trkpt><trkpt lat="43.31196785" lon="11.97211575"><ele>612.0</ele><time>2026-04-25T10:40:09.053Z</time></trkpt><trkpt lat="43.311914466666664" lon="11.972050650000002"><ele>613.1666666666666</ele><time>2026-04-25T10:40:12.073Z</time></trkpt><trkpt lat="43.311861533333335" lon="11.971988983333333"><ele>614.3333333333334</ele><time>2026-04-25T10:40:15.072Z</time></trkpt><trkpt lat="43.3117938" lon="11.971931316666668"><ele>615.5</ele><time>2026-04-25T10:40:18.071Z</time></trkpt><trkpt lat="43.31173773333333" lon="11.971883283333332"><ele>616.6666666666667</ele><time>2026-04-25T10:40:21.079Z</time></trkpt><trkpt lat="43.311666849999995" lon="11.971821849999998"><ele>617.8333333333334</ele><time>2026-04-25T10:40:25.094Z</time></trkpt><trkpt lat="43.31159631666666" lon="11.971795149999998"><ele>619.0</ele><time>2026-04-25T10:40:28.086Z</time></trkpt><trkpt lat="43.31151608333333" lon="11.97174945"><ele>619.0</ele><time>2026-04-25T10:40:31.095Z</time></trkpt><trkpt lat="43.31143663333334" lon="11.9717147"><ele>619.0</ele><time>2026-04-25T10:40:34.099Z</time></trkpt><trkpt lat="43.31136016666666" lon="11.971664666666667"><ele>619.0</ele><time>2026-04-25T10:40:37.094Z</time></trkpt><trkpt lat="43.3112995" lon="11.9716377"><ele>619.0</ele><time>2026-04-25T10:40:39.1Z</time></trkpt><trkpt lat="43.311221633333325" lon="11.971609033333333"><ele>619.0</ele><time>2026-04-25T10:40:42.111Z</time></trkpt><trkpt lat="43.31113643333333" lon="11.971581533333332"><ele>619.0</ele><time>2026-04-25T10:40:45.121Z</time></trkpt><trkpt lat="43.31106548333334" lon="11.97156025"><ele>616.0</ele><time>2026-04-25T10:40:48.129Z</time></trkpt><trkpt lat="43.31097951666667" lon="11.971544433333335"><ele>613.0</ele><time>2026-04-25T10:40:51.121Z</time></trkpt><trkpt lat="43.31089563333333" lon="11.971536933333335"><ele>610.0</ele><time>2026-04-25T10:40:54.137Z</time></trkpt><trkpt lat="43.31081566666667" lon="11.971550333333333"><ele>607.0</ele><time>2026-04-25T10:40:57.141Z</time></trkpt><trkpt lat="43.31072438333334" lon="11.9715362"><ele>604.0</ele><time>2026-04-25T10:41:00.137Z</time></trkpt><trkpt lat="43.31065416666667" lon="11.971532016666666"><ele>601.0</ele><time>2026-04-25T10:41:03.141Z</time></trkpt><trkpt lat="43.31057966666667" lon="11.971500716666664"><ele>604.0</ele><time>2026-04-25T10:41:06.149Z</time></trkpt><trkpt lat="43.31051666666667" lon="11.971453100000002"><ele>607.0</ele><time>2026-04-25T10:41:09.142Z</time></trkpt><trkpt lat="43.310465783333335" lon="11.971390350000002"><ele>610.0</ele><time>2026-04-25T10:41:12.162Z</time></trkpt><trkpt lat="43.31040374999999" lon="11.971341633333335"><ele>613.0</ele><time>2026-04-25T10:41:15.162Z</time></trkpt><trkpt lat="43.31033503333333" lon="11.971316316666664"><ele>616.0</ele><time>2026-04-25T10:41:18.152Z</time></trkpt><trkpt lat="43.31025706666666" lon="11.9712597"><ele>619.0</ele><time>2026-04-25T10:41:21.169Z</time></trkpt><trkpt lat="43.310207866666666" lon="11.971179583333331"><ele>622.0</ele><time>2026-04-25T10:41:24.178Z</time></trkpt><trkpt lat="43.310185116666666" lon="11.971095983333331"><ele>622.0</ele><time>2026-04-25T10:41:26.161Z</time></trkpt><trkpt lat="43.31016391666667" lon="11.970990050000001"><ele>622.0</ele><time>2026-04-25T10:41:29.175Z</time></trkpt><trkpt lat="43.310129350000004" lon="11.970893433333332"><ele>622.0</ele><time>2026-04-25T10:41:32.187Z</time></trkpt><trkpt lat="43.31008573333333" lon="11.970800716666668"><ele>622.0</ele><time>2026-04-25T10:41:35.194Z</time></trkpt><trkpt lat="43.310043666666665" lon="11.970710916666667"><ele>622.0</ele><time>2026-04-25T10:41:38.189Z</time></trkpt><trkpt lat="43.31000434999999" lon="11.970618516666665"><ele>622.0</ele><time>2026-04-25T10:41:41.191Z</time></trkpt><trkpt lat="43.30996303333333" lon="11.970526749999998"><ele>619.1428571428571</ele><time>2026-04-25T10:41:44.204Z</time></trkpt><trkpt lat="43.30992150000001" lon="11.970444083333332"><ele>616.2857142857143</ele><time>2026-04-25T10:41:47.2Z</time></trkpt><trkpt lat="43.30987728333333" lon="11.970359766666665"><ele>613.4285714285714</ele><time>2026-04-25T10:41:50.2Z</time></trkpt><trkpt lat="43.30985125" lon="11.970279483333334"><ele>610.5714285714286</ele><time>2026-04-25T10:41:53.196Z</time></trkpt><trkpt lat="43.30983136666667" lon="11.970171816666667"><ele>607.7142857142858</ele><time>2026-04-25T10:41:56.233Z</time></trkpt><trkpt lat="43.30985408333332" lon="11.970080433333333"><ele>604.8571428571429</ele><time>2026-04-25T10:41:59.217Z</time></trkpt><trkpt lat="43.30988228333334" lon="11.969975"><ele>602.0</ele><time>2026-04-25T10:42:02.222Z</time></trkpt><trkpt lat="43.309895016666665" lon="11.969862116666665"><ele>600.1666666666666</ele><time>2026-04-25T10:42:05.212Z</time></trkpt><trkpt lat="43.30988983333333" lon="11.969756816666665"><ele>598.3333333333333</ele><time>2026-04-25T10:42:08.224Z</time></trkpt><trkpt lat="43.30985093333334" lon="11.96966175"><ele>596.5</ele><time>2026-04-25T10:42:11.219Z</time></trkpt><trkpt lat="43.3098069" lon="11.969576483333332"><ele>594.6666666666666</ele><time>2026-04-25T10:42:14.223Z</time></trkpt><trkpt lat="43.3097661" lon="11.969479233333333"><ele>592.8333333333334</ele><time>2026-04-25T10:42:17.237Z</time></trkpt><trkpt lat="43.3097247" lon="11.969392333333333"><ele>591.0</ele><time>2026-04-25T10:42:20.244Z</time></trkpt><trkpt lat="43.30967021666667" lon="11.9693083"><ele>594.0</ele><time>2026-04-25T10:42:23.237Z</time></trkpt><trkpt lat="43.30961111666667" lon="11.969217483333333"><ele>597.0</ele><time>2026-04-25T10:42:26.242Z</time></trkpt><trkpt lat="43.30954945" lon="11.969148233333332"><ele>600.0</ele><time>2026-04-25T10:42:30.262Z</time></trkpt><trkpt lat="43.30949953333334" lon="11.969079033333331"><ele>603.0</ele><time>2026-04-25T10:42:33.249Z</time></trkpt><trkpt lat="43.30944613333333" lon="11.968998233333332"><ele>606.0</ele><time>2026-04-25T10:42:36.262Z</time></trkpt><trkpt lat="43.30938355" lon="11.968923400000001"><ele>609.0</ele><time>2026-04-25T10:42:39.267Z</time></trkpt><trkpt lat="43.30932601666667" lon="11.968845233333333"><ele>609.0</ele><time>2026-04-25T10:42:42.276Z</time></trkpt><trkpt lat="43.30928088333333" lon="11.968784100000002"><ele>609.0</ele><time>2026-04-25T10:42:44.262Z</time></trkpt><trkpt lat="43.30923515" lon="11.968719983333335"><ele>609.0</ele><time>2026-04-25T10:42:46.273Z</time></trkpt><trkpt lat="43.309191799999994" lon="11.968649349999998"><ele>609.0</ele><time>2026-04-25T10:42:48.276Z</time></trkpt><trkpt lat="43.30913965" lon="11.968547966666666"><ele>609.0</ele><time>2026-04-25T10:42:51.269Z</time></trkpt><trkpt lat="43.30908984999999" lon="11.968451166666666"><ele>609.0</ele><time>2026-04-25T10:42:54.277Z</time></trkpt><trkpt lat="43.30903538333334" lon="11.968356183333333"><ele>606.6666666666666</ele><time>2026-04-25T10:42:57.287Z</time></trkpt><trkpt lat="43.30900140000001" lon="11.968278116666667"><ele>604.3333333333334</ele><time>2026-04-25T10:42:59.275Z</time></trkpt><trkpt lat="43.3089628" lon="11.96819505"><ele>602.0</ele><time>2026-04-25T10:43:01.276Z</time></trkpt><trkpt lat="43.3089384" lon="11.968114766666666"><ele>599.6666666666667</ele><time>2026-04-25T10:43:03.287Z</time></trkpt><trkpt lat="43.30891376666666" lon="11.967996133333335"><ele>597.3333333333334</ele><time>2026-04-25T10:43:06.299Z</time></trkpt><trkpt lat="43.30887756666666" lon="11.967875399999999"><ele>595.0</ele><time>2026-04-25T10:43:09.289Z</time></trkpt><trkpt lat="43.308845016666666" lon="11.96775495"><ele>595.0</ele><time>2026-04-25T10:43:11.292Z</time></trkpt><trkpt lat="43.30883098333334" lon="11.9676299"><ele>595.0</ele><time>2026-04-25T10:43:14.31Z</time></trkpt><trkpt lat="43.308798100000004" lon="11.967511850000001"><ele>595.0</ele><time>2026-04-25T10:43:17.291Z</time></trkpt><trkpt lat="43.30875733333334" lon="11.96744046666667"><ele>595.0</ele><time>2026-04-25T10:43:19.296Z</time></trkpt><trkpt lat="43.30871953333334" lon="11.967362516666666"><ele>595.0</ele><time>2026-04-25T10:43:21.312Z</time></trkpt><trkpt lat="43.3086842" lon="11.967288666666665"><ele>595.0</ele><time>2026-04-25T10:43:23.317Z</time></trkpt><trkpt lat="43.308631166666665" lon="11.967191466666668"><ele>594.0</ele><time>2026-04-25T10:43:26.325Z</time></trkpt><trkpt lat="43.308581933333336" lon="11.967092466666669"><ele>593.0</ele><time>2026-04-25T10:43:29.32Z</time></trkpt><trkpt lat="43.30854616666667" lon="11.967018366666665"><ele>592.0</ele><time>2026-04-25T10:43:31.323Z</time></trkpt><trkpt lat="43.30851581666667" lon="11.966934833333333"><ele>591.0</ele><time>2026-04-25T10:43:33.325Z</time></trkpt><trkpt lat="43.30848120000001" lon="11.966815566666666"><ele>590.0</ele><time>2026-04-25T10:43:36.317Z</time></trkpt><trkpt lat="43.30845581666667" lon="11.966690816666668"><ele>589.0</ele><time>2026-04-25T10:43:39.33Z</time></trkpt><trkpt lat="43.30843421666667" lon="11.966607949999998"><ele>587.8333333333334</ele><time>2026-04-25T10:43:41.337Z</time></trkpt><trkpt lat="43.30841975" lon="11.966523733333334"><ele>586.6666666666667</ele><time>2026-04-25T10:43:43.331Z</time></trkpt><trkpt lat="43.30842558333333" lon="11.966408999999999"><ele>585.5</ele><time>2026-04-25T10:43:46.336Z</time></trkpt><trkpt lat="43.30845833333333" lon="11.966291349999999"><ele>584.3333333333334</ele><time>2026-04-25T10:43:49.33Z</time></trkpt><trkpt lat="43.30851715" lon="11.966195533333332"><ele>583.1666666666666</ele><time>2026-04-25T10:43:52.331Z</time></trkpt><trkpt lat="43.308548699999996" lon="11.966091583333332"><ele>582.0</ele><time>2026-04-25T10:43:55.346Z</time></trkpt><trkpt lat="43.308560366666676" lon="11.965970433333332"><ele>582.0</ele><time>2026-04-25T10:43:58.355Z</time></trkpt><trkpt lat="43.30854768333333" lon="11.965879150000001"><ele>582.0</ele><time>2026-04-25T10:44:00.355Z</time></trkpt><trkpt lat="43.308531233333326" lon="11.965795483333334"><ele>582.0</ele><time>2026-04-25T10:44:02.348Z</time></trkpt><trkpt lat="43.30850314999999" lon="11.965716683333335"><ele>582.0</ele><time>2026-04-25T10:44:04.362Z</time></trkpt><trkpt lat="43.30848778333334" lon="11.965603849999999"><ele>582.0</ele><time>2026-04-25T10:44:07.367Z</time></trkpt><trkpt lat="43.3084668" lon="11.965494933333332"><ele>582.0</ele><time>2026-04-25T10:44:10.348Z</time></trkpt><trkpt lat="43.308460066666676" lon="11.965371383333336"><ele>581.0</ele><time>2026-04-25T10:44:13.367Z</time></trkpt><trkpt lat="43.308444566666665" lon="11.965255033333335"><ele>580.0</ele><time>2026-04-25T10:44:16.37Z</time></trkpt><trkpt lat="43.308427383333346" lon="11.965171616666664"><ele>579.0</ele><time>2026-04-25T10:44:18.361Z</time></trkpt><trkpt lat="43.30840525000001" lon="11.965052583333334"><ele>578.0</ele><time>2026-04-25T10:44:21.375Z</time></trkpt><trkpt lat="43.30839146666667" lon="11.964966633333331"><ele>577.0</ele><time>2026-04-25T10:44:23.375Z</time></trkpt><trkpt lat="43.30837201666667" lon="11.964845416666668"><ele>576.0</ele><time>2026-04-25T10:44:26.367Z</time></trkpt><trkpt lat="43.30837181666667" lon="11.96472805"><ele>575.8333333333334</ele><time>2026-04-25T10:44:29.376Z</time></trkpt><trkpt lat="43.30838523333333" lon="11.964616666666666"><ele>575.6666666666666</ele><time>2026-04-25T10:44:32.392Z</time></trkpt><trkpt lat="43.30840511666667" lon="11.964502650000002"><ele>575.5</ele><time>2026-04-25T10:44:35.395Z</time></trkpt><trkpt lat="43.30840978333334" lon="11.964390933333336"><ele>575.3333333333333</ele><time>2026-04-25T10:44:38.395Z</time></trkpt><trkpt lat="43.308399333333334" lon="11.964280733333332"><ele>575.1666666666666</ele><time>2026-04-25T10:44:41.401Z</time></trkpt><trkpt lat="43.308393266666656" lon="11.964169533333331"><ele>575.0</ele><time>2026-04-25T10:44:44.385Z</time></trkpt><trkpt lat="43.30840065000001" lon="11.964069083333335"><ele>575.6666666666666</ele><time>2026-04-25T10:44:47.409Z</time></trkpt><trkpt lat="43.308413083333335" lon="11.963961716666667"><ele>576.3333333333333</ele><time>2026-04-25T10:44:50.408Z</time></trkpt><trkpt lat="43.30840436666667" lon="11.963861766666664"><ele>577.0</ele><time>2026-04-25T10:44:53.396Z</time></trkpt><trkpt lat="43.30837454999999" lon="11.963762466666667"><ele>577.6666666666666</ele><time>2026-04-25T10:44:56.407Z</time></trkpt><trkpt lat="43.30834428333333" lon="11.963661966666665"><ele>578.3333333333334</ele><time>2026-04-25T10:44:59.418Z</time></trkpt><trkpt lat="43.30834433333333" lon="11.963539183333333"><ele>579.0</ele><time>2026-04-25T10:45:03.429Z</time></trkpt><trkpt lat="43.30834515" lon="11.96344741666667"><ele>578.8333333333334</ele><time>2026-04-25T10:45:06.423Z</time></trkpt><trkpt lat="43.308330283333326" lon="11.963348933333336"><ele>578.6666666666666</ele><time>2026-04-25T10:45:09.425Z</time></trkpt><trkpt lat="43.30830318333333" lon="11.963264966666667"><ele>578.5</ele><time>2026-04-25T10:45:12.426Z</time></trkpt><trkpt lat="43.30827626666666" lon="11.963175666666666"><ele>578.3333333333333</ele><time>2026-04-25T10:45:15.43Z</time></trkpt><trkpt lat="43.30825525" lon="11.963091333333333"><ele>578.1666666666666</ele><time>2026-04-25T10:45:17.443Z</time></trkpt><trkpt lat="43.308203850000005" lon="11.962986666666664"><ele>578.0</ele><time>2026-04-25T10:45:20.423Z</time></trkpt><trkpt lat="43.30815646666667" lon="11.962882149999999"><ele>578.0</ele><time>2026-04-25T10:45:23.43Z</time></trkpt><trkpt lat="43.308121766666666" lon="11.962780833333333"><ele>578.0</ele><time>2026-04-25T10:45:26.449Z</time></trkpt><trkpt lat="43.30808913333333" lon="11.962673433333336"><ele>578.0</ele><time>2026-04-25T10:45:29.465Z</time></trkpt><trkpt lat="43.30805373333333" lon="11.962560199999999"><ele>578.0</ele><time>2026-04-25T10:45:32.447Z</time></trkpt><trkpt lat="43.308018966666666" lon="11.962442283333335"><ele>578.0</ele><time>2026-04-25T10:45:35.458Z</time></trkpt><trkpt lat="43.307979833333334" lon="11.962330233333333"><ele>578.0</ele><time>2026-04-25T10:45:38.445Z</time></trkpt><trkpt lat="43.30794805" lon="11.9622205"><ele>577.6666666666666</ele><time>2026-04-25T10:45:41.45Z</time></trkpt><trkpt lat="43.30790898333333" lon="11.962119399999999"><ele>577.3333333333333</ele><time>2026-04-25T10:45:44.475Z</time></trkpt><trkpt lat="43.307867383333324" lon="11.962009550000001"><ele>577.0</ele><time>2026-04-25T10:45:47.467Z</time></trkpt><trkpt lat="43.30783298333334" lon="11.961905549999999"><ele>576.6666666666666</ele><time>2026-04-25T10:45:50.468Z</time></trkpt><trkpt lat="43.30781055000001" lon="11.961794850000002"><ele>576.3333333333334</ele><time>2026-04-25T10:45:53.475Z</time></trkpt><trkpt lat="43.307795466666654" lon="11.961710783333334"><ele>576.0</ele><time>2026-04-25T10:45:55.482Z</time></trkpt><trkpt lat="43.30777158333334" lon="11.961593366666667"><ele>574.8333333333334</ele><time>2026-04-25T10:45:58.48Z</time></trkpt><trkpt lat="43.30773871666667" lon="11.9614797"><ele>573.6666666666666</ele><time>2026-04-25T10:46:01.488Z</time></trkpt><trkpt lat="43.30770883333333" lon="11.961374383333334"><ele>572.5</ele><time>2026-04-25T10:46:04.493Z</time></trkpt><trkpt lat="43.30768509999999" lon="11.961257049999999"><ele>571.3333333333333</ele><time>2026-04-25T10:46:07.488Z</time></trkpt><trkpt lat="43.30765783333333" lon="11.961138266666667"><ele>570.1666666666666</ele><time>2026-04-25T10:46:10.48Z</time></trkpt><trkpt lat="43.30763318333334" lon="11.961030200000001"><ele>569.0</ele><time>2026-04-25T10:46:13.509Z</time></trkpt><trkpt lat="43.30760838333334" lon="11.960909183333335"><ele>568.3333333333333</ele><time>2026-04-25T10:46:16.498Z</time></trkpt><trkpt lat="43.30757376666668" lon="11.960801550000001"><ele>567.6666666666666</ele><time>2026-04-25T10:46:19.488Z</time></trkpt><trkpt lat="43.30752576666667" lon="11.960702116666669"><ele>567.0</ele><time>2026-04-25T10:46:22.493Z</time></trkpt><trkpt lat="43.307465466666656" lon="11.960618516666667"><ele>566.3333333333334</ele><time>2026-04-25T10:46:25.51Z</time></trkpt><trkpt lat="43.30742046666666" lon="11.960556166666667"><ele>565.6666666666667</ele><time>2026-04-25T10:46:27.519Z</time></trkpt><trkpt lat="43.30737581666667" lon="11.960490483333334"><ele>565.0</ele><time>2026-04-25T10:46:29.52Z</time></trkpt><trkpt lat="43.30733661666666" lon="11.960419649999997"><ele>565.0</ele><time>2026-04-25T10:46:31.503Z</time></trkpt><trkpt lat="43.30729023333333" lon="11.960313833333332"><ele>565.0</ele><time>2026-04-25T10:46:34.518Z</time></trkpt><trkpt lat="43.3072563" lon="11.9602077"><ele>565.0</ele><time>2026-04-25T10:46:37.522Z</time></trkpt><trkpt lat="43.30724228333333" lon="11.960084083333333"><ele>565.0</ele><time>2026-04-25T10:46:40.526Z</time></trkpt><trkpt lat="43.307229583333346" lon="11.959965733333334"><ele>565.0</ele><time>2026-04-25T10:46:43.531Z</time></trkpt><trkpt lat="43.307216683333344" lon="11.959855916666667"><ele>565.0</ele><time>2026-04-25T10:46:46.563Z</time></trkpt><trkpt lat="43.3071993" lon="11.959738283333335"><ele>563.0</ele><time>2026-04-25T10:46:49.559Z</time></trkpt><trkpt lat="43.30716528333334" lon="11.959621816666667"><ele>561.0</ele><time>2026-04-25T10:46:52.552Z</time></trkpt><trkpt lat="43.30713966666667" lon="11.959540983333333"><ele>559.0</ele><time>2026-04-25T10:46:54.537Z</time></trkpt><trkpt lat="43.3070934" lon="11.959432616666666"><ele>557.0</ele><time>2026-04-25T10:46:57.566Z</time></trkpt><trkpt lat="43.30704961666667" lon="11.959329533333333"><ele>555.0</ele><time>2026-04-25T10:47:00.547Z</time></trkpt><trkpt lat="43.307012083333326" lon="11.959216183333334"><ele>553.0</ele><time>2026-04-25T10:47:03.554Z</time></trkpt><trkpt lat="43.306980116666665" lon="11.959097916666668"><ele>553.0</ele><time>2026-04-25T10:47:06.564Z</time></trkpt><trkpt lat="43.30693981666667" lon="11.958992116666664"><ele>553.0</ele><time>2026-04-25T10:47:09.565Z</time></trkpt><trkpt lat="43.306882550000005" lon="11.958907383333333"><ele>553.0</ele><time>2026-04-25T10:47:12.582Z</time></trkpt><trkpt lat="43.3068379" lon="11.958816683333334"><ele>553.0</ele><time>2026-04-25T10:47:15.582Z</time></trkpt><trkpt lat="43.30679669999999" lon="11.9587193"><ele>553.0</ele><time>2026-04-25T10:47:18.587Z</time></trkpt><trkpt lat="43.306763249999996" lon="11.95861955"><ele>553.0</ele><time>2026-04-25T10:47:21.598Z</time></trkpt><trkpt lat="43.30671598333333" lon="11.9585129"><ele>553.0</ele><time>2026-04-25T10:47:24.606Z</time></trkpt><trkpt lat="43.306660583333326" lon="11.958426683333334"><ele>553.0</ele><time>2026-04-25T10:47:27.599Z</time></trkpt><trkpt lat="43.30659645000001" lon="11.958356283333334"><ele>553.0</ele><time>2026-04-25T10:47:30.608Z</time></trkpt><trkpt lat="43.30653568333334" lon="11.958279916666669"><ele>553.0</ele><time>2026-04-25T10:47:33.597Z</time></trkpt><trkpt lat="43.30648353333333" lon="11.958188433333332"><ele>553.0</ele><time>2026-04-25T10:47:36.598Z</time></trkpt><trkpt lat="43.30642855" lon="11.958092216666667"><ele>553.0</ele><time>2026-04-25T10:47:39.621Z</time></trkpt><trkpt lat="43.30637736666666" lon="11.958004850000002"><ele>553.5</ele><time>2026-04-25T10:47:42.604Z</time></trkpt><trkpt lat="43.30632448333334" lon="11.957904350000002"><ele>554.0</ele><time>2026-04-25T10:47:45.657Z</time></trkpt><trkpt lat="43.306273116666674" lon="11.957805866666668"><ele>554.5</ele><time>2026-04-25T10:47:48.639Z</time></trkpt><trkpt lat="43.30622368333334" lon="11.957702916666664"><ele>555.0</ele><time>2026-04-25T10:47:51.616Z</time></trkpt><trkpt lat="43.306179900000004" lon="11.957600016666666"><ele>555.5</ele><time>2026-04-25T10:47:54.657Z</time></trkpt><trkpt lat="43.306149283333326" lon="11.9574857"><ele>556.0</ele><time>2026-04-25T10:47:57.637Z</time></trkpt><trkpt lat="43.30612373333334" lon="11.957377633333332"><ele>558.3333333333334</ele><time>2026-04-25T10:48:00.643Z</time></trkpt><trkpt lat="43.30610566666666" lon="11.957268266666665"><ele>560.6666666666667</ele><time>2026-04-25T10:48:03.638Z</time></trkpt><trkpt lat="43.30607775" lon="11.95714695"><ele>563.0</ele><time>2026-04-25T10:48:06.657Z</time></trkpt><trkpt lat="43.30604251666667" lon="11.957030699999999"><ele>565.3333333333334</ele><time>2026-04-25T10:48:09.658Z</time></trkpt><trkpt lat="43.30601256666667" lon="11.956924733333334"><ele>567.6666666666666</ele><time>2026-04-25T10:48:12.651Z</time></trkpt><trkpt lat="43.305980399999996" lon="11.956817433333333"><ele>570.0</ele><time>2026-04-25T10:48:15.658Z</time></trkpt><trkpt lat="43.305936900000006" lon="11.9567126"><ele>569.1666666666666</ele><time>2026-04-25T10:48:18.649Z</time></trkpt><trkpt lat="43.305893266666665" lon="11.956600216666669"><ele>568.3333333333334</ele><time>2026-04-25T10:48:21.661Z</time></trkpt><trkpt lat="43.30584868333334" lon="11.956490650000001"><ele>567.5</ele><time>2026-04-25T10:48:24.671Z</time></trkpt><trkpt lat="43.305799316666665" lon="11.9563982"><ele>566.6666666666667</ele><time>2026-04-25T10:48:27.681Z</time></trkpt><trkpt lat="43.30576235" lon="11.956323633333332"><ele>565.8333333333334</ele><time>2026-04-25T10:48:29.665Z</time></trkpt><trkpt lat="43.30573188333333" lon="11.9562446"><ele>565.0</ele><time>2026-04-25T10:48:31.682Z</time></trkpt><trkpt lat="43.30570205" lon="11.956164149999998"><ele>565.0</ele><time>2026-04-25T10:48:33.678Z</time></trkpt><trkpt lat="43.305676183333325" lon="11.956078966666666"><ele>565.0</ele><time>2026-04-25T10:48:35.692Z</time></trkpt><trkpt lat="43.305644699999995" lon="11.955959783333332"><ele>565.0</ele><time>2026-04-25T10:48:38.692Z</time></trkpt><trkpt lat="43.305614633333334" lon="11.95584331666667"><ele>565.0</ele><time>2026-04-25T10:48:41.687Z</time></trkpt><trkpt lat="43.305597033333335" lon="11.955728666666667"><ele>565.0</ele><time>2026-04-25T10:48:44.701Z</time></trkpt><trkpt lat="43.30557954999999" lon="11.955611333333332"><ele>565.0</ele><time>2026-04-25T10:48:47.706Z</time></trkpt><trkpt lat="43.30556166666667" lon="11.955496366666667"><ele>564.6666666666667</ele><time>2026-04-25T10:48:50.75Z</time></trkpt><trkpt lat="43.30553798333334" lon="11.955382683333335"><ele>564.3333333333334</ele><time>2026-04-25T10:48:53.694Z</time></trkpt><trkpt lat="43.30549913333333" lon="11.955270900000002"><ele>564.0</ele><time>2026-04-25T10:48:56.742Z</time></trkpt><trkpt lat="43.30546569999999" lon="11.955184816666666"><ele>563.6666666666666</ele><time>2026-04-25T10:48:58.703Z</time></trkpt><trkpt lat="43.30543063333333" lon="11.955104883333336"><ele>563.3333333333333</ele><time>2026-04-25T10:49:00.71Z</time></trkpt><trkpt lat="43.30537846666666" lon="11.955002683333332"><ele>563.0</ele><time>2026-04-25T10:49:03.72Z</time></trkpt><trkpt lat="43.3053294" lon="11.954899699999999"><ele>560.6666666666666</ele><time>2026-04-25T10:49:06.712Z</time></trkpt><trkpt lat="43.30529186666666" lon="11.954804216666664"><ele>558.3333333333333</ele><time>2026-04-25T10:49:09.731Z</time></trkpt><trkpt lat="43.305248933333324" lon="11.954714300000001"><ele>556.0</ele><time>2026-04-25T10:49:12.723Z</time></trkpt><trkpt lat="43.30520371666666" lon="11.954622116666668"><ele>553.6666666666666</ele><time>2026-04-25T10:49:16.723Z</time></trkpt><trkpt lat="43.30517746666666" lon="11.954538300000001"><ele>551.3333333333334</ele><time>2026-04-25T10:49:19.736Z</time></trkpt><trkpt lat="43.30514575" lon="11.954421066666665"><ele>549.0</ele><time>2026-04-25T10:49:22.735Z</time></trkpt><trkpt lat="43.30510791666668" lon="11.954312683333333"><ele>548.1666666666666</ele><time>2026-04-25T10:49:25.736Z</time></trkpt><trkpt lat="43.30508385" lon="11.954198833333331"><ele>547.3333333333334</ele><time>2026-04-25T10:49:28.752Z</time></trkpt><trkpt lat="43.30507551666666" lon="11.954102433333333"><ele>546.5</ele><time>2026-04-25T10:49:31.765Z</time></trkpt><trkpt lat="43.30506608333334" lon="11.953998566666668"><ele>545.6666666666667</ele><time>2026-04-25T10:49:34.745Z</time></trkpt><trkpt lat="43.30504665" lon="11.9538855"><ele>544.8333333333334</ele><time>2026-04-25T10:49:37.761Z</time></trkpt><trkpt lat="43.30503665" lon="11.953771249999999"><ele>544.0</ele><time>2026-04-25T10:49:40.764Z</time></trkpt><trkpt lat="43.30503976666667" lon="11.953663116666666"><ele>543.9999999999999</ele><time>2026-04-25T10:49:43.76Z</time></trkpt><trkpt lat="43.30505225" lon="11.953572166666666"><ele>544.0</ele><time>2026-04-25T10:49:46.781Z</time></trkpt><trkpt lat="43.30508266666667" lon="11.953474100000001"><ele>544.0</ele><time>2026-04-25T10:49:50.79Z</time></trkpt><trkpt lat="43.305081216666665" lon="11.95336745"><ele>544.0</ele><time>2026-04-25T10:49:54.785Z</time></trkpt><trkpt lat="43.30510328333333" lon="11.953284883333332"><ele>544.0</ele><time>2026-04-25T10:49:57.79Z</time></trkpt><trkpt lat="43.30511403333333" lon="11.953178800000002"><ele>543.9999999999999</ele><time>2026-04-25T10:50:01.799Z</time></trkpt><trkpt lat="43.305094800000006" lon="11.953084916666667"><ele>544.0</ele><time>2026-04-25T10:50:05.791Z</time></trkpt><trkpt lat="43.305062116666676" lon="11.952987666666667"><ele>543.1428571428571</ele><time>2026-04-25T10:50:09.807Z</time></trkpt><trkpt lat="43.30500685" lon="11.952924533333332"><ele>542.2857142857142</ele><time>2026-04-25T10:50:12.812Z</time></trkpt><trkpt lat="43.30494796666667" lon="11.952888399999999"><ele>541.4285714285714</ele><time>2026-04-25T10:50:15.807Z</time></trkpt><trkpt lat="43.304874033333334" lon="11.95284955"><ele>540.5714285714286</ele><time>2026-04-25T10:50:18.796Z</time></trkpt><trkpt lat="43.30479391666666" lon="11.952871516666667"><ele>539.7142857142858</ele><time>2026-04-25T10:50:21.829Z</time></trkpt><trkpt lat="43.30472988333332" lon="11.952891"><ele>538.8571428571429</ele><time>2026-04-25T10:50:24.817Z</time></trkpt><trkpt lat="43.304664900000006" lon="11.952884483333332"><ele>538.0</ele><time>2026-04-25T10:50:27.824Z</time></trkpt><trkpt lat="43.30460613333333" lon="11.952835766666665"><ele>534.0</ele><time>2026-04-25T10:50:30.82Z</time></trkpt><trkpt lat="43.304554966666664" lon="11.952767516666665"><ele>530.0</ele><time>2026-04-25T10:50:33.826Z</time></trkpt><trkpt lat="43.304546216666665" lon="11.952666399999998"><ele>526.0</ele><time>2026-04-25T10:50:36.817Z</time></trkpt><trkpt lat="43.3045534" lon="11.952564233333332"><ele>522.0</ele><time>2026-04-25T10:50:39.824Z</time></trkpt><trkpt lat="43.304573116666674" lon="11.952468066666665"><ele>518.0</ele><time>2026-04-25T10:50:42.841Z</time></trkpt><trkpt lat="43.304579133333334" lon="11.9523755"><ele>514.0</ele><time>2026-04-25T10:50:45.826Z</time></trkpt><trkpt lat="43.30450623333333" lon="11.952310833333334"><ele>510.0</ele><time>2026-04-25T10:50:49.844Z</time></trkpt><trkpt lat="43.304432616666666" lon="11.952274416666668"><ele>510.0</ele><time>2026-04-25T10:50:52.849Z</time></trkpt><trkpt lat="43.30436746666666" lon="11.952221566666667"><ele>510.00000000000006</ele><time>2026-04-25T10:50:55.842Z</time></trkpt><trkpt lat="43.30431095000001" lon="11.952168116666668"><ele>510.0</ele><time>2026-04-25T10:50:58.858Z</time></trkpt><trkpt lat="43.30427885" lon="11.952064083333335"><ele>510.0</ele><time>2026-04-25T10:51:02.864Z</time></trkpt><trkpt lat="43.30427771666667" lon="11.951976649999999"><ele>510.00000000000006</ele><time>2026-04-25T10:51:05.85Z</time></trkpt><trkpt lat="43.30432259999999" lon="11.951909766666665"><ele>510.0</ele><time>2026-04-25T10:51:08.868Z</time></trkpt><trkpt lat="43.30438133333333" lon="11.951848733333334"><ele>510.0</ele><time>2026-04-25T10:51:11.877Z</time></trkpt><trkpt lat="43.30444301666666" lon="11.95180485"><ele>510.0</ele><time>2026-04-25T10:51:14.871Z</time></trkpt><trkpt lat="43.30451343333334" lon="11.951733316666667"><ele>510.0</ele><time>2026-04-25T10:51:18.876Z</time></trkpt><trkpt lat="43.30456263333333" lon="11.951646816666669"><ele>510.0</ele><time>2026-04-25T10:51:21.866Z</time></trkpt><trkpt lat="43.30458635" lon="11.951551666666667"><ele>510.0</ele><time>2026-04-25T10:51:24.878Z</time></trkpt><trkpt lat="43.304579833333335" lon="11.951448583333335"><ele>510.0</ele><time>2026-04-25T10:51:27.888Z</time></trkpt><trkpt lat="43.30454378333334" lon="11.951372733333335"><ele>510.0</ele><time>2026-04-25T10:51:30.892Z</time></trkpt><trkpt lat="43.304525749999996" lon="11.951280066666667"><ele>509.3333333333333</ele><time>2026-04-25T10:51:33.888Z</time></trkpt><trkpt lat="43.3044763" lon="11.951203283333333"><ele>508.66666666666663</ele><time>2026-04-25T10:51:36.883Z</time></trkpt><trkpt lat="43.30442800000001" lon="11.951103166666668"><ele>508.0</ele><time>2026-04-25T10:51:39.909Z</time></trkpt><trkpt lat="43.30439028333333" lon="11.951005483333331"><ele>507.3333333333333</ele><time>2026-04-25T10:51:42.896Z</time></trkpt><trkpt lat="43.30435928333333" lon="11.950918633333332"><ele>506.66666666666663</ele><time>2026-04-25T10:51:45.908Z</time></trkpt><trkpt lat="43.304322400000004" lon="11.950827233333333"><ele>506.0</ele><time>2026-04-25T10:51:48.898Z</time></trkpt><trkpt lat="43.30430868333333" lon="11.950737199999999"><ele>504.49999999999994</ele><time>2026-04-25T10:51:51.908Z</time></trkpt><trkpt lat="43.304278666666676" lon="11.950653299999999"><ele>503.0</ele><time>2026-04-25T10:51:55.897Z</time></trkpt><trkpt lat="43.30422158333334" lon="11.9505904"><ele>501.5</ele><time>2026-04-25T10:51:58.917Z</time></trkpt><trkpt lat="43.30415396666667" lon="11.950556616666667"><ele>500.0</ele><time>2026-04-25T10:52:01.919Z</time></trkpt><trkpt lat="43.30408091666667" lon="11.950504350000003"><ele>498.49999999999994</ele><time>2026-04-25T10:52:04.908Z</time></trkpt><trkpt lat="43.30399721666666" lon="11.950516216666664"><ele>497.0</ele><time>2026-04-25T10:52:07.922Z</time></trkpt><trkpt lat="43.30392351666666" lon="11.9505302"><ele>493.8333333333333</ele><time>2026-04-25T10:52:10.933Z</time></trkpt><trkpt lat="43.3038468" lon="11.950523266666668"><ele>490.66666666666663</ele><time>2026-04-25T10:52:14.923Z</time></trkpt><trkpt lat="43.30379375000001" lon="11.950463133333336"><ele>487.5</ele><time>2026-04-25T10:52:17.935Z</time></trkpt><trkpt lat="43.303764150000006" lon="11.950362166666665"><ele>484.33333333333337</ele><time>2026-04-25T10:52:20.922Z</time></trkpt><trkpt lat="43.30376175" lon="11.950253449999998"><ele>481.1666666666667</ele><time>2026-04-25T10:52:23.931Z</time></trkpt><trkpt lat="43.303770433333334" lon="11.9501326"><ele>478.0</ele><time>2026-04-25T10:52:26.944Z</time></trkpt><trkpt lat="43.3037978" lon="11.95002205"><ele>477.1666666666667</ele><time>2026-04-25T10:52:29.955Z</time></trkpt><trkpt lat="43.30383509999999" lon="11.949916766666668"><ele>476.33333333333337</ele><time>2026-04-25T10:52:32.942Z</time></trkpt><trkpt lat="43.303879316666674" lon="11.949814800000002"><ele>475.5</ele><time>2026-04-25T10:52:35.937Z</time></trkpt><trkpt lat="43.30394126666667" lon="11.949753883333337"><ele>474.66666666666663</ele><time>2026-04-25T10:52:38.964Z</time></trkpt><trkpt lat="43.304024633333334" lon="11.949723483333331"><ele>473.8333333333333</ele><time>2026-04-25T10:52:41.953Z</time></trkpt><trkpt lat="43.304105899999996" lon="11.949697333333331"><ele>473.0</ele><time>2026-04-25T10:52:44.968Z</time></trkpt><trkpt lat="43.30417911666667" lon="11.949682866666668"><ele>475.0</ele><time>2026-04-25T10:52:47.955Z</time></trkpt><trkpt lat="43.304384733333336" lon="11.949658166666666"><ele>476.99999999999994</ele><time>2026-04-25T10:52:58.968Z</time></trkpt><trkpt lat="43.304333833333345" lon="11.94957515"><ele>478.99999999999994</ele><time>2026-04-25T10:53:02.964Z</time></trkpt><trkpt lat="43.30427275" lon="11.949501483333332"><ele>481.0</ele><time>2026-04-25T10:53:06.981Z</time></trkpt><trkpt lat="43.304234449999996" lon="11.949427600000002"><ele>483.0</ele><time>2026-04-25T10:53:09.987Z</time></trkpt><trkpt lat="43.30419676666667" lon="11.949333549999999"><ele>483.0</ele><time>2026-04-25T10:53:12.982Z</time></trkpt><trkpt lat="43.304151816666675" lon="11.94924925"><ele>483.0</ele><time>2026-04-25T10:53:15.988Z</time></trkpt><trkpt lat="43.30411598333334" lon="11.949161466666665"><ele>483.0</ele><time>2026-04-25T10:53:19.002Z</time></trkpt><trkpt lat="43.30409111666666" lon="11.949063333333333"><ele>483.0</ele><time>2026-04-25T10:53:21.986Z</time></trkpt><trkpt lat="43.30405998333334" lon="11.948954483333333"><ele>483.0</ele><time>2026-04-25T10:53:24.995Z</time></trkpt><trkpt lat="43.304039849999995" lon="11.948850199999999"><ele>483.0</ele><time>2026-04-25T10:53:28.007Z</time></trkpt><trkpt lat="43.30402313333334" lon="11.948752966666666"><ele>480.5</ele><time>2026-04-25T10:53:31.002Z</time></trkpt><trkpt lat="43.30400698333333" lon="11.948653266666668"><ele>478.0</ele><time>2026-04-25T10:53:34.007Z</time></trkpt><trkpt lat="43.30400213333334" lon="11.948543633333335"><ele>475.5</ele><time>2026-04-25T10:53:37.017Z</time></trkpt><trkpt lat="43.303997333333335" lon="11.948428466666666"><ele>473.0</ele><time>2026-04-25T10:53:40.013Z</time></trkpt><trkpt lat="43.30399645000001" lon="11.948313633333331"><ele>470.5</ele><time>2026-04-25T10:53:43.041Z</time></trkpt><trkpt lat="43.303986116666664" lon="11.948193716666667"><ele>468.0</ele><time>2026-04-25T10:53:46.034Z</time></trkpt><trkpt lat="43.303969316666674" lon="11.9480801"><ele>465.8333333333333</ele><time>2026-04-25T10:53:49.045Z</time></trkpt><trkpt lat="43.30395561666666" lon="11.947961666666666"><ele>463.66666666666663</ele><time>2026-04-25T10:53:52.052Z</time></trkpt><trkpt lat="43.30393861666666" lon="11.947849333333332"><ele>461.5</ele><time>2026-04-25T10:53:55.042Z</time></trkpt><trkpt lat="43.30393358333334" lon="11.947723083333335"><ele>459.3333333333333</ele><time>2026-04-25T10:53:58.057Z</time></trkpt><trkpt lat="43.303922449999995" lon="11.947598416666665"><ele>457.16666666666663</ele><time>2026-04-25T10:54:01.062Z</time></trkpt><trkpt lat="43.30392203333334" lon="11.947485400000001"><ele>455.0</ele><time>2026-04-25T10:54:04.052Z</time></trkpt><trkpt lat="43.30391943333334" lon="11.947372633333336"><ele>453.8333333333333</ele><time>2026-04-25T10:54:07.067Z</time></trkpt><trkpt lat="43.30393211666666" lon="11.947256833333332"><ele>452.66666666666663</ele><time>2026-04-25T10:54:10.052Z</time></trkpt><trkpt lat="43.30393408333333" lon="11.947142699999999"><ele>451.5</ele><time>2026-04-25T10:54:13.062Z</time></trkpt><trkpt lat="43.30392736666666" lon="11.947022333333333"><ele>450.33333333333337</ele><time>2026-04-25T10:54:16.07Z</time></trkpt><trkpt lat="43.30393018333333" lon="11.946903100000002"><ele>449.1666666666667</ele><time>2026-04-25T10:54:19.082Z</time></trkpt><trkpt lat="43.30394870000001" lon="11.94678995"><ele>448.0</ele><time>2026-04-25T10:54:22.068Z</time></trkpt><trkpt lat="43.30396991666667" lon="11.946669499999999"><ele>447.1666666666667</ele><time>2026-04-25T10:54:25.082Z</time></trkpt><trkpt lat="43.303983683333335" lon="11.946559033333331"><ele>446.33333333333337</ele><time>2026-04-25T10:54:28.092Z</time></trkpt><trkpt lat="43.30400181666668" lon="11.946443416666668"><ele>445.5</ele><time>2026-04-25T10:54:31.082Z</time></trkpt><trkpt lat="43.30400571666667" lon="11.946322666666665"><ele>444.66666666666663</ele><time>2026-04-25T10:54:34.09Z</time></trkpt><trkpt lat="43.30400248333334" lon="11.946202583333335"><ele>443.8333333333333</ele><time>2026-04-25T10:54:37.077Z</time></trkpt><trkpt lat="43.303992400000006" lon="11.9460901"><ele>443.0</ele><time>2026-04-25T10:54:40.094Z</time></trkpt><trkpt lat="43.303981883333336" lon="11.945992200000001"><ele>442.99999999999994</ele><time>2026-04-25T10:54:43.105Z</time></trkpt><trkpt lat="43.303967650000004" lon="11.945892199999998"><ele>443.0</ele><time>2026-04-25T10:54:46.087Z</time></trkpt><trkpt lat="43.30395645" lon="11.945789266666669"><ele>443.0</ele><time>2026-04-25T10:54:49.102Z</time></trkpt><trkpt lat="43.3039685" lon="11.945689083333331"><ele>443.0</ele><time>2026-04-25T10:54:52.11Z</time></trkpt><trkpt lat="43.30399181666667" lon="11.945577316666666"><ele>442.99999999999994</ele><time>2026-04-25T10:54:55.102Z</time></trkpt><trkpt lat="43.30399593333333" lon="11.945471166666668"><ele>443.0</ele><time>2026-04-25T10:54:58.114Z</time></trkpt><trkpt lat="43.303983683333335" lon="11.945365233333334"><ele>442.49999999999994</ele><time>2026-04-25T10:55:01.12Z</time></trkpt><trkpt lat="43.3039564" lon="11.945256316666667"><ele>442.0</ele><time>2026-04-25T10:55:04.11Z</time></trkpt><trkpt lat="43.30393248333333" lon="11.945138066666667"><ele>441.5</ele><time>2026-04-25T10:55:07.112Z</time></trkpt><trkpt lat="43.303911916666664" lon="11.945028416666666"><ele>441.0</ele><time>2026-04-25T10:55:10.134Z</time></trkpt><trkpt lat="43.30389275" lon="11.944918616666667"><ele>440.49999999999994</ele><time>2026-04-25T10:55:13.121Z</time></trkpt><trkpt lat="43.30387493333333" lon="11.944817716666668"><ele>440.0</ele><time>2026-04-25T10:55:16.115Z</time></trkpt><trkpt lat="43.303852649999996" lon="11.944707566666667"><ele>438.3333333333333</ele><time>2026-04-25T10:55:19.12Z</time></trkpt><trkpt lat="43.30381726666666" lon="11.944593750000001"><ele>436.66666666666663</ele><time>2026-04-25T10:55:22.132Z</time></trkpt><trkpt lat="43.30377485" lon="11.944498849999999"><ele>435.0</ele><time>2026-04-25T10:55:25.142Z</time></trkpt><trkpt lat="43.30371878333334" lon="11.944398866666665"><ele>433.33333333333337</ele><time>2026-04-25T10:55:28.133Z</time></trkpt><trkpt lat="43.3036569" lon="11.944303683333333"><ele>431.6666666666667</ele><time>2026-04-25T10:55:31.143Z</time></trkpt><trkpt lat="43.3035981" lon="11.94421365"><ele>430.0</ele><time>2026-04-25T10:55:34.15Z</time></trkpt><trkpt lat="43.30354493333332" lon="11.944128216666666"><ele>429.1666666666667</ele><time>2026-04-25T10:55:37.14Z</time></trkpt><trkpt lat="43.30350378333332" lon="11.944033033333334"><ele>428.33333333333337</ele><time>2026-04-25T10:55:40.153Z</time></trkpt><trkpt lat="43.303477599999994" lon="11.943929816666666"><ele>427.5</ele><time>2026-04-25T10:55:43.16Z</time></trkpt><trkpt lat="43.30342891666666" lon="11.943851066666666"><ele>426.66666666666663</ele><time>2026-04-25T10:55:46.153Z</time></trkpt><trkpt lat="43.303351683333325" lon="11.943863700000001"><ele>425.8333333333333</ele><time>2026-04-25T10:55:49.165Z</time></trkpt><trkpt lat="43.303278" lon="11.943916483333332"><ele>425.0</ele><time>2026-04-25T10:55:52.16Z</time></trkpt><trkpt lat="43.30320943333333" lon="11.94396985"><ele>424.99999999999994</ele><time>2026-04-25T10:55:55.161Z</time></trkpt><trkpt lat="43.3031386" lon="11.944013316666666"><ele>425.0</ele><time>2026-04-25T10:55:58.177Z</time></trkpt><trkpt lat="43.30307201666666" lon="11.943948933333335"><ele>425.0</ele><time>2026-04-25T10:56:02.168Z</time></trkpt><trkpt lat="43.30306106666667" lon="11.943849499999999"><ele>425.0</ele><time>2026-04-25T10:56:05.18Z</time></trkpt><trkpt lat="43.303059100000006" lon="11.943746916666665"><ele>424.99999999999994</ele><time>2026-04-25T10:56:08.185Z</time></trkpt><trkpt lat="43.30307681666666" lon="11.943636166666666"><ele>425.0</ele><time>2026-04-25T10:56:11.178Z</time></trkpt><trkpt lat="43.30310394999999" lon="11.94352205"><ele>424.99999999999994</ele><time>2026-04-25T10:56:14.19Z</time></trkpt><trkpt lat="43.3031185" lon="11.943402333333333"><ele>425.0</ele><time>2026-04-25T10:56:17.189Z</time></trkpt><trkpt lat="43.30312846666668" lon="11.943310633333333"><ele>425.0</ele><time>2026-04-25T10:56:19.18Z</time></trkpt><trkpt lat="43.30314813333333" lon="11.943192033333332"><ele>425.0</ele><time>2026-04-25T10:56:22.19Z</time></trkpt><trkpt lat="43.30319868333333" lon="11.943106083333332"><ele>424.99999999999994</ele><time>2026-04-25T10:56:25.185Z</time></trkpt><trkpt lat="43.30326398333333" lon="11.9430385"><ele>425.0</ele><time>2026-04-25T10:56:28.185Z</time></trkpt><trkpt lat="43.303340383333335" lon="11.943003216666668"><ele>423.16666666666663</ele><time>2026-04-25T10:56:31.205Z</time></trkpt><trkpt lat="43.303407566666664" lon="11.942965099999999"><ele>421.3333333333333</ele><time>2026-04-25T10:56:34.193Z</time></trkpt><trkpt lat="43.30348098333334" lon="11.942934883333331"><ele>419.5</ele><time>2026-04-25T10:56:37.203Z</time></trkpt><trkpt lat="43.30355495" lon="11.942904933333333"><ele>417.66666666666663</ele><time>2026-04-25T10:56:40.213Z</time></trkpt><trkpt lat="43.30363453333332" lon="11.942875733333334"><ele>415.8333333333333</ele><time>2026-04-25T10:56:43.21Z</time></trkpt><trkpt lat="43.30371406666666" lon="11.942840966666665"><ele>414.0</ele><time>2026-04-25T10:56:46.213Z</time></trkpt><trkpt lat="43.303798750000006" lon="11.942793283333334"><ele>414.0</ele><time>2026-04-25T10:56:49.223Z</time></trkpt><trkpt lat="43.303877783333334" lon="11.942748083333333"><ele>414.0</ele><time>2026-04-25T10:56:52.233Z</time></trkpt><trkpt lat="43.303956733333344" lon="11.942693483333334"><ele>414.0</ele><time>2026-04-25T10:56:55.22Z</time></trkpt><trkpt lat="43.30401108333334" lon="11.942621016666665"><ele>414.0</ele><time>2026-04-25T10:56:58.215Z</time></trkpt><trkpt lat="43.30404123333333" lon="11.942521516666666"><ele>414.0</ele><time>2026-04-25T10:57:01.241Z</time></trkpt><trkpt lat="43.304030733333335" lon="11.942403566666668"><ele>414.0</ele><time>2026-04-25T10:57:04.238Z</time></trkpt><trkpt lat="43.304000200000004" lon="11.942299649999999"><ele>410.8333333333333</ele><time>2026-04-25T10:57:07.24Z</time></trkpt><trkpt lat="43.30396904999999" lon="11.942197199999997"><ele>407.66666666666663</ele><time>2026-04-25T10:57:10.253Z</time></trkpt><trkpt lat="43.3039235" lon="11.942095600000002"><ele>404.5</ele><time>2026-04-25T10:57:13.243Z</time></trkpt><trkpt lat="43.30387246666666" lon="11.941999266666668"><ele>401.3333333333333</ele><time>2026-04-25T10:57:16.237Z</time></trkpt><trkpt lat="43.30383086666667" lon="11.941893783333335"><ele>398.16666666666663</ele><time>2026-04-25T10:57:19.263Z</time></trkpt><trkpt lat="43.303793799999994" lon="11.94178375"><ele>395.0</ele><time>2026-04-25T10:57:22.253Z</time></trkpt><trkpt lat="43.30376473333334" lon="11.941670116666666"><ele>391.8333333333333</ele><time>2026-04-25T10:57:25.263Z</time></trkpt><trkpt lat="43.303725299999996" lon="11.941558816666669"><ele>388.66666666666663</ele><time>2026-04-25T10:57:28.271Z</time></trkpt><trkpt lat="43.303679483333326" lon="11.941456216666666"><ele>385.5</ele><time>2026-04-25T10:57:31.263Z</time></trkpt><trkpt lat="43.3036379" lon="11.94135363333333"><ele>382.3333333333333</ele><time>2026-04-25T10:57:34.263Z</time></trkpt><trkpt lat="43.303605749999996" lon="11.941239383333334"><ele>379.16666666666663</ele><time>2026-04-25T10:57:37.283Z</time></trkpt><trkpt lat="43.30357828333334" lon="11.941122700000003"><ele>376.0</ele><time>2026-04-25T10:57:40.271Z</time></trkpt><trkpt lat="43.30355786666667" lon="11.9410161"><ele>376.0</ele><time>2026-04-25T10:57:43.285Z</time></trkpt><trkpt lat="43.3035524" lon="11.94090165"><ele>376.0</ele><time>2026-04-25T10:57:46.293Z</time></trkpt><trkpt lat="43.303558249999995" lon="11.940784766666665"><ele>376.0</ele><time>2026-04-25T10:57:48.284Z</time></trkpt><trkpt lat="43.30357588333333" lon="11.940679833333334"><ele>376.0</ele><time>2026-04-25T10:57:51.286Z</time></trkpt><trkpt lat="43.30360541666667" lon="11.940580016666669"><ele>376.0</ele><time>2026-04-25T10:57:54.303Z</time></trkpt><trkpt lat="43.30361531666667" lon="11.940490583333334"><ele>376.0</ele><time>2026-04-25T10:57:59.313Z</time></trkpt><trkpt lat="43.303628266666664" lon="11.940391533333331"><ele>375.0</ele><time>2026-04-25T10:58:24.338Z</time></trkpt><trkpt lat="43.30364155" lon="11.940294216666667"><ele>374.0</ele><time>2026-04-25T10:58:27.331Z</time></trkpt><trkpt lat="43.30365454999999" lon="11.940193666666667"><ele>373.0</ele><time>2026-04-25T10:58:30.337Z</time></trkpt><trkpt lat="43.30367381666667" lon="11.940100949999998"><ele>372.0</ele><time>2026-04-25T10:58:33.351Z</time></trkpt><trkpt lat="43.303685883333344" lon="11.940007433333335"><ele>371.0</ele><time>2026-04-25T10:58:36.339Z</time></trkpt><trkpt lat="43.30371121666668" lon="11.939907783333334"><ele>370.0</ele><time>2026-04-25T10:58:39.358Z</time></trkpt><trkpt lat="43.30375275" lon="11.939822183333334"><ele>369.0</ele><time>2026-04-25T10:58:42.361Z</time></trkpt><trkpt lat="43.30379833333333" lon="11.939720333333332"><ele>367.5</ele><time>2026-04-25T10:58:45.35Z</time></trkpt><trkpt lat="43.30384103333334" lon="11.939623616666665"><ele>366.0</ele><time>2026-04-25T10:58:48.368Z</time></trkpt><trkpt lat="43.30389678333333" lon="11.939541049999999"><ele>364.5</ele><time>2026-04-25T10:58:51.372Z</time></trkpt><trkpt lat="43.30395776666666" lon="11.939466333333334"><ele>363.0</ele><time>2026-04-25T10:58:54.363Z</time></trkpt><trkpt lat="43.304025550000006" lon="11.939396583333334"><ele>361.5</ele><time>2026-04-25T10:58:57.368Z</time></trkpt><trkpt lat="43.30409500000001" lon="11.93934965"><ele>360.0</ele><time>2026-04-25T10:59:00.382Z</time></trkpt><trkpt lat="43.3041701" lon="11.939323000000002"><ele>363.0</ele><time>2026-04-25T10:59:03.374Z</time></trkpt><trkpt lat="43.304252016666666" lon="11.939313483333335"><ele>366.0</ele><time>2026-04-25T10:59:06.394Z</time></trkpt><trkpt lat="43.30432948333334" lon="11.939305283333333"><ele>369.0</ele><time>2026-04-25T10:59:09.384Z</time></trkpt><trkpt lat="43.30439811666667" lon="11.939300316666667"><ele>372.0</ele><time>2026-04-25T10:59:12.389Z</time></trkpt><trkpt lat="43.30450336666666" lon="11.93929015"><ele>375.0</ele><time>2026-04-25T10:59:16.397Z</time></trkpt><trkpt lat="43.30459033333334" lon="11.939253916666667"><ele>378.0</ele><time>2026-04-25T10:59:19.401Z</time></trkpt><trkpt lat="43.304674616666674" lon="11.939249183333335"><ele>375.0</ele><time>2026-04-25T10:59:22.399Z</time></trkpt><trkpt lat="43.30474573333333" lon="11.9392033"><ele>372.0</ele><time>2026-04-25T10:59:25.405Z</time></trkpt><trkpt lat="43.30479238333334" lon="11.9391275"><ele>369.0</ele><time>2026-04-25T10:59:28.421Z</time></trkpt><trkpt lat="43.30483306666667" lon="11.939023449999999"><ele>366.0</ele><time>2026-04-25T10:59:31.429Z</time></trkpt><trkpt lat="43.30487071666666" lon="11.938910783333332"><ele>363.0</ele><time>2026-04-25T10:59:34.416Z</time></trkpt><trkpt lat="43.30488274999999" lon="11.938786783333335"><ele>360.0</ele><time>2026-04-25T10:59:37.43Z</time></trkpt><trkpt lat="43.30489861666666" lon="11.938671566666667"><ele>359.3333333333333</ele><time>2026-04-25T10:59:40.44Z</time></trkpt><trkpt lat="43.30489403333333" lon="11.938557566666669"><ele>358.6666666666667</ele><time>2026-04-25T10:59:43.434Z</time></trkpt><trkpt lat="43.30488998333333" lon="11.938433533333333"><ele>358.0</ele><time>2026-04-25T10:59:46.436Z</time></trkpt><trkpt lat="43.30490128333333" lon="11.938325533333332"><ele>357.33333333333337</ele><time>2026-04-25T10:59:49.435Z</time></trkpt><trkpt lat="43.30491233333334" lon="11.938212616666666"><ele>356.6666666666667</ele><time>2026-04-25T10:59:52.443Z</time></trkpt><trkpt lat="43.30494650000001" lon="11.938099133333331"><ele>356.0</ele><time>2026-04-25T10:59:55.449Z</time></trkpt><trkpt lat="43.30498325000001" lon="11.937990066666668"><ele>355.83333333333337</ele><time>2026-04-25T10:59:58.461Z</time></trkpt><trkpt lat="43.3050171" lon="11.937885383333333"><ele>355.6666666666667</ele><time>2026-04-25T11:00:01.45Z</time></trkpt><trkpt lat="43.305055016666664" lon="11.937776450000001"><ele>355.5</ele><time>2026-04-25T11:00:04.459Z</time></trkpt><trkpt lat="43.305099199999994" lon="11.937674466666666"><ele>355.3333333333333</ele><time>2026-04-25T11:00:07.475Z</time></trkpt><trkpt lat="43.30514363333333" lon="11.937569133333334"><ele>355.16666666666663</ele><time>2026-04-25T11:00:10.465Z</time></trkpt><trkpt lat="43.305199800000004" lon="11.937474000000002"><ele>355.0</ele><time>2026-04-25T11:00:13.466Z</time></trkpt><trkpt lat="43.30526811666667" lon="11.937390999999998"><ele>354.5</ele><time>2026-04-25T11:00:16.485Z</time></trkpt><trkpt lat="43.30531535" lon="11.937330033333334"><ele>354.0</ele><time>2026-04-25T11:00:18.487Z</time></trkpt><trkpt lat="43.305364283333326" lon="11.937269366666666"><ele>353.5</ele><time>2026-04-25T11:00:20.475Z</time></trkpt><trkpt lat="43.3054332" lon="11.937180499999998"><ele>353.0</ele><time>2026-04-25T11:00:23.481Z</time></trkpt><trkpt lat="43.30547846666666" lon="11.937114933333332"><ele>352.5</ele><time>2026-04-25T11:00:25.493Z</time></trkpt><trkpt lat="43.30553515" lon="11.937017733333334"><ele>352.0</ele><time>2026-04-25T11:00:28.484Z</time></trkpt><trkpt lat="43.30557888333333" lon="11.936922266666667"><ele>352.16666666666663</ele><time>2026-04-25T11:00:31.492Z</time></trkpt><trkpt lat="43.30562464999999" lon="11.936821449999998"><ele>352.3333333333333</ele><time>2026-04-25T11:00:34.505Z</time></trkpt><trkpt lat="43.30567593333333" lon="11.936721666666665"><ele>352.5</ele><time>2026-04-25T11:00:37.511Z</time></trkpt><trkpt lat="43.3057323" lon="11.936637700000002"><ele>352.6666666666667</ele><time>2026-04-25T11:00:40.505Z</time></trkpt><trkpt lat="43.30579866666667" lon="11.936576983333335"><ele>352.83333333333337</ele><time>2026-04-25T11:00:43.514Z</time></trkpt><trkpt lat="43.30588423333334" lon="11.936525950000002"><ele>353.0</ele><time>2026-04-25T11:00:46.522Z</time></trkpt><trkpt lat="43.30596141666666" lon="11.93649245"><ele>353.0</ele><time>2026-04-25T11:00:49.513Z</time></trkpt><trkpt lat="43.30604783333334" lon="11.936481583333334"><ele>353.0</ele><time>2026-04-25T11:00:52.525Z</time></trkpt><trkpt lat="43.3061674" lon="11.936474033333331"><ele>353.0</ele><time>2026-04-25T11:00:56.54Z</time></trkpt><trkpt lat="43.30624720000001" lon="11.93646845"><ele>353.0</ele><time>2026-04-25T11:00:59.536Z</time></trkpt><trkpt lat="43.306330366666664" lon="11.936466733333335"><ele>353.0</ele><time>2026-04-25T11:01:02.545Z</time></trkpt><trkpt lat="43.30641455" lon="11.936477899999998"><ele>353.0</ele><time>2026-04-25T11:01:05.551Z</time></trkpt><trkpt lat="43.30649603333333" lon="11.936487833333334"><ele>353.0</ele><time>2026-04-25T11:01:08.539Z</time></trkpt><trkpt lat="43.3065769" lon="11.936506083333331"><ele>353.0</ele><time>2026-04-25T11:01:11.549Z</time></trkpt><trkpt lat="43.30665105" lon="11.936533466666667"><ele>353.0</ele><time>2026-04-25T11:01:14.544Z</time></trkpt><trkpt lat="43.306722099999995" lon="11.936567033333333"><ele>353.0</ele><time>2026-04-25T11:01:17.556Z</time></trkpt><trkpt lat="43.306791350000005" lon="11.93657443333333"><ele>353.0</ele><time>2026-04-25T11:01:20.57Z</time></trkpt><trkpt lat="43.30687226666667" lon="11.936560583333335"><ele>353.0</ele><time>2026-04-25T11:01:23.551Z</time></trkpt><trkpt lat="43.30695420000001" lon="11.936542066666668"><ele>353.0</ele><time>2026-04-25T11:01:26.562Z</time></trkpt><trkpt lat="43.30703368333334" lon="11.936524633333333"><ele>353.0</ele><time>2026-04-25T11:01:29.57Z</time></trkpt><trkpt lat="43.30711168333333" lon="11.93651228333333"><ele>353.0</ele><time>2026-04-25T11:01:32.576Z</time></trkpt><trkpt lat="43.30719275" lon="11.936490466666665"><ele>353.0</ele><time>2026-04-25T11:01:35.568Z</time></trkpt><trkpt lat="43.30727161666667" lon="11.936471916666669"><ele>353.0</ele><time>2026-04-25T11:01:38.582Z</time></trkpt><trkpt lat="43.30735688333333" lon="11.936457916666665"><ele>352.57142857142856</ele><time>2026-04-25T11:01:41.594Z</time></trkpt><trkpt lat="43.307429983333336" lon="11.936462050000001"><ele>352.14285714285717</ele><time>2026-04-25T11:01:44.583Z</time></trkpt><trkpt lat="43.30749361666667" lon="11.93649345"><ele>351.7142857142857</ele><time>2026-04-25T11:01:47.595Z</time></trkpt><trkpt lat="43.3075507" lon="11.936547683333334"><ele>351.2857142857143</ele><time>2026-04-25T11:01:50.597Z</time></trkpt><trkpt lat="43.30760023333334" lon="11.936605850000001"><ele>350.8571428571429</ele><time>2026-04-25T11:01:53.593Z</time></trkpt><trkpt lat="43.307646250000005" lon="11.936668816666668"><ele>350.42857142857144</ele><time>2026-04-25T11:01:56.6Z</time></trkpt><trkpt lat="43.30764888333333" lon="11.936765733333335"><ele>350.0</ele><time>2026-04-25T11:02:00.621Z</time></trkpt><trkpt lat="43.30758168333334" lon="11.936749916666667"><ele>350.0</ele><time>2026-04-25T11:02:04.627Z</time></trkpt><trkpt lat="43.307511216666676" lon="11.936720466666667"><ele>350.0</ele><time>2026-04-25T11:02:07.622Z</time></trkpt><trkpt lat="43.30742656666666" lon="11.936710516666668"><ele>350.0</ele><time>2026-04-25T11:02:11.613Z</time></trkpt><trkpt lat="43.3073605" lon="11.936718183333335"><ele>350.0</ele><time>2026-04-25T11:02:14.632Z</time></trkpt><trkpt lat="43.30728193333333" lon="11.93673515"><ele>350.0</ele><time>2026-04-25T11:02:18.632Z</time></trkpt><trkpt lat="43.307199316666654" lon="11.936750866666667"><ele>350.0</ele><time>2026-04-25T11:02:22.646Z</time></trkpt><trkpt lat="43.3071487" lon="11.936811599999999"><ele>350.0</ele><time>2026-04-25T11:02:27.642Z</time></trkpt><trkpt lat="43.307094066666664" lon="11.936870266666665"><ele>350.0</ele><time>2026-04-25T11:03:17.794Z</time></trkpt><trkpt lat="43.30704953333334" lon="11.936934666666666"><ele>350.0</ele><time>2026-04-25T11:03:25.748Z</time></trkpt><trkpt lat="43.30701798333333" lon="11.937010383333332"><ele>350.0</ele><time>2026-04-25T11:03:33.718Z</time></trkpt><trkpt lat="43.30705725" lon="11.937081899999997"><ele>350.0</ele><time>2026-04-25T11:03:48.741Z</time></trkpt><trkpt lat="43.3071108" lon="11.937128933333334"><ele>350.0</ele><time>2026-04-25T11:03:55.762Z</time></trkpt><trkpt lat="43.3072017" lon="11.937145749999997"><ele>350.0</ele><time>2026-04-25T11:06:14.939Z</time></trkpt><trkpt lat="43.3072644" lon="11.93716675"><ele>350.0</ele><time>2026-04-25T11:06:30.949Z</time></trkpt><trkpt lat="43.30733043333333" lon="11.937184883333336"><ele>350.0</ele><time>2026-04-25T11:06:40.975Z</time></trkpt><trkpt lat="43.307341583333326" lon="11.937097216666666"><ele>350.0</ele><time>2026-04-25T11:06:48.971Z</time></trkpt><trkpt lat="43.3073737" lon="11.93702005"><ele>350.0</ele><time>2026-04-25T11:06:55.984Z</time></trkpt><trkpt lat="43.307436466666665" lon="11.936975783333333"><ele>350.0</ele><time>2026-04-25T11:07:06.002Z</time></trkpt><trkpt lat="43.307372416666674" lon="11.936959600000002"><ele>350.0</ele><time>2026-04-25T11:07:27.023Z</time></trkpt><trkpt lat="43.307314016666666" lon="11.936919983333333"><ele>350.0</ele><time>2026-04-25T11:07:35.043Z</time></trkpt><trkpt lat="43.307249916666656" lon="11.936870016666667"><ele>350.0</ele><time>2026-04-25T11:07:50.06Z</time></trkpt><trkpt lat="43.30718114999999" lon="11.936850116666669"><ele>361.0</ele><time>2026-04-25T11:07:54.095Z</time></trkpt></trkseg></trk></gpx>